[[{"header":{"parameterUnit":"m.s-1","parameterCategory":1,"la1":31.0,"la2":29.5877,"lo1":-88.7671,"lo2":-86.6584,"dx":0.0162,"dy":0.0185,"nx":115,"ny":88,"refTime":"2022-11-23T18:00:00:Z","depth":0,"parameterNumber":2,"parameterNumberName":"U-component_of_WINDS"},"data":[0.0,0.0,0.0,0.0,0.0,0.0,0.0,0.0,0.0,0.0,0.0,0.0,0.0,0.0,0.0,0.0,0.0,0.0,0.0,0.0,0.0,0.0,0.0,0.0,0.0,0.0,0.0,0.0,0.0,0.0,0.0,0.0,0.0,0.0,0.0,0.0,0.0,0.0,0.0,0.0,0.0,0.0,0.0,0.0,0.0,0.0,0.0,0.0,0.0,0.0,0.0,0.0,0.0,0.0,0.0,0.0,0.0,0.0,0.0,0.0,0.0,0.0,0.0,0.0,0.0,0.0,0.0,0.0,0.0,0.0,0.0,0.0,0.0,0.0,0.0,0.0,0.0,0.0,0.0,0.0,0.0,0.0,0.0,0.0,0.0,0.0,0.0,0.0,0.0,0.0,0.0,0.0,0.0,0.0,0.0,0.0,0.0,0.0,0.0,0.0,0.0,0.0,0.0,0.0,0.0,0.0,0.0,0.0,0.0,0.0,0.0,0.0,0.0,0.0,0.0,0.0,0.0,0.0,0.0,0.0,0.0,0.0,0.0,0.0,0.0,0.0,0.0,0.0,0.0,0.0,0.0,0.0,0.0,0.0,0.0,0.0,0.0,0.0,0.0,0.0,0.0,0.0,0.0,0.0,0.0,0.0,0.0,0.0,0.0,0.0,0.0,0.0,0.0,0.0,0.0,0.0,0.0,0.0,0.0,0.0,0.0,0.0,0.0,0.0,0.0,0.0,0.0,0.0,0.0,0.0,0.0,0.0,0.0,0.0,0.0,0.0,0.0,0.0,0.0,0.0,0.0,0.0,0.0,0.0,0.0,0.0,0.0,0.0,0.0,0.0,0.0,0.0,0.0,0.0,0.0,0.0,0.0,0.0,0.0,0.0,0.0,0.0,0.0,0.0,0.0,0.0,0.0,0.0,0.0,0.0,0.0,0.0,0.0,0.0,0.0,0.0,0.0,0.0,0.0,0.0,0.0,0.0,0.0,0.0,0.0,0.0,0.0,0.0,0.0,0.0,0.0,0.0,0.0,0.0,0.0,0.0,0.0,0.0,0.0,0.0,0.0,0.0,0.0,0.0,0.0,0.0,0.0,0.0,0.0,0.0,0.0,0.0,0.0,0.0,0.0,0.0,0.0,0.0,0.0,0.0,0.0,0.0,0.0,0.0,0.0,0.0,0.0,0.0,0.0,0.0,0.0,0.0,0.0,0.0,0.0,0.0,0.0,0.0,0.0,0.0,0.0,0.0,0.0,0.0,0.0,0.0,0.0,0.0,0.0,0.0,0.0,0.0,0.0,0.0,0.0,0.0,0.0,0.0,0.0,0.0,0.0,0.0,0.0,0.0,0.0,0.0,0.0,0.0,0.0,0.0,0.0,0.0,0.0,0.0,0.0,0.0,0.0,0.0,0.0,0.0,0.0,0.0,0.0,0.0,0.0,0.0,0.0,0.0,0.0,0.0,0.0,0.0,0.0,0.0,0.0,0.0,0.0,0.0,0.0,0.0,0.0,0.0,0.0,0.0,0.0,0.0,0.0,0.0,0.0,0.0,0.0,0.0,0.0,0.0,0.0,0.0,0.0,0.0,0.0,0.0,0.0,0.0,0.0,0.0,0.0,0.0,0.0,0.0,0.0,0.0,0.0,0.0,0.0,0.0,0.0,0.0,0.0,0.0,0.0,0.0,0.0,0.0,0.0,0.0,0.0,0.0,0.0,0.0,0.0,0.0,0.0,0.0,0.0,0.0,0.0,0.0,0.0,0.0,0.0,0.0,0.0,0.0,0.0,0.0,0.0,0.0,0.0,0.0,0.0,0.0,0.0,0.0,0.0,0.0,0.0,0.0,0.0,0.0,0.0,0.0,0.0,0.0,0.0,0.0,0.0,0.0,0.0,0.0,0.0,0.0,0.0,0.0,0.0,0.0,0.0,0.0,0.0,0.0,0.0,0.0,0.0,0.0,0.0,0.0,0.0,0.0,0.0,0.0,0.0,0.0,0.0,0.0,0.0,0.0,0.0,0.0,0.0,0.0,0.0,0.0,0.0,0.0,0.0,0.0,0.0,0.0,0.0,0.0,0.0,0.0,0.0,0.0,0.0,0.0,0.0,0.0,0.0,0.0,0.0,0.0,0.0,0.0,0.0,0.0,0.0,0.0,0.0,0.0,0.0,0.0,0.0,0.0,0.0,0.0,0.0,0.0,0.0,0.0,0.0,0.0,0.0,0.0,0.0,0.0,0.0,0.0,0.0,0.0,0.0,0.0,0.0,0.0,0.0,0.0,0.0,0.0,0.0,0.0,0.0,0.0,0.0,0.0,0.0,0.0,0.0,0.0,0.0,0.0,0.0,0.0,0.0,0.0,0.0,0.0,0.0,0.0,0.0,0.0,0.0,0.0,0.0,0.0,0.0,0.0,0.0,0.0,0.0,0.0,0.0,0.0,0.0,0.0,0.0,0.0,0.0,0.0,0.0,0.0,0.0,0.0,0.0,0.0,0.0,0.0,0.0,0.0,0.0,0.0,0.0,0.0,0.0,0.0,0.0,0.0,0.0,0.0,0.0,0.0,0.0,0.0,0.0,0.0,0.0,0.0,0.0,0.0,0.0,0.0,0.0,0.0,0.0,0.0,0.0,0.0,0.0,0.0,0.0,0.0,0.0,0.0,0.0,0.0,0.0,0.0,0.0,0.0,0.0,0.0,0.0,0.0,0.0,0.0,0.0,0.0,0.0,0.0,0.0,0.0,0.0,0.0,0.0,0.0,0.0,0.0,0.0,0.0,0.0,0.0,0.0,0.0,0.0,0.0,0.0,0.0,0.0,0.0,0.0,0.0,0.0,0.0,0.0,0.0,0.0,0.0,0.0,0.0,0.0,0.0,0.0,0.0,0.0,0.0,0.0,0.0,0.0,0.0,0.0,0.0,0.0,0.0,0.0,0.0,0.0,0.0,0.0,0.0,0.0,0.0,0.0,0.0,0.0,0.0,0.0,0.0,0.0,0.0,0.0,0.0,0.0,0.0,0.0,0.0,0.0,0.0,0.0,0.0,0.0,0.0,0.0,0.0,0.0,0.0,0.0,0.0,0.0,0.0,0.0,0.0,0.0,0.0,0.0,0.0,0.0,0.0,0.0,0.0,0.0,0.0,0.0,0.0,0.0,0.0,0.0,0.0,0.0,0.0,0.0,0.0,0.0,0.0,0.0,0.0,0.0,0.0,0.0,0.0,0.0,0.0,0.0,0.0,0.0,0.0,0.0,0.0,0.0,0.0,0.0,0.0,0.0,0.0,0.0,0.0,0.0,0.0,0.0,0.0,0.0,0.0,0.0,0.0,0.0,0.0,0.0,0.0,0.0,0.0,0.0,0.0,0.0,0.0,0.0,0.0,0.0,0.0,0.0,0.0,0.0,0.0,0.0,0.0,0.0,0.0,0.0,0.0,0.0,0.0,0.0,0.0,0.0,0.0,0.0,0.0,0.0,0.0,0.0,0.0,0.0,0.0,0.0,0.0,0.0,0.0,0.0,0.0,0.0,0.0,0.0,0.0,0.0,0.0,0.0,0.0,0.0,0.0,0.0,0.0,0.0,0.0,0.0,0.0,0.0,0.0,0.0,0.0,0.0,0.0,0.0,0.0,0.0,0.0,0.0,0.0,0.0,0.0,0.0,0.0,0.0,0.0,0.0,0.0,0.0,0.0,0.0,0.0,0.0,0.0,0.0,0.0,0.0,0.0,0.0,0.0,0.0,0.0,0.0,0.0,0.0,0.0,0.0,0.0,0.0,0.0,0.0,0.0,0.0,0.0,0.0,0.0,0.0,0.0,0.0,0.0,0.0,0.0,0.0,0.0,0.0,0.0,0.0,0.0,0.0,0.0,0.0,0.0,0.0,0.0,0.0,0.0,0.0,0.0,0.0,0.0,0.0,0.0,0.0,0.0,0.0,0.0,0.0,0.0,0.0,0.0,0.0,0.0,0.0,0.0,0.0,0.0,0.0,0.0,0.0,0.0,0.0,0.0,0.0,0.0,0.0,0.0,0.0,0.0,0.0,0.0,0.0,0.0,0.0,0.0,0.0,0.0,0.0,0.0,0.0,0.0,0.0,0.0,0.0,0.0,0.0,0.0,0.0,0.0,0.0,0.0,0.0,0.0,0.0,0.0,0.0,0.0,0.0,0.0,0.0,0.0,0.0,0.0,0.0,0.0,0.0,0.0,0.0,0.0,0.0,0.0,0.0,0.0,0.0,0.0,0.0,0.0,0.0,0.0,0.0,0.0,-0.4123,0.0,0.0,0.0,-0.5054,0.0,0.0,0.0,0.0,0.0,0.0,0.0,0.0,0.0,0.0,0.0,0.0,0.0,0.0,0.0,0.0,0.0,0.0,0.0,0.0,0.0,0.0,0.0,0.0,0.0,0.0,0.0,0.0,0.0,0.0,0.0,0.0,0.0,0.0,0.0,0.0,0.0,0.0,0.0,0.0,0.0,0.0,0.0,0.0,0.0,0.0,0.0,0.0,0.0,0.0,0.0,0.0,0.0,0.0,0.0,0.0,0.0,0.0,0.0,0.0,0.0,0.0,0.0,0.0,0.0,0.0,0.0,0.0,0.0,0.0,0.0,0.0,0.0,0.0,0.0,0.0,0.0,0.0,0.0,0.0,0.0,0.0,0.0,0.0,0.0,0.0,0.0,0.0,0.0,0.0,0.0,0.0,0.0,0.0,0.0,0.0,0.0,0.0,0.0,0.0,0.0,0.0,0.0,0.0,0.0,0.0,0.0,0.0,0.0,0.0,-0.5111,-0.5035,-0.5395,-0.5534,-0.5492,0.0,0.0,0.0,0.0,0.0,0.0,0.0,0.0,0.0,0.0,0.0,0.0,0.0,0.0,0.0,0.0,0.0,0.0,0.0,0.0,0.0,0.0,0.0,0.0,0.0,0.0,0.0,0.0,0.0,0.0,0.0,0.0,0.0,0.0,0.0,0.0,0.0,0.0,0.0,0.0,0.0,0.0,0.0,0.0,0.0,0.0,0.0,0.0,0.0,0.0,0.0,0.0,0.0,0.0,0.0,0.0,0.0,0.0,0.0,0.0,0.0,0.0,0.0,0.0,0.0,0.0,0.0,0.0,0.0,0.0,0.0,0.0,0.0,0.0,0.0,0.0,0.0,0.0,0.0,0.0,0.0,0.0,0.0,0.0,0.0,0.0,0.0,0.0,0.0,0.0,0.0,0.0,0.0,0.0,0.0,0.0,0.0,0.0,0.0,0.0,0.0,0.0,0.0,0.0,0.0,0.0,0.0,0.0,0.0,0.0,0.0,0.0,-0.6215,-0.6222,-0.5962,0.0,0.0,0.0,0.0,0.0,0.0,0.0,0.0,0.0,0.0,0.0,0.0,0.0,0.0,0.0,0.0,0.0,0.0,0.0,0.0,0.0,0.0,0.0,0.0,0.0,0.0,0.0,0.0,0.0,0.0,0.0,0.0,0.0,0.0,0.0,0.0,0.0,0.0,0.0,0.0,0.0,0.0,0.0,0.0,0.0,0.0,0.0,0.0,0.0,0.0,0.0,0.0,0.0,0.0,0.0,0.0,0.0,0.0,0.0,0.0,0.0,0.0,0.0,0.0,0.0,0.0,0.0,0.0,0.0,0.0,0.0,0.0,0.0,0.0,0.0,0.0,0.0,0.0,0.0,0.0,0.0,0.0,0.0,0.0,0.0,0.0,0.0,0.0,0.0,0.0,0.0,0.0,0.0,0.0,0.0,0.0,0.0,0.0,0.0,0.0,0.0,0.0,0.0,0.0,0.0,0.0,0.0,0.0,0.0,0.0,-0.6826,-0.6611,-0.6821,0.0,-0.6388,0.0,0.0,0.0,0.0,0.0,0.0,0.0,0.0,0.0,0.0,0.0,0.0,0.0,0.0,0.0,0.0,0.0,0.0,0.0,0.0,0.0,0.0,0.0,0.0,0.0,0.0,0.0,0.0,0.0,0.0,0.0,0.0,0.0,0.0,0.0,0.0,0.0,0.0,0.0,0.0,0.0,0.0,0.0,0.0,0.0,0.0,0.0,0.0,0.0,0.0,0.0,0.0,0.0,0.0,0.0,0.0,0.0,0.0,0.0,0.0,0.0,0.0,0.0,0.0,0.0,0.0,0.0,0.0,0.0,0.0,0.0,0.0,0.0,0.0,0.0,0.0,0.0,0.0,0.0,0.0,0.0,0.0,0.0,0.0,0.0,0.0,0.0,0.0,0.0,0.0,0.0,0.0,0.0,0.0,0.0,0.0,0.0,0.0,0.0,0.0,0.0,0.0,0.0,0.0,0.0,0.0,0.0,0.0,0.0,0.0,-0.7469,-0.7494,-0.7445,-0.7279,0.0,0.0,0.0,0.0,0.0,0.0,0.0,0.0,0.0,0.0,0.0,0.0,0.0,0.0,0.0,0.0,0.0,0.0,0.0,0.0,0.0,0.0,0.0,0.0,0.0,0.0,0.0,0.0,0.0,0.0,0.0,0.0,0.0,0.0,0.0,0.0,0.0,0.0,0.0,0.0,0.0,0.0,0.0,0.0,0.0,0.0,0.0,0.0,0.0,0.0,0.0,0.0,0.0,0.0,0.0,0.0,0.0,0.0,0.0,0.0,0.0,0.0,0.0,0.0,0.0,0.0,0.0,0.0,0.0,0.0,0.0,0.0,0.0,0.0,0.0,0.0,0.0,0.0,0.0,0.0,0.0,0.0,0.0,0.0,0.0,0.0,0.0,0.0,0.0,0.0,0.0,0.0,0.0,0.0,0.0,0.0,0.0,0.0,0.0,0.0,0.0,0.0,0.0,0.0,0.0,0.0,0.0,0.0,0.0,0.0,-0.7865,-0.7877,-0.8008,-0.7851,-0.7682,-0.739,0.0,0.0,0.0,0.0,0.0,0.0,0.0,0.0,0.0,0.0,0.0,0.0,0.0,0.0,0.0,0.0,0.0,0.0,0.0,0.0,0.0,0.0,0.0,0.0,0.0,0.0,0.0,0.0,0.0,0.0,0.0,0.0,0.0,0.0,0.0,0.0,0.0,0.0,0.0,0.0,0.0,0.0,0.0,0.0,0.0,0.0,0.0,0.0,0.0,0.0,0.0,0.0,0.0,0.0,0.0,0.0,0.0,0.0,0.0,0.0,0.0,0.0,0.0,0.0,0.0,0.0,0.0,0.0,0.0,0.0,0.0,0.0,0.0,0.0,0.0,0.0,0.0,0.0,0.0,0.0,0.0,0.0,0.0,0.0,0.0,0.0,0.0,0.0,0.0,0.0,0.0,0.0,0.0,0.0,0.0,0.0,0.0,0.0,0.0,0.0,0.0,0.0,0.0,0.0,0.0,0.0,0.0,0.0,-0.7567,-0.7711,-0.7886,-0.8008,-0.8016,-0.7805,0.0,0.0,0.0,0.0,0.0,0.0,0.0,0.0,0.0,0.0,0.0,0.0,0.0,0.0,0.0,0.0,0.0,0.0,0.0,0.0,0.0,0.0,0.0,0.0,0.0,0.0,0.0,0.0,0.0,0.0,0.0,0.0,0.0,0.0,0.0,0.0,0.0,0.0,0.0,0.0,0.0,0.0,0.0,0.0,0.0,0.0,0.0,0.0,0.0,0.0,0.0,0.0,0.0,0.0,0.0,0.0,0.0,0.0,0.0,0.0,0.0,0.0,0.0,0.0,0.0,0.0,0.0,0.0,0.0,0.0,0.0,0.0,0.0,0.0,0.0,0.0,0.0,0.0,0.0,0.0,0.0,0.0,0.0,0.0,0.0,0.0,0.0,0.0,0.0,0.0,0.0,0.0,0.0,0.0,0.0,0.0,0.0,0.0,0.0,0.0,0.0,0.0,0.0,0.0,0.0,0.0,0.0,0.0,0.0,-0.8198,-0.8279,-0.8286,-0.8195,-0.8195,-0.8015,0.0,0.0,0.0,0.0,0.0,0.0,0.0,0.0,0.0,0.0,0.0,0.0,0.0,0.0,0.0,0.0,0.0,0.0,0.0,0.0,0.0,0.0,0.0,0.0,0.0,0.0,0.0,0.0,0.0,0.0,0.0,0.0,0.0,0.0,0.0,0.0,0.0,0.0,0.0,0.0,0.0,0.0,0.0,0.0,0.0,0.0,0.0,0.0,0.0,0.0,0.0,0.0,0.0,0.0,0.0,0.0,0.0,0.0,0.0,0.0,0.0,0.0,0.0,0.0,0.0,0.0,0.0,0.0,0.0,0.0,0.0,0.0,0.0,0.0,0.0,0.0,0.0,0.0,0.0,0.0,0.0,0.0,0.0,0.0,0.0,0.0,0.0,0.0,0.0,0.0,0.0,0.0,0.0,0.0,0.0,0.0,0.0,0.0,0.0,0.0,0.0,0.0,0.0,0.0,0.0,0.0,0.0,0.0,0.0,-0.848,-0.8505,-0.8414,-0.8292,-0.8227,-0.8065,0.0,0.0,0.0,0.0,0.0,0.0,0.0,0.0,0.0,0.0,0.0,0.0,0.0,0.0,0.0,0.0,0.0,0.0,0.0,0.0,0.0,0.0,0.0,0.0,0.0,0.0,0.0,0.0,0.0,0.0,0.0,0.0,0.0,0.0,0.0,0.0,0.0,0.0,0.0,0.0,0.0,0.0,0.0,0.0,0.0,0.0,0.0,0.0,0.0,0.0,0.0,0.0,0.0,0.0,0.0,0.0,0.0,0.0,0.0,0.0,0.0,0.0,0.0,0.0,0.0,0.0,0.0,0.0,0.0,0.0,0.0,0.0,0.0,0.0,0.0,0.0,0.0,0.0,0.0,0.0,0.0,0.0,0.0,0.0,0.0,0.0,0.0,0.0,0.0,0.0,0.0,0.0,0.0,0.0,0.0,0.0,0.0,0.0,0.0,0.0,0.0,0.0,0.0,0.0,0.0,0.0,0.0,0.0,-0.8426,-0.8345,-0.8354,-0.8349,-0.83,-0.8138,-0.7951,0.0,0.0,0.0,0.0,0.0,0.0,0.0,0.0,0.0,0.0,0.0,0.0,0.0,0.0,0.0,0.0,0.0,0.0,0.0,0.0,0.0,0.0,0.0,0.0,0.0,0.0,0.0,0.0,0.0,0.0,0.0,0.0,0.0,0.0,0.0,0.0,0.0,0.0,0.0,0.0,0.0,0.0,0.0,0.0,0.0,0.0,0.0,0.0,0.0,0.0,0.0,0.0,0.0,0.0,0.0,0.0,0.0,0.0,0.0,0.0,0.0,0.0,0.0,0.0,0.0,0.0,0.0,0.0,0.0,0.0,0.0,0.0,0.0,0.0,0.0,0.0,0.0,0.0,0.0,0.0,0.0,0.0,0.0,0.0,0.0,0.0,0.0,0.0,0.0,0.0,0.0,0.0,0.0,0.0,0.0,0.0,0.0,0.0,0.0,0.0,0.0,0.0,0.0,0.0,0.0,0.0,0.0,0.0,0.0,-0.962,-0.9414,-0.9196,-0.889,-0.8552,-0.8251,0.0,0.0,0.0,0.0,0.0,0.0,0.0,0.0,0.0,0.0,0.0,0.0,0.0,0.0,0.0,0.0,0.0,0.0,0.0,0.0,0.0,0.0,0.0,0.0,0.0,0.0,0.0,0.0,0.0,0.0,0.0,0.0,0.0,0.0,0.0,0.0,0.0,0.0,0.0,0.0,0.0,0.0,0.0,0.0,0.0,0.0,0.0,0.0,0.0,0.0,0.0,0.0,0.0,0.0,0.0,0.0,0.0,0.0,0.0,0.0,0.0,0.0,0.0,0.0,0.0,0.0,0.0,0.0,0.0,0.0,0.0,0.0,0.0,0.0,0.0,0.0,0.0,0.0,0.0,0.0,0.0,0.0,0.0,0.0,0.0,0.0,0.0,0.0,0.0,0.0,0.0,0.0,0.0,0.0,0.0,0.0,0.0,0.0,0.0,0.0,0.0,0.0,0.0,0.0,0.0,0.0,0.0,0.0,0.0,-1.1038,-1.0365,-0.9779,-0.9348,-0.8969,-0.8548,-0.805,0.0,0.0,0.0,0.0,0.0,0.0,0.0,0.0,0.0,0.0,0.0,0.0,0.0,0.0,0.0,0.0,0.0,0.0,0.0,0.0,0.0,0.0,0.0,0.0,0.0,0.0,0.0,0.0,0.0,0.0,0.0,0.0,0.0,0.0,0.0,0.0,0.0,0.0,0.0,0.0,0.0,0.0,0.0,0.0,0.0,0.0,0.0,0.0,0.0,0.0,0.0,0.0,0.0,0.0,0.0,0.0,0.0,0.0,0.0,0.0,0.0,0.0,0.0,0.0,0.0,0.0,0.0,0.0,0.0,0.0,0.0,0.0,0.0,0.0,0.0,0.0,0.0,0.0,0.0,0.0,0.0,0.0,0.0,0.0,0.0,0.0,0.0,0.0,0.0,0.0,0.0,0.0,0.0,0.0,0.0,0.0,0.0,0.0,0.0,0.0,0.0,0.0,0.0,0.0,0.0,0.0,0.0,0.0,-1.2574,-1.1142,-1.0182,-0.9781,-0.9339,-0.8798,0.0,0.0,0.0,0.0,0.0,0.0,0.0,0.0,0.0,0.0,0.0,0.0,0.0,0.0,0.0,0.0,0.0,0.0,0.0,0.0,0.0,0.0,0.0,0.0,0.0,0.0,0.0,0.0,0.0,0.0,0.0,0.0,0.0,0.0,0.0,0.0,0.0,0.0,0.0,0.0,0.0,0.0,0.0,0.0,0.0,0.0,0.0,0.0,0.0,0.0,0.0,0.0,0.0,0.0,0.0,0.0,0.0,0.0,0.0,0.0,0.0,0.0,0.0,0.0,0.0,0.0,0.0,0.0,0.0,0.0,0.0,0.0,0.0,0.0,0.0,0.0,0.0,0.0,0.0,0.0,0.0,0.0,0.0,0.0,0.0,0.0,0.0,0.0,0.0,0.0,0.0,0.0,0.0,0.0,0.0,0.0,0.0,0.0,0.0,0.0,0.0,0.0,0.0,0.0,0.0,0.0,0.0,0.0,0.0,-1.2334,-1.1804,-1.1123,-1.0442,-0.9625,-0.9004,0.0,0.0,0.0,0.0,0.0,0.0,0.0,0.0,0.0,0.0,0.0,0.0,0.0,0.0,0.0,0.0,0.0,0.0,0.0,0.0,0.0,0.0,0.0,0.0,0.0,0.0,0.0,0.0,0.0,0.0,0.0,0.0,0.0,0.0,0.0,0.0,0.0,0.0,0.0,0.0,0.0,0.0,0.0,0.0,0.0,0.0,0.0,0.0,0.0,0.0,0.0,0.0,0.0,0.0,0.0,0.0,0.0,0.0,0.0,0.0,0.0,0.0,0.0,0.0,0.0,0.0,0.0,0.0,0.0,0.0,0.0,0.0,0.0,0.0,0.0,0.0,0.0,0.0,0.0,0.0,0.0,0.0,0.0,0.0,0.0,0.0,0.0,0.0,0.0,0.0,0.0,0.0,0.0,0.0,0.0,0.0,0.0,0.0,0.0,0.0,0.0,0.0,0.0,0.0,0.0,0.0,0.0,0.0,-1.2627,-1.2782,-1.2378,-1.179,-1.1126,-1.0104,-0.9316,0.0,0.0,0.0,0.0,0.0,0.0,0.0,0.0,0.0,0.0,0.0,0.0,0.0,0.0,0.0,0.0,0.0,0.0,0.0,0.0,0.0,0.0,0.0,0.0,0.0,0.0,0.0,0.0,0.0,0.0,0.0,0.0,0.0,0.0,0.0,0.0,0.0,0.0,0.0,0.0,0.0,0.0,0.0,0.0,0.0,0.0,0.0,0.0,0.0,0.0,0.0,0.0,0.0,0.0,0.0,0.0,0.0,0.0,0.0,0.0,0.0,0.0,0.0,0.0,0.0,0.0,0.0,0.0,0.0,0.0,0.0,0.0,0.0,0.0,0.0,0.0,0.0,0.0,0.0,0.0,0.0,0.0,0.0,0.0,0.0,0.0,0.0,0.0,0.0,0.0,0.0,0.0,0.0,0.0,0.0,0.0,0.0,0.0,0.0,0.0,0.0,0.0,0.0,0.0,0.0,0.0,0.0,0.0,-1.3008,-1.3304,-1.28,-1.22,-1.166,-1.0636,-0.961,0.0,0.0,0.0,0.0,0.0,0.0,0.0,0.0,0.0,0.0,0.0,0.0,0.0,0.0,0.0,0.0,0.0,0.0,0.0,0.0,0.0,0.0,0.0,0.0,0.0,0.0,0.0,0.0,0.0,0.0,0.0,0.0,0.0,0.0,0.0,0.0,0.0,0.0,0.0,0.0,0.0,0.0,0.0,0.0,0.0,0.0,0.0,0.0,0.0,0.0,0.0,0.0,0.0,0.0,0.0,0.0,0.0,0.0,0.0,0.0,0.0,0.0,0.0,0.0,0.0,0.0,0.0,0.0,0.0,0.0,0.0,0.0,0.0,0.0,0.0,0.0,0.0,0.0,0.0,0.0,0.0,0.0,0.0,0.0,0.0,0.0,0.0,0.0,0.0,0.0,0.0,0.0,0.0,0.0,0.0,0.0,0.0,0.0,0.0,0.0,0.0,0.0,0.0,0.0,0.0,0.0,0.0,0.0,-1.2717,-1.2753,-1.2466,-1.225,-1.2185,-1.0962,-0.9924,0.0,0.0,0.0,0.0,0.0,0.0,0.0,0.0,0.0,0.0,0.0,0.0,0.0,0.0,0.0,0.0,0.0,0.0,0.0,0.0,0.0,0.0,0.0,0.0,0.0,0.0,0.0,0.0,0.0,0.0,0.0,0.0,0.0,0.0,0.0,0.0,0.0,0.0,0.0,0.0,0.0,0.0,0.0,0.0,0.0,0.0,0.0,0.0,0.0,0.0,0.0,0.0,0.0,0.0,0.0,0.0,0.0,0.0,0.0,0.0,0.0,0.0,0.0,0.0,0.0,0.0,0.0,0.0,0.0,0.0,0.0,0.0,0.0,0.0,0.0,0.0,0.0,0.0,0.0,0.0,0.0,0.0,0.0,0.0,0.0,0.0,0.0,0.0,0.0,0.0,0.0,0.0,0.0,0.0,0.0,0.0,0.0,0.0,0.0,0.0,0.0,0.0,0.0,0.0,0.0,0.0,0.0,0.0,-1.2878,-1.2814,-1.2692,-1.2582,-1.2297,-1.1355,-1.0381,0.0,0.0,0.0,0.0,0.0,0.0,0.0,0.0,0.0,0.0,0.0,0.0,0.0,0.0,0.0,0.0,0.0,0.0,0.0,0.0,0.0,0.0,0.0,0.0,0.0,0.0,0.0,0.0,0.0,0.0,0.0,0.0,0.0,0.0,0.0,0.0,0.0,0.0,0.0,0.0,0.0,0.0,0.0,0.0,0.0,0.0,0.0,0.0,0.0,0.0,0.0,0.0,0.0,0.0,0.0,0.0,0.0,0.0,0.0,0.0,0.0,0.0,0.0,0.0,0.0,0.0,0.0,0.0,0.0,0.0,0.0,0.0,0.0,0.0,0.0,0.0,0.0,0.0,0.0,0.0,0.0,0.0,0.0,0.0,0.0,0.0,0.0,0.0,0.0,0.0,0.0,0.0,0.0,0.0,0.0,0.0,0.0,0.0,0.0,0.0,0.0,0.0,0.0,0.0,0.0,0.0,0.0,-1.2906,-1.3033,-1.2873,-1.2954,-1.2826,-1.2344,-1.1672,-1.0797,-0.983,0.0,0.0,0.0,0.0,0.0,0.0,0.0,0.0,0.0,0.0,0.0,0.0,0.0,0.0,0.0,0.0,0.0,0.0,0.0,0.0,0.0,0.0,0.0,0.0,0.0,0.0,0.0,0.0,0.0,0.0,0.0,0.0,0.0,0.0,0.0,0.0,0.0,0.0,-0.3277,-0.1793,0.0,0.0,0.0,0.0,0.0,0.0,0.0,0.0,0.0,0.0,0.0,0.0,0.0,0.0,0.0,0.0,0.0,0.0,0.0,0.0,0.0,0.0,0.0,0.0,0.0,0.0,0.0,0.0,0.0,0.0,0.0,0.0,0.0,0.0,0.0,0.0,0.0,0.0,0.0,0.0,0.0,0.0,0.0,0.0,0.0,0.0,0.0,0.0,0.0,0.0,0.0,0.0,0.0,0.0,0.0,0.0,0.0,0.0,0.0,0.0,0.0,0.0,0.0,0.0,0.0,-1.1869,-1.2374,-1.2481,-1.2331,-1.2541,-1.2554,-1.2448,-1.1732,-1.0971,-1.0278,0.0,0.0,0.0,0.0,0.0,0.0,0.0,0.0,0.0,0.0,0.0,0.0,0.0,0.0,0.0,0.0,0.0,0.0,0.0,0.0,0.0,0.0,0.0,0.0,0.0,0.0,0.0,0.0,0.0,0.0,0.0,0.0,0.0,0.0,0.0,0.0,0.0,0.0,0.0,-0.1283,-0.0814,0.0,0.0,0.0,0.0,0.0,0.0,0.0,0.0,0.0,0.0,0.0,0.0,0.0,0.0,0.0,0.0,0.0,0.0,0.0,0.0,0.0,0.0,0.0,0.0,0.0,0.0,0.0,0.0,0.0,0.0,0.0,0.0,0.0,0.0,0.0,0.0,0.0,0.0,0.0,0.0,0.0,0.0,0.0,0.0,0.0,0.0,0.0,0.0,0.0,0.0,0.0,0.0,0.0,0.0,0.0,0.0,0.0,0.0,0.0,0.0,0.0,0.0,0.0,0.0,-1.2328,-1.29,-1.2906,-1.2261,-1.2497,-1.249,-1.224,-1.1504,-1.0813,0.0,0.0,0.0,0.0,0.0,0.0,0.0,0.0,0.0,0.0,0.0,0.0,0.0,0.0,0.0,0.0,0.0,0.0,0.0,0.0,0.0,0.0,0.0,0.0,0.0,0.0,0.0,0.0,0.0,0.0,0.0,0.0,0.0,0.0,0.0,0.0,0.0,0.0,0.0,0.0,-0.1141,-0.0798,-0.0317,0.0,0.0,0.0,0.0,0.0,0.0,0.0,0.0,0.0,0.0,0.0,0.0,0.0,0.0,0.0,0.0,0.0,0.0,0.0,0.0,0.0,0.0,0.0,0.0,0.0,0.0,0.0,0.0,0.0,0.0,0.0,0.0,0.0,0.0,0.0,0.0,0.0,0.0,0.0,0.0,0.0,0.0,0.0,0.0,0.0,0.0,0.0,0.0,0.0,0.0,0.0,0.0,0.0,0.0,0.0,0.0,0.0,0.0,0.0,0.0,0.0,0.0,0.0,-1.2942,-1.3418,-1.3181,-1.2348,-1.2492,-1.2411,-1.1998,-1.1344,-1.0671,0.0,0.0,0.0,0.0,0.0,0.0,0.0,0.0,0.0,0.0,0.0,0.0,0.0,0.0,0.0,0.0,0.0,0.0,0.0,0.0,0.0,0.0,0.0,0.0,0.0,0.0,0.0,0.0,0.0,0.0,0.0,0.0,0.0,0.0,0.0,0.0,0.0,0.0,0.0,0.0,0.0,-0.083,-0.0611,-0.0385,0.0,0.0,0.0,0.0,0.0,0.0,0.0,0.0,0.0,0.0,0.0,0.0,0.0,0.0,0.0,0.0,0.0,0.0,0.0,0.0,0.0,0.0,0.0,0.0,0.0,0.0,0.0,0.0,0.0,0.0,0.0,0.0,0.0,0.0,0.0,0.0,0.0,0.0,0.0,0.0,0.0,0.0,0.0,0.0,0.0,0.0,0.0,0.0,0.0,0.0,0.0,0.0,0.0,0.0,0.0,0.0,0.0,0.0,0.0,0.0,0.0,0.0,-1.3323,-1.32,-1.2909,-1.246,-1.2244,-1.2094,-1.1895,-1.1319,-1.077,0.0,0.0,0.0,0.0,0.0,0.0,0.0,0.0,0.0,0.0,0.0,0.0,0.0,0.0,0.0,0.0,0.0,0.0,0.0,0.0,0.0,0.0,0.0,0.0,0.0,0.0,0.0,0.0,0.0,0.0,0.0,0.0,0.0,0.0,0.0,0.0,0.0,0.0,0.0,0.0,0.0,-0.115,-0.0992,-0.0875,-0.0802,0.0,0.0,-0.0338,-0.0055,0.0,0.0,0.0,0.0,0.0,0.0,0.0,0.0,0.0,0.0,0.0,0.0,0.0,0.0,0.0,0.0,0.0,0.0,0.0,0.0,0.0,0.0,0.0,0.0,0.0,0.0,0.0,0.0,0.0,0.0,0.0,0.0,0.0,0.0,0.0,0.0,0.0,0.0,0.0,0.0,0.0,0.0,0.0,0.0,0.0,0.0,0.0,0.0,0.0,0.0,0.0,0.0,0.0,0.0,0.0,0.0,-1.4089,-1.4043,-1.3957,-1.3481,-1.2617,-1.2272,-1.1973,-1.1738,-1.1227,-1.0654,0.0,0.0,0.0,0.0,0.0,0.0,0.0,0.0,0.0,0.0,0.0,0.0,0.0,0.0,0.0,0.0,0.0,0.0,0.0,0.0,0.0,0.0,0.0,0.0,0.0,0.0,0.0,0.0,0.0,0.0,0.0,0.0,0.0,0.0,0.0,0.0,0.0,0.0,0.0,0.0,0.0,0.0,-0.2227,-0.2087,0.0,0.0,0.0,-0.0801,-0.0658,0.0,0.0,0.0,0.0,0.0,0.0,0.0,0.0,0.0,0.0,0.0,0.0,0.0,0.0,0.0,0.0,0.0,0.0,0.0,0.0,0.0,0.0,0.0,0.0,0.0,0.0,0.0,0.0,0.0,0.0,0.0,0.0,0.0,0.0,0.0,0.0,0.0,0.0,0.0,0.0,0.0,0.0,0.0,0.0,0.0,0.0,0.0,0.0,0.0,0.0,0.0,0.0,0.0,0.0,0.0,0.0,0.0,-1.512,-1.4964,-1.4309,-1.3139,-1.262,-1.2182,-1.1735,-1.1294,0.0,0.0,0.0,0.0,0.0,0.0,0.0,0.0,0.0,0.0,0.0,0.0,0.0,0.0,0.0,0.0,0.0,0.0,0.0,0.0,0.0,0.0,0.0,0.0,0.0,0.0,0.0,-0.5847,0.0,0.0,0.0,0.0,0.0,0.0,0.0,0.0,0.0,0.0,0.0,0.0,0.0,0.0,-0.3706,-0.3678,-0.3537,-0.3191,0.0,0.0,-0.1519,-0.1289,-0.1078,-0.0985,0.0,0.0,0.0,0.0,0.0,0.0,0.0,0.0,0.0,0.0,0.0,0.0,0.0,0.0,0.0,0.0,0.0,0.0,0.0,0.0,0.0,0.0,0.0,0.0,0.0,0.0,0.0,0.0,0.0,0.0,0.0,0.0,0.0,0.0,0.0,0.0,0.0,0.0,0.0,0.0,0.0,0.0,0.0,0.0,0.0,0.0,0.0,0.0,0.0,0.0,0.0,0.0,0.0,0.0,-1.5544,-1.6618,-1.6021,-1.5278,-1.4306,-1.3553,-1.2796,-1.2115,-1.1599,-1.1138,0.0,0.0,0.0,0.0,0.0,0.0,0.0,0.0,0.0,0.0,0.0,0.0,0.0,0.0,0.0,0.0,0.0,0.0,0.0,0.0,0.0,0.0,0.0,0.0,0.0,0.0,0.0,0.0,0.0,0.0,0.0,0.0,0.0,0.0,0.0,0.0,0.0,0.0,0.0,0.0,0.0,-0.5129,-0.5346,-0.5098,-0.4552,0.0,-0.2986,-0.2452,-0.1747,-0.1921,-0.2069,-0.21,0.0,0.0,0.0,0.0,0.0,0.0,0.0,0.0,0.0,0.0,0.0,0.0,0.0,0.0,0.0,0.0,0.0,0.0,0.0,0.0,0.0,0.0,0.0,0.0,0.0,0.0,0.0,0.0,0.0,0.0,0.0,0.0,0.0,0.0,0.0,0.0,0.0,0.0,0.0,0.0,0.0,0.0,0.0,0.0,0.0,0.0,0.0,0.0,0.0,0.0,0.0,0.0,0.0,-1.6032,-1.7008,-1.6608,-1.5846,-1.4727,-1.3789,-1.3007,-1.2338,-1.1986,-1.1504,0.0,0.0,0.0,0.0,0.0,0.0,0.0,0.0,0.0,0.0,0.0,0.0,0.0,0.0,0.0,0.0,0.0,0.0,0.0,0.0,0.0,0.0,0.0,0.0,0.0,0.0,0.0,0.0,-0.6749,-0.6788,-0.679,0.0,0.0,0.0,0.0,0.0,0.0,0.0,0.0,0.0,0.0,-0.7336,-0.7405,-0.7248,0.0,0.0,-0.4929,-0.4292,-0.3923,-0.3725,-0.3777,-0.4201,-0.3943,0.0,0.0,0.0,0.0,0.0,0.0,0.0,0.0,0.0,0.0,0.0,0.0,0.0,0.0,0.0,0.0,0.0,0.0,0.0,0.0,0.0,0.0,0.0,0.0,0.0,0.0,0.0,-1.1838,0.0,0.0,0.0,0.0,0.0,0.0,0.0,0.0,0.0,0.0,0.0,0.0,0.0,0.0,0.0,0.0,0.0,0.0,0.0,0.0,0.0,0.0,0.0,0.0,-1.6527,-1.759,-1.7401,-1.6685,-1.5577,-1.4563,-1.3627,-1.2871,-1.2469,-1.1952,0.0,0.0,0.0,0.0,0.0,0.0,0.0,0.0,0.0,0.0,0.0,0.0,0.0,0.0,0.0,0.0,0.0,0.0,0.0,0.0,0.0,0.0,0.0,0.0,0.0,0.0,0.0,0.0,-0.7061,-0.7054,-0.6851,0.0,0.0,0.0,0.0,0.0,0.0,0.0,0.0,0.0,0.0,-0.9228,-0.9214,-0.9165,-0.8726,-0.7659,-0.6744,-0.6072,-0.5653,-0.5587,-0.5624,-0.59,0.0,0.0,0.0,0.0,0.0,0.0,0.0,0.0,0.0,0.0,0.0,0.0,0.0,0.0,0.0,0.0,0.0,0.0,0.0,0.0,0.0,0.0,0.0,0.0,0.0,0.0,0.0,-1.2687,0.0,0.0,-1.23,0.0,0.0,0.0,0.0,0.0,0.0,0.0,0.0,0.0,0.0,0.0,0.0,0.0,0.0,0.0,0.0,0.0,0.0,0.0,0.0,0.0,0.0,-1.7104,-1.8611,-1.8537,-1.8055,-1.7065,-1.6016,-1.4802,-1.3589,-1.303,-1.2501,-1.2026,0.0,0.0,0.0,0.0,0.0,0.0,0.0,0.0,0.0,0.0,0.0,0.0,0.0,0.0,0.0,0.0,0.0,0.0,0.0,0.0,0.0,0.0,0.0,0.0,0.0,0.0,-0.7529,-0.7577,-0.7455,0.0,0.0,0.0,0.0,0.0,0.0,0.0,0.0,0.0,-0.9864,-1.0411,-1.0712,-1.0651,-1.0583,-1.0019,-0.8685,-0.8225,-0.7593,-0.6755,-0.7252,-0.7559,0.0,0.0,0.0,0.0,0.0,0.0,0.0,0.0,0.0,0.0,0.0,0.0,0.0,0.0,0.0,0.0,0.0,0.0,0.0,0.0,0.0,0.0,0.0,0.0,0.0,0.0,0.0,-1.4558,-1.4497,0.0,0.0,0.0,0.0,0.0,0.0,0.0,0.0,0.0,0.0,0.0,-1.9591,-1.9422,0.0,0.0,0.0,0.0,0.0,0.0,0.0,0.0,0.0,0.0,0.0,0.0,-1.7619,-1.872,-1.899,-1.8454,-1.721,-1.6273,-1.5188,-1.4059,-1.3493,-1.2779,-1.1932,0.0,0.0,0.0,0.0,0.0,0.0,0.0,0.0,0.0,0.0,0.0,0.0,0.0,0.0,0.0,0.0,0.0,0.0,0.0,0.0,0.0,0.0,0.0,0.0,0.0,-0.7543,0.0,0.0,0.0,0.0,0.0,0.0,0.0,0.0,0.0,0.0,-0.9505,-1.027,-1.0938,-1.155,-1.193,-1.2036,-1.1901,-1.1384,0.0,0.0,0.0,0.0,0.0,0.0,0.0,0.0,0.0,0.0,0.0,0.0,0.0,-0.3385,-0.2155,-0.1838,-0.1044,-0.0483,-0.0422,0.0,0.0,0.0,0.0,0.0,0.0,0.0,0.0,0.0,0.0,0.0,0.0,0.0,0.0,-1.6306,-1.626,-1.5584,0.0,0.0,0.0,0.0,0.0,0.0,0.0,0.0,-2.0436,-2.1098,-2.1354,-2.1281,-2.1003,-2.0569,-2.0122,-1.8831,0.0,0.0,0.0,0.0,0.0,0.0,0.0,0.0,-1.8553,-1.9506,-1.9758,-1.9269,-1.7993,-1.6795,-1.5724,-1.4633,-1.3839,-1.303,-1.225,-1.1653,-1.1036,0.0,0.0,0.0,0.0,0.0,0.0,0.0,0.0,0.0,0.0,0.0,0.0,0.0,0.0,0.0,0.0,0.0,0.0,0.0,0.0,0.0,0.0,0.0,-0.7963,0.0,0.0,0.0,0.0,0.0,0.0,0.0,0.0,0.0,-0.9713,-1.0432,-1.1199,-1.1843,-1.2393,-1.2773,-1.2868,0.0,0.0,0.0,0.0,0.0,0.0,0.0,-1.139,-1.1426,-1.13,-1.0907,-1.019,-0.8375,-0.69,-0.648,0.0,0.0,-0.292,-0.1724,-0.0883,-0.068,-0.027,0.0,0.0,0.0,0.0,0.0,0.0,0.0,0.0,-1.6972,0.0,0.0,0.0,-1.7699,-1.7848,0.0,-1.743,0.0,0.0,0.0,0.0,-1.7648,-1.8951,0.0,0.0,-2.2198,-2.2782,-2.2806,-2.3036,-2.2757,-2.1945,-2.1667,-2.1245,-2.0557,-1.8118,-1.6694,0.0,0.0,0.0,0.0,0.0,-1.9866,-2.0846,-2.0889,-2.0339,-1.9297,-1.7699,-1.6332,-1.5227,-1.4077,-1.3363,-1.305,-1.2469,-1.1877,-1.1423,-1.0704,0.0,0.0,0.0,0.0,0.0,0.0,0.0,0.0,0.0,0.0,0.0,0.0,0.0,0.0,0.0,0.0,0.0,0.0,0.0,0.0,-0.8357,0.0,0.0,0.0,0.0,0.0,0.0,0.0,0.0,0.0,-1.0941,-1.0833,-1.1416,-1.2026,-1.2467,0.0,0.0,0.0,0.0,-1.3251,-1.2912,-1.2836,-1.2701,-1.215,-1.2491,-1.2625,-1.2168,0.0,0.0,-1.102,-0.9756,-0.8941,-0.8951,-0.8109,-0.6666,-0.3927,-0.2481,-0.1416,-0.0894,-0.0521,0.0,0.0,0.0,0.0,-2.1727,0.0,0.0,0.0,0.0,-1.8823,-1.8789,-1.8653,-1.9334,-1.9663,-1.9637,-1.946,0.0,0.0,0.0,0.0,0.0,0.0,-2.1933,-2.279,-2.3466,-2.3876,-2.4057,-2.413,-2.3864,-2.3285,-2.32,-2.279,-2.214,-2.1136,-1.9857,-1.83,0.0,0.0,0.0,0.0,-2.0854,-2.1223,-2.1352,-2.0697,-1.9204,-1.8131,-1.6855,-1.5478,-1.4671,-1.4084,-1.3781,-1.3148,-1.2447,-1.1891,-1.1362,0.0,0.0,0.0,0.0,0.0,0.0,0.0,0.0,0.0,0.0,0.0,0.0,0.0,0.0,0.0,0.0,0.0,0.0,0.0,-0.9252,-0.949,-0.9501,0.0,0.0,0.0,0.0,0.0,0.0,0.0,0.0,0.0,-1.242,-1.2467,-1.2637,0.0,0.0,-1.3539,-1.3634,-1.3783,-1.3838,-1.3559,-1.364,0.0,-1.333,-1.3521,-1.3727,-1.3621,-1.3393,-1.2811,-1.1649,-1.0776,-1.0097,-0.9705,-0.9089,-0.828,-0.7129,-0.5145,-0.3523,-0.2703,-0.1982,-0.1352,-0.1043,-0.0726,-0.0486,-2.4069,-2.3116,-2.1609,-2.0735,-2.0393,-2.0484,-2.0374,-2.0087,-2.0923,-2.1284,-2.139,-2.1414,-2.1019,-2.0333,-2.0169,0.0,0.0,0.0,-2.3321,-2.4013,-2.4516,-2.4854,-2.5096,-2.5108,-2.483,-2.4253,-2.4241,-2.4009,-2.343,-2.3176,-2.2404,-2.1124,0.0,-2.0408,-2.0991,-2.1664,-2.214,-2.2588,-2.2281,-2.1615,-2.0453,-1.9066,-1.7712,-1.6404,-1.5957,-1.5493,-1.4749,-1.4081,-1.3387,-1.2741,-1.2115,-1.1477,0.0,0.0,0.0,0.0,0.0,0.0,0.0,0.0,0.0,0.0,0.0,-0.7957,-0.8153,0.0,0.0,0.0,-0.8859,-0.9496,-1.012,-1.0209,0.0,0.0,0.0,0.0,0.0,0.0,0.0,-1.1735,-1.2291,-1.282,-1.3288,-1.3302,-1.3342,-1.3553,-1.3709,-1.3858,-1.4,0.0,-1.4238,-1.4197,-1.4278,-1.4306,-1.4217,-1.4272,-1.4367,-1.4462,-1.3797,-1.3151,-1.2437,-1.173,-1.1109,-1.0639,-1.0264,-0.9913,-0.9344,-0.787,-0.6128,-0.457,-0.3469,-0.2643,-0.2247,-0.1923,-0.1681,-2.5856,-2.5711,-2.3606,-2.249,-2.1996,-2.1828,-2.1769,-2.1723,-2.2429,-2.2878,-2.2964,-2.3188,-2.2859,-2.217,-2.217,0.0,-2.2604,-2.354,-2.4338,-2.5059,-2.5324,-2.5663,-2.5892,-2.5892,-2.5627,-2.5144,-2.512,-2.4963,-2.4685,-2.4444,-2.4323,-2.4287,-2.2621,-2.2176,-2.283,-2.3133,-2.3668,-2.4374,-2.3597,-2.288,-2.2406,-2.0462,-1.8871,-1.7975,-1.7785,-1.7187,-1.6013,-1.5324,-1.4594,-1.3792,-1.3105,-1.2436,-1.1773,0.0,0.0,0.0,0.0,0.0,0.0,0.0,0.0,0.0,0.0,0.0,0.0,0.0,0.0,-0.8993,-0.9727,0.0,-1.0785,-1.0711,0.0,0.0,0.0,-1.1111,-1.1253,-1.1862,-1.2311,-1.2739,0.0,0.0,-1.3627,-1.3912,-1.4041,-1.3912,-1.4021,-1.4163,-1.4312,-1.4455,-1.4604,-1.4733,-1.478,-1.4794,-1.4808,-1.4821,-1.4736,-1.4651,-1.3982,-1.3364,-1.3174,-1.2495,-1.1803,-1.1619,-1.1563,-1.1349,-1.0791,-1.0063,-0.9089,-0.6508,-0.5176,-0.4214,-0.3879,-0.3652,-0.342,-2.6122,-2.6085,-2.5565,-2.4635,-2.3538,-2.3511,-2.3281,-2.3123,-2.394,-2.4266,-2.4375,-2.4735,-2.4413,-2.3603,-2.3603,-2.3741,-2.4079,-2.4876,-2.5566,-2.5953,-2.623,-2.6387,-2.6435,-2.6447,-2.6266,-2.594,-2.5747,-2.5506,-2.5252,-2.518,-2.5156,-2.5132,-2.4697,-2.4287,-2.3888,-2.4335,-2.4568,-2.4655,-2.4436,-2.371,-2.2417,-2.1565,-2.09,-2.0423,-1.9656,-1.8934,-1.8246,-1.707,-1.6047,-1.5108,-1.4731,-1.3998,-1.2674,-1.2313,0.0,0.0,0.0,0.0,0.0,0.0,0.0,0.0,0.0,-0.9286,-0.964,0.0,-1.008,0.0,-1.0636,-1.126,-1.1701,-1.1809,0.0,0.0,-1.1857,-1.2026,-1.2169,-1.261,-1.2996,-1.3214,-1.3498,-1.3756,-1.3939,-1.4129,-1.4272,-1.434,-1.4387,-1.4462,-1.4618,-1.4767,-1.4909,-1.5052,-1.516,-1.5289,-1.5289,-1.5425,-1.5214,-1.4852,-1.4266,-1.3794,-1.3405,-1.2678,-1.208,-1.2031,-1.1792,-1.1517,-1.1373,-1.0848,-1.0277,-0.9444,-0.8066,-0.6716,-0.6286,-0.5696,-0.51,-2.6689,-2.658,-2.658,-2.6056,-2.5331,-2.4923,-2.4482,-2.4221,-2.483,-2.509,-2.5177,-2.535,-2.5177,-2.4743,-2.4743,-2.4812,-2.5027,-2.5651,-2.6206,-2.658,-2.6737,-2.6942,-2.716,-2.716,-2.7027,-2.6749,-2.6604,-2.6399,-2.6158,-2.5938,-2.5877,-2.5877,-2.5844,-2.5554,-2.5144,-2.5301,-2.5466,-2.5695,-2.5535,-2.482,-2.3403,-2.3108,-2.2727,-2.2244,-2.1677,-2.0974,-2.0275,-1.91,-1.801,-1.6833,-1.6303,-1.5343,-1.4031,-1.3543,-1.2809,0.0,0.0,0.0,0.0,0.0,0.0,0.0,0.0,0.0,0.0,0.0,-1.107,-1.1253,-1.1647,-1.2067,-1.2515,-1.263,-1.2678,-1.2657,-1.2793,-1.2915,-1.2996,-1.3281,-1.3526,-1.3682,-1.3905,-1.4102,-1.4251,-1.4462,-1.4624,-1.4706,-1.4767,-1.4814,-1.4848,-1.497,-1.512,-1.5262,-1.5357,-1.5466,-1.5615,-1.5442,-1.5151,-1.4861,-1.4176,-1.3691,-1.3297,-1.2808,-1.2303,-1.2183,-1.2004,-1.1835,-1.1737,-1.1437,-1.1157,-1.0968,-1.0303,-0.922,-0.8189,-0.7577,-0.7167,-2.7317,-2.7087,-2.7075,-2.7075,-2.6948,-2.6122,-2.5553,-2.5164,-2.5518,-2.5695,-2.5695,-2.5607,-2.5607,-2.5607,-2.5607,-2.5607,-2.5607,-2.6061,-2.6592,-2.7075,-2.7111,-2.7389,-2.786,-2.786,-2.7739,-2.7534,-2.7486,-2.7353,-2.7123,-2.6816,-2.6773,-2.6725,-2.6496,-2.6363,-2.6315,-2.6122,-2.6387,-2.7111,-2.6644,-2.5916,-2.4863,-2.4783,-2.436,-2.369,-2.3679,-2.3148,-2.2076,-2.1265,-2.0213,-1.8941,-1.8023,-1.7007,-1.5682,-1.5129,-1.4183,0.0,-1.2287,0.0,0.0,0.0,0.0,0.0,0.0,0.0,0.0,-1.1694,-1.2033,-1.2596,-1.263,-1.2793,-1.322,-1.3261,-1.3308,-1.3444,-1.3573,-1.3661,-1.3688,-1.381,-1.396,-1.4109,-1.4265,-1.4401,-1.4523,-1.4794,-1.497,-1.4964,-1.5065,-1.5099,-1.5031,-1.5099,-1.5228,-1.5391,-1.5445,-1.5547,-1.5559,-1.5301,-1.4932,-1.4724,-1.425,-1.3544,-1.3366,-1.3051,-1.2681,-1.2583,-1.2483,-1.2372,-1.208,-1.2024,-1.1991,-1.1975,-1.1872,-1.1384,-0.9926,-0.9365,-0.9132,-2.7582,-2.7353,-2.7353,-2.7353,-2.7341,-2.7141,-2.6893,-2.6611,-2.6689,-2.6689,-2.6689,-2.6328,-2.6147,-2.6147,-2.6147,-2.6147,-2.6147,-2.6599,-2.7051,-2.7353,-2.757,-2.7824,-2.8125,-2.8125,-2.8101,-2.8041,-2.7848,-2.7715,-2.7667,-2.7618,-2.7486,-2.728,-2.722,-2.7087,-2.6894,0.0,0.0,0.0,-2.7357,-2.6989,-2.6527,-2.6109,-2.5663,-2.5327,-2.4968,0.0,-2.3934,-2.3323,-2.2482,-2.1433,-2.083,0.0,0.0,0.0,0.0,0.0,0.0,0.0,0.0,0.0,0.0,0.0,-1.2664,-1.2562,-1.2325,-1.2542,-1.2908,-1.3363,-1.3308,-1.3363,-1.3682,-1.3715,-1.3729,-1.3749,-1.3783,-1.3844,-1.3973,-1.4122,-1.4272,-1.4414,-1.4563,-1.4665,-1.4699,-1.4855,-1.497,-1.5077,-1.5092,-1.5167,-1.5147,-1.516,-1.5242,-1.5391,-1.5588,-1.5764,-1.5805,-1.5808,-1.5486,-1.48,-1.48,-1.4508,-1.3807,-1.3824,-1.3962,-1.3866,-1.3621,-1.3405,-1.3333,-1.3154,-1.293,-1.3004,-1.3004,-1.27,-1.1518,-1.0962,-1.068,-2.786,-2.7618,-2.7606,-2.7618,0.0,-2.7618,-2.7546,-2.7413,-2.7413,-2.7341,-2.722,-2.6946,-2.6783,-2.6664,-2.6664,-2.6664,-2.6664,-2.6977,-2.7365,-2.7618,-2.7884,-2.8149,-2.8403,-2.8415,-2.8403,-2.8403,-2.827,-2.821,-2.821,-2.8065,-2.7872,-2.7618,-2.7486,-2.7292,-2.7051,-2.7413,-2.7679,-2.7811,-2.7811,-2.7558,-2.7039,-2.6761,-2.6423,-2.6049,-2.5751,0.0,0.0,0.0,0.0,0.0,0.0,0.0,0.0,-1.938,-1.8171,-1.617,-1.5338,-1.4622,-1.398,-1.397,-1.4002,-1.3909,-1.4133,-1.3866,-1.3098,-1.3268,-1.3519,-1.3817,-1.3844,-1.3933,-1.415,-1.4238,-1.4285,-1.4285,-1.4285,-1.4319,-1.4394,-1.473,-1.4896,-1.4979,-1.5399,-1.5583,-1.559,-1.5725,-1.581,-1.5825,-1.5882,-1.5838,-1.5556,-1.5368,-1.5242,-1.5391,-1.5662,-1.5852,-1.5872,-1.585,-1.569,-1.5189,-1.5038,-1.488,-1.4381,-1.4427,-1.4543,-1.4409,-1.4207,-1.4024,-1.381,-1.3664,-1.3554,-1.3492,-1.3474,-1.3381,-1.2824,-1.2449,-1.2158,-2.8005,-2.7811,-2.7811,-2.7836,-2.7884,-2.7884,-2.7908,-2.7956,-2.786,0.0,0.0,-2.7425,-2.7268,-2.7039,-2.7027,-2.7051,-2.7111,-2.7317,-2.7582,-2.7884,-2.8101,-2.8355,-2.862,-2.862,-2.862,-2.862,-2.862,-2.862,-2.862,-2.8391,-2.8113,-2.7811,-2.7594,-2.7353,-2.7148,-2.757,-2.7836,-2.7896,-2.8101,-2.7896,-2.7256,-2.7148,-2.6882,-2.6435,-2.6435,-2.6435,-2.6435,-2.6068,-2.5619,-2.5067,-2.4657,-2.3743,-2.2322,-2.1486,-2.0317,-1.8583,-1.7716,-1.6927,-1.6066,-1.6025,-1.5847,-1.5315,-1.5565,-1.5233,-1.4029,-1.4105,-1.4308,-1.444,-1.4571,-1.4688,-1.4813,-1.493,-1.4922,-1.4922,-1.4922,-1.5006,-1.5097,-1.549,-1.5862,-1.6059,-1.6559,-1.6949,-1.7042,-1.7142,-1.7234,-1.7234,-1.7141,-1.6883,-1.6242,-1.5671,-1.5235,-1.5398,-1.5628,-1.5818,-1.5886,-1.5804,-1.5581,-1.5486,-1.5297,-1.5193,-1.5097,-1.5097,-1.5093,-1.4957,-1.48,-1.4613,-1.4314,-1.4272,-1.4133,-1.4027,-1.3977,-1.3964,-1.3946,-1.3784,-1.3536,-2.7848,-2.7811,-2.7811,-2.7944,-2.8149,-2.8149,-2.8282,-2.8463,-2.8017,-2.7667,-2.7425,-2.7425,-2.728,-2.7027,-2.7027,-2.7148,-2.7365,-2.7401,-2.7679,-2.8137,-2.8186,-2.8355,-2.862,-2.862,-2.862,-2.862,-2.862,-2.862,-2.862,-2.8584,-2.8306,-2.786,-2.7775,-2.7618,-2.7413,-2.7667,-2.792,-2.8137,-2.8186,-2.8149,-2.8029,-2.7606,-2.7329,-2.7256,-2.7256,-2.7256,-2.7256,-2.7165,-2.7049,-2.7013,-2.6707,-2.6112,-2.5071,-2.3925,-2.2719,-2.127,-2.0092,-1.9178,-1.8731,-1.8318,-1.7886,-1.7354,-1.7304,-1.6739,-1.5402,-1.559,-1.5882,-1.5904,-1.5919,-1.5948,-1.5978,-1.6007,-1.6029,-1.6022,-1.6015,-1.6189,-1.6674,-1.6979,-1.7432,-1.8159,-1.8476,-1.8786,-1.9166,-1.9184,-1.9209,-1.9201,-1.8964,-1.8326,-1.7585,-1.6111,-1.535,-1.5391,-1.5554,-1.571,-1.595,-1.611,-1.5984,-1.56,-1.592,-1.6012,-1.5609,-1.5917,-1.6048,-1.5997,-1.5871,-1.5711,-1.5505,-1.5381,-1.5165,-1.5099,-1.4917,-1.4932,-1.4932,-1.4872,-1.4606,-2.8029,-2.8041,-2.8186,-2.8318,-2.8427,-2.8439,-2.85,-2.8596,-2.8367,-2.8017,-2.7655,-2.763,-2.7413,-2.7051,-2.7172,-2.7304,-2.7437,-2.7715,-2.7968,-2.8198,-2.8367,-2.85,-2.862,-2.862,-2.862,-2.862,-2.862,-2.862,-2.862,-2.862,-2.8343,-2.7824,-2.7534,-2.7389,-2.7437,-2.7679,-2.7944,-2.8198,-2.8487,-2.85,-2.821,-2.8258,-2.8149,-2.786,-2.7993,-2.8077,-2.8065,-2.8077,-2.8005,-2.7848,-2.7727,-2.7223,-2.6434,-2.5661,-2.4671,-2.3458,-2.2625,-2.1961,-2.1293,-2.0557,-2.0004,-1.9736,-1.9918,-1.9701,-1.904,-1.776,-1.7006,-1.7014,-1.7357,-1.7596,-1.7596,-1.7859,-1.8008,-1.8008,-1.8182,-1.834,-1.8635,-1.9337,-1.9917,-2.0394,-2.103,-2.1461,-2.1649,-2.1649,-2.1649,-2.1555,-2.1085,-2.0377,-1.9984,-1.8889,-1.763,-1.6589,-1.6243,-1.6161,-1.6251,-1.6309,-1.6185,-1.5903,-1.6225,-1.6408,-1.6217,-1.6421,-1.6463,-1.6341,-1.6246,-1.611,-1.5906,-1.5757,-1.5635,-1.554,-1.5493,-1.5438,-1.5425,-1.5371,-1.5066,-2.8101,-2.8222,-2.8439,-2.8572,-2.862,-2.862,-2.862,-2.862,-2.862,-2.8343,-2.7932,-2.7896,-2.7642,-2.7256,-2.7425,-2.7546,-2.7642,-2.8017,-2.8234,-2.8318,-2.8524,-2.862,-2.862,-2.862,-2.862,-2.862,-2.862,-2.862,-2.862,-2.862,-2.8343,-2.7811,-2.7353,-2.722,-2.7425,-2.7679,-2.7944,-2.8222,-2.8741,-2.8801,-2.8415,-2.8801,-2.8837,-2.8524,-2.8681,-2.8801,-2.8801,-2.8801,-2.8669,-2.8415,-2.8379,-2.808,-2.744,-2.6899,-2.6299,-2.5522,-2.4912,-2.4334,-2.3603,-2.2927,-2.2364,-2.227,-2.2417,-2.261,-2.2371,-2.0621,-1.9249,-1.9084,-1.9582,-1.9837,-1.9864,-2.0148,-2.0424,-2.0433,-2.0654,-2.0812,-2.1037,-2.1839,-2.2515,-2.2704,-2.3463,-2.3926,-2.4031,-2.4125,-2.401,-2.3716,-2.3209,-2.2774,-2.2488,-2.1762,-2.0648,-1.9132,-1.7943,-1.7336,-1.7086,-1.6821,-1.6689,-1.6508,-1.653,-1.6503,-1.6421,-1.6524,-1.6463,-1.6347,-1.6307,-1.6198,-1.5974,-1.5866,-1.5798,-1.5703,-1.5642,-1.5615,-1.5601,-1.5533,-1.5391,-2.7787,-2.8174,-2.8246,-2.8391,-2.862,-2.862,-2.862,-2.862,-2.862,-2.8451,-2.8186,-2.8174,-2.8005,-2.7763,-2.7751,-2.7896,-2.8101,-2.8186,-2.8343,-2.856,-2.8608,-2.862,-2.8632,-2.8632,-2.862,-2.8632,-2.8632,-2.8644,-2.8644,-2.862,-2.8343,-2.7836,-2.7522,-2.7401,-2.7449,-2.7691,-2.7944,-2.821,-2.8741,-2.8982,-2.8946,-2.8982,-2.9103,-2.9296,-2.932,-2.9332,-2.932,-2.9332,-2.9212,-2.897,-2.8922,-2.8813,-2.8464,-2.7747,-2.7333,-2.7238,-2.6556,-2.5926,-2.5434,-2.5246,-2.4963,-2.4681,-2.4619,-2.4651,-2.464,-2.4355,-2.3822,-2.3132,-2.2964,-2.2839,-2.2984,-2.2984,-2.2974,-2.2954,-2.3014,-2.3233,-2.3621,-2.3821,-2.422,-2.5185,-2.5334,-2.5572,-2.6005,-2.6099,-2.5888,-2.5545,-2.5403,-2.5013,-2.445,-2.418,-2.3896,-2.2916,-2.1208,-1.9436,-1.8683,-1.7976,-1.7673,-1.7207,-1.672,-1.6673,-1.6673,-1.6578,-1.6469,-1.6501,-1.6293,-1.6212,-1.6083,-1.5961,-1.5859,-1.5839,-1.5757,-1.5655,-1.5642,-1.5628,-1.552,-2.8005,-2.8222,-2.8379,-2.8512,-2.862,-2.862,-2.862,-2.862,-2.862,-2.856,-2.8463,-2.8451,-2.8222,-2.7824,-2.7968,-2.8113,-2.821,-2.8379,-2.8512,-2.862,-2.862,-2.862,-2.8632,-2.8789,-2.8862,-2.8862,-2.885,-2.8862,-2.8801,-2.8536,-2.8258,-2.8041,-2.7775,-2.7655,-2.7679,-2.7908,-2.8101,-2.821,-2.8584,-2.885,-2.9031,-2.932,-2.9453,-2.9441,-2.9719,-2.9803,-2.9658,-2.9634,-2.9441,-2.9055,-2.9006,-2.8958,-2.8862,-2.856,-2.8475,-2.8583,-2.8044,-2.7558,-2.7109,-2.6814,-2.6542,-2.6352,-2.6488,-2.6568,-2.6663,-2.6854,-2.6854,-2.6427,-2.5432,-2.4702,-2.4713,-2.4985,-2.5185,-2.5195,-2.5294,-2.5381,-2.5582,-2.5989,-2.6461,-2.6854,-2.7152,-2.7438,-2.7629,-2.7724,-2.7629,-2.7343,-2.7245,-2.6788,-2.6427,-2.6216,-2.5873,-2.5378,-2.4228,-2.2761,-2.0897,-1.9676,-1.8948,-1.8175,-1.7814,-1.7665,-1.7278,-1.6862,-1.6727,-1.6678,-1.6485,-1.6271,-1.6096,-1.6049,-1.5988,-1.5967,-1.5961,-1.5879,-1.5784,-1.5764,-1.5669,-2.8258,-2.8343,-2.8548,-2.862,-2.862,-2.862,-2.862,-2.862,-2.862,-2.862,-2.862,-2.862,-2.8415,-2.8101,-2.8234,-2.8318,-2.8343,-2.8524,-2.862,-2.862,-2.862,-2.8656,-2.8741,-2.8922,-2.9055,-2.9115,-2.9115,-2.9127,-2.9079,-2.8753,-2.8463,-2.8318,-2.8125,-2.7993,-2.7944,-2.8113,-2.8246,-2.8331,-2.8524,-2.8717,-2.8934,-2.9344,-2.9526,-2.9453,-2.9779,-2.99,-2.9707,-2.9682,-2.9477,-2.9043,-2.9006,-2.9006,-2.9006,-2.9006,-2.9103,-2.9248,-2.8946,-2.8608,-2.8343,-2.7938,-2.7759,-2.7771,-2.7937,-2.8031,-2.8031,-2.8332,-2.8524,-2.8392,-2.7308,-2.6447,-2.6436,-2.6814,-2.7015,-2.7027,-2.7178,-2.7175,-2.7282,-2.7745,-2.7923,-2.8031,-2.8188,-2.862,-2.862,-2.85,-2.8488,-2.8392,-2.8212,-2.8043,-2.8031,-2.7646,-2.7345,-2.6971,-2.6811,-2.5561,-2.2974,-2.1594,-2.0611,-1.9824,-1.9462,-1.8976,-1.8449,-1.7954,-1.7466,-1.7709,-1.7084,-1.6679,-1.6779,-1.6672,-1.6474,-1.6374,-1.6268,-1.6134,-1.594,-1.592,-1.5852,-2.8367,-2.8584,-2.862,-2.862,-2.862,-2.862,-2.862,-2.862,-2.862,-2.862,-2.862,-2.862,-2.8608,-2.856,-2.8572,-2.8596,-2.8608,-2.8608,-2.862,-2.8632,-2.8644,-2.8765,-2.8994,-2.9019,-2.9151,-2.9369,-2.9393,-2.9381,-2.9369,-2.9332,-2.9091,-2.8632,-2.8572,-2.8439,-2.8234,-2.8222,-2.8343,-2.856,-2.8608,-2.8632,-2.8681,-2.8922,-2.9175,-2.9344,-2.9441,-2.9465,-2.9417,-2.9429,-2.9284,-2.9019,-2.8994,-2.9006,-2.9006,-2.9031,-2.9067,-2.9055,-2.9019,-2.8874,-2.8632,-2.8488,-2.8488,-2.85,-2.85,-2.8524,-2.8524,-2.8524,-2.862,-2.862,-2.838,-2.8236,-2.826,-2.8212,-2.8332,-2.8332,-2.838,-2.8392,-2.8392,-2.8392,-2.8524,-2.8524,-2.8524,-2.862,-2.862,-2.862,-2.862,-2.862,-2.8524,-2.8524,-2.8536,-2.8524,-2.8368,-2.8319,-2.8027,-2.7232,-2.5074,-2.3846,-2.3033,-2.2257,-2.1524,-2.0753,-2.0226,-1.9725,-1.9355,-1.8877,-1.8619,-1.8328,-1.7886,-1.7466,-1.7367,-1.707,-1.6474,-1.6247,-1.6121,-1.6056,-1.5995,-2.8536,-2.862,-2.862,-2.862,-2.862,-2.862,-2.862,-2.862,-2.862,-2.862,-2.862,-2.862,-2.862,-2.862,-2.862,-2.862,-2.862,-2.862,-2.862,-2.8644,-2.8789,-2.8922,-2.9043,-2.9344,-2.955,-2.9634,-2.9658,-2.9562,-2.9417,-2.9405,-2.9224,-2.8934,-2.8874,-2.8741,-2.8524,-2.8475,-2.8524,-2.8608,-2.862,-2.862,-2.8632,-2.8717,-2.8813,-2.891,-2.9236,-2.932,-2.9163,-2.9151,-2.9031,-2.8777,-2.8765,-2.8837,-2.9019,-2.9332,-2.9429,-2.9284,-2.926,-2.9079,-2.8705,-2.862,-2.862,-2.862,-2.862,-2.8632,-2.862,-2.862,-2.862,-2.8632,-2.8632,-2.8681,-2.8801,-2.8729,-2.862,-2.862,-2.8632,-2.8632,-2.862,-2.862,-2.862,-2.862,-2.862,-2.862,-2.8656,-2.8632,-2.862,-2.862,-2.8632,-2.8644,-2.8656,-2.8753,-2.8874,-2.891,-2.8884,-2.8733,-2.8061,-2.6551,-2.5465,-2.4663,-2.3978,-2.3571,-2.3144,-2.232,-2.1741,-2.1424,-2.0916,-2.0374,-2.005,-1.9246,-1.8825,-1.7886,-1.729,-1.68,-1.6182,-1.6282,-1.6155,-2.862,-2.862,-2.862,-2.862,-2.862,-2.862,-2.862,-2.862,-2.862,-2.862,-2.862,-2.862,-2.862,-2.8644,-2.8717,-2.8753,-2.8753,-2.8753,-2.8753,-2.8777,-2.9019,-2.9188,-2.9308,-2.9634,-2.9839,-2.9924,-2.9936,-2.9827,-2.9695,-2.967,-2.9477,-2.9151,-2.9139,-2.8958,-2.8681,-2.862,-2.862,-2.862,-2.862,-2.862,-2.862,-2.862,-2.862,-2.8669,-2.897,-2.9079,-2.8886,-2.8886,-2.8813,-2.8656,-2.862,-2.8777,-2.9139,-2.955,-2.9719,-2.955,-2.9441,-2.9212,-2.8813,-2.8669,-2.862,-2.8632,-2.8705,-2.8753,-2.8753,-2.8825,-2.8862,-2.8874,-2.8886,-2.897,-2.9055,-2.8982,-2.885,-2.8777,-2.8753,-2.8741,-2.8753,-2.8753,-2.8801,-2.8886,-2.891,-2.8898,-2.8874,-2.8886,-2.8898,-2.8874,-2.8874,-2.8874,-2.891,-2.9006,-2.9139,-2.9163,-2.9357,-2.9402,-2.9129,-2.8257,-2.7534,-2.6805,-2.6086,-2.5929,-2.5561,-2.4739,-2.4237,-2.3815,-2.3375,-2.2807,-2.2113,-2.118,-2.0198,-1.9238,-1.8443,-1.7968,-1.7227,-1.6474,-1.646,-2.862,-2.862,-2.862,-2.862,-2.862,-2.862,-2.862,-2.862,-2.862,-2.8716,-2.8716,-2.8716,-2.8812,-2.8765,-2.9055,-2.9092,-2.9116,-2.9274,-2.9164,-2.9043,-2.9284,-2.9526,-2.9731,-2.9903,-3.0061,-3.0267,-3.0303,-3.0291,-3.0242,-3.0319,-3.0076,-2.9564,-2.9566,-2.9298,-2.8632,-2.8716,-2.862,-2.862,-2.862,-2.862,-2.862,-2.862,-2.862,-2.862,-2.8669,-2.8681,-2.8644,-2.8644,-2.8644,-2.8632,-2.862,-2.8874,-2.932,-2.9622,-2.9779,-2.9731,-2.955,-2.9308,-2.9043,-2.8813,-2.8717,-2.8741,-2.8886,-2.9019,-2.9043,-2.92,-2.932,-2.9308,-2.9332,-2.9381,-2.9381,-2.9381,-2.9272,-2.9067,-2.9019,-2.9019,-2.9019,-2.9019,-2.9103,-2.9284,-2.932,-2.9381,-2.9381,-2.932,-2.9284,-2.9296,-2.9308,-2.9296,-2.9284,-2.9357,-2.9405,-2.9453,-2.9622,-2.9791,-2.99,-2.9872,-2.9367,-2.8814,-2.8169,-2.777,-2.7415,-2.6813,-2.6433,-2.6009,-2.5624,-2.506,-2.4428,-2.3588,-2.2594,-2.1632,-2.0499,-1.9235,-1.8467,-1.7717,-1.6878,-2.862,-2.862,-2.862,-2.862,-2.862,-2.862,-2.862,-2.862,-2.9004,-2.9196,-2.9184,-2.9471,-2.965,-2.9725,-2.9963,-3.0188,-3.0388,-3.0726,-3.0441,-2.9578,-2.9562,-2.9818,-2.9927,-3.0399,-3.0824,-3.1201,-3.1315,-3.1315,-3.1315,-3.1315,-3.1027,-3.0601,-3.0489,-3.0006,-2.9221,-2.9196,-2.9004,-2.862,-2.862,-2.862,-2.862,-2.862,-2.862,-2.862,-2.862,-2.862,-2.862,-2.862,-2.862,-2.8632,-2.862,-2.8862,-2.9308,-2.9477,-2.961,-2.9767,-2.9731,-2.9562,-2.932,-2.92,-2.9139,-2.9163,-2.9236,-2.9272,-2.9284,-2.9369,-2.9417,-2.9417,-2.9405,-2.9465,-2.9622,-2.967,-2.9562,-2.932,-2.9284,-2.9284,-2.9284,-2.9296,-2.932,-2.9381,-2.9405,-2.9405,-2.9405,-2.9417,-2.9453,-2.9441,-2.9441,-2.9441,-2.9441,-2.9598,-2.967,-2.9695,-2.99,-3.0045,-3.0081,-3.0093,-2.9771,-2.9551,-2.9202,-2.899,-2.8813,-2.8635,-2.8243,-2.8019,-2.7527,-2.7169,-2.6523,-2.5856,-2.4949,-2.3708,-2.2413,-2.1115,-1.9834,-1.8972,-1.8321,-2.8908,-2.8908,-2.9292,-2.9484,-2.9484,-2.9675,-2.9758,-2.9771,-3.014,-3.0331,-3.0604,-3.0782,-3.0972,-3.1064,-3.1404,-3.1594,-3.162,-3.2351,-3.2216,-3.1163,-3.0776,-3.0787,-3.1089,-3.1856,-3.2323,-3.2712,-3.2899,-3.3,-3.3,-3.2986,-3.2709,-3.2234,-3.1946,-3.127,-3.0274,-2.9841,-2.9375,-2.8908,-2.8716,-2.862,-2.862,-2.862,-2.862,-2.862,-2.862,-2.862,-2.862,-2.8705,-2.8765,-2.8789,-2.885,-2.9127,-2.9501,-2.9562,-2.967,-2.9876,-2.9851,-2.9719,-2.9562,-2.9441,-2.9405,-2.9417,-2.9489,-2.955,-2.9574,-2.9622,-2.9707,-2.9707,-2.9719,-2.9779,-2.9912,-2.9948,-2.9864,-2.9731,-2.961,-2.9562,-2.9562,-2.9646,-2.9707,-2.9731,-2.9731,-2.9707,-2.9707,-2.9707,-2.9707,-2.9707,-2.9707,-2.9707,-2.9731,-2.9851,-2.9912,-2.996,-3.0069,-3.0153,-3.0189,-3.0177,-3.0153,-2.9992,-2.9944,-2.9855,-2.9677,-2.9575,-2.9272,-2.9248,-2.8976,-2.8852,-2.8312,-2.784,-2.7135,-2.5645,-2.4277,-2.3369,-2.2276,-2.0829,-1.9858,-2.9567,-2.9663,-3.0617,-3.0998,-3.1093,-3.1474,-3.1664,-3.1758,-3.1853,-3.2124,-3.238,-3.2664,-3.2664,-3.2802,-3.3367,-3.3491,-3.3155,-3.408,-3.4596,-3.4209,-3.3567,-3.3127,-3.3365,-3.3982,-3.43,-3.4599,-3.4983,-3.5167,-3.5182,-3.5167,-3.4858,-3.4309,-3.3741,-3.2886,-3.1825,-3.0782,-3.014,-2.9579,-2.9004,-2.8812,-2.8812,-2.8716,-2.8716,-2.8716,-2.8716,-2.8741,-2.8717,-2.8946,-2.9067,-2.9067,-2.9224,-2.9453,-2.9719,-2.9791,-2.99,-3.0141,-2.996,-2.9864,-2.9767,-2.9658,-2.9526,-2.955,-2.9707,-2.9815,-2.9851,-2.9996,-3.0105,-3.0117,-3.0129,-3.0165,-3.0177,-3.0177,-3.0165,-3.0165,-2.9948,-2.9827,-2.9839,-3.0033,-3.0093,-3.0141,-3.0202,-3.0202,-3.0129,-3.0141,-3.0141,-3.0153,-3.0129,-3.0105,-3.0117,-3.0117,-3.0177,-3.0202,-3.0189,-3.0202,-3.0214,-3.0069,-3.0033,-2.9984,-2.9948,-2.9936,-3.0057,-2.998,-2.9987,-2.9975,-2.9987,-3.0088,-2.9861,-2.9248,-2.8774,-2.7728,-2.6645,-2.5803,-2.4537,-2.3073,-2.1713,-3.089,-3.1637,-3.1921,-3.2205,-3.2475,-3.2664,-3.2758,-3.2852,-3.3511,-3.3981,-3.4154,-3.4809,-3.5089,-3.5163,-3.5786,-3.6119,-3.6318,-3.6992,-3.758,-3.7628,-3.7195,-3.6406,-3.5835,-3.5834,-3.637,-3.6963,-3.716,-3.7258,-3.7258,-3.7258,-3.6915,-3.6289,-3.578,-3.4803,-3.3408,-3.23,-3.1365,-3.0522,-2.9937,-2.9758,-2.9758,-2.9746,-2.9471,-2.9184,-2.9184,-2.9102,-2.9019,-2.9357,-2.9489,-2.932,-2.9357,-2.9526,-2.9779,-2.9815,-2.9936,-3.0141,-3.0153,-3.0093,-3.0081,-3.002,-2.9984,-3.0008,-3.002,-3.0105,-3.0105,-3.0165,-3.0214,-3.0214,-3.0214,-3.0214,-3.0214,-3.0214,-3.0214,-3.0214,-3.0129,-3.0081,-3.0093,-3.0153,-3.0214,-3.0214,-3.0214,-3.0214,-3.0214,-3.0214,-3.0214,-3.0214,-3.0214,-3.0214,-3.0214,-3.0214,-3.0214,-3.0214,-3.0214,-3.0214,-3.0165,-2.9996,-2.9888,-2.9815,-2.9707,-2.955,-2.9682,-2.9803,-2.9884,-3.0141,-3.0088,-3.01,-3.0202,-2.9861,-2.9498,-2.9135,-2.839,-2.7292,-2.6537,-2.5267,-2.4048,-3.2583,-3.3403,-3.3966,-3.4449,-3.4715,-3.4902,-3.4995,-3.5089,-3.5554,-3.6034,-3.6313,-3.6776,-3.7054,-3.7132,-3.7789,-3.8006,-3.819,-3.9022,-3.9413,-3.9538,-3.961,-3.8817,-3.7976,-3.7946,-3.8534,-3.9038,-3.9331,-3.9428,-3.9428,-3.9444,-3.905,-3.8402,-3.7912,-3.6799,-3.5256,-3.4168,-3.3149,-3.2219,-3.1637,-3.1339,-3.1339,-3.1162,-3.0782,-3.0319,-2.9949,-2.9537,-2.9261,-2.9574,-2.9719,-2.9622,-2.9682,-2.9815,-2.9948,-2.9972,-3.0045,-3.0214,-3.0214,-3.0214,-3.0214,-3.0214,-3.0214,-3.0214,-3.0214,-3.0214,-3.0214,-3.0214,-3.0214,-3.0214,-3.0214,-3.0214,-3.0214,-3.0214,-3.0214,-3.0214,-3.0214,-3.0214,-3.0214,-3.0202,-3.0214,-3.0214,-3.0214,-3.0214,-3.0214,-3.0214,-3.0214,-3.0214,-3.0214,-3.0214,-3.0214,-3.0214,-3.0214,-3.0214,-3.0165,-3.0141,-3.0033,-2.9864,-2.9574,-2.9501,-2.9357,-2.92,-2.9465,-2.9622,-2.9876,-3.0093,-3.0165,-3.0214,-3.0214,-3.0214,-2.9987,-2.9611,-2.9213,-2.8793,-2.7928,-2.7281,-2.6032,-3.4528,-3.5089,-3.6498,-3.7069,-3.7162,-3.7531,-3.7531,-3.7715,-3.7715,-3.8007,-3.8375,-3.8559,-3.8651,-3.87,-3.9291,-3.9461,-3.9131,-4.0334,-4.0675,-4.0886,-4.1047,-4.0627,-3.972,-4.0109,-4.0497,-4.0707,-4.1208,-4.1304,-4.1271,-4.1271,-4.0971,-4.0236,-3.9695,-3.8665,-3.7117,-3.6034,-3.5103,-3.4276,-3.3699,-3.3403,-3.3403,-3.3135,-3.265,-3.1921,-3.0855,-3.011,-2.9738,-2.9782,-2.9851,-2.9839,-3.0081,-3.0153,-3.0202,-3.0202,-3.0202,-3.0202,-3.0214,-3.0214,-3.0214,-3.0214,-3.0214,-3.0214,-3.0214,-3.0214,-3.0214,-3.0214,-3.0214,-3.0214,-3.0214,-3.0214,-3.0214,-3.0214,-3.0214,-3.0214,-3.0214,-3.0214,-3.0214,-3.0214,-3.0214,-3.0214,-3.0214,-3.0214,-3.0214,-3.0214,-3.0214,-3.0214,-3.0214,-3.0214,-3.0214,-3.0214,-3.0214,-3.0214,-3.0141,-3.0045,-2.99,-2.9731,-2.9381,-2.9127,-2.8946,-2.891,-2.9357,-2.9586,-2.9827,-3.0008,-3.0105,-3.0177,-3.0214,-3.0214,-3.0214,-3.01,-2.9712,-2.9528,-2.922,-2.8666,-2.7647,-3.6776,-3.7623,-3.7899,-3.8283,-3.8651,-3.8742,-3.8742,-3.8834,-3.9217,-3.9399,-3.9582,-3.9947,-4.0038,-4.0072,-4.0689,-4.1136,-4.0939,-4.1801,-4.2268,-4.2364,-4.2364,-4.2364,-4.1866,-4.177,-4.1883,-4.2172,-4.2364,-4.246,-4.2426,-4.2076,-4.1798,-4.128,-4.0477,-3.9663,-3.864,-3.7623,-3.6869,-3.622,-3.5756,-3.5476,-3.5461,-3.5275,-3.4809,-3.3822,-3.223,-3.0997,-3.0255,-3.0076,-3.0117,-3.0141,-3.0177,-3.0315,-3.0214,-3.0214,-3.0214,-3.0214,-3.0214,-3.0214,-3.0214,-3.0214,-3.0214,-3.0214,-3.0214,-3.0214,-3.0214,-3.0214,-3.0214,-3.0214,-3.0214,-3.0214,-3.0214,-3.0214,-3.0214,-3.0214,-3.0214,-3.0214,-3.0214,-3.0214,-3.0214,-3.0214,-3.0214,-3.0214,-3.0214,-3.0214,-3.0214,-3.0214,-3.0214,-3.0214,-3.0214,-3.0214,-3.0177,-3.0153,-3.0033,-2.99,-2.9634,-2.9441,-2.9139,-2.891,-2.8741,-2.8656,-2.9103,-2.9417,-2.9598,-2.9839,-3.0069,-3.0117,-3.0117,-3.0214,-3.0214,-3.0214,-3.0214,-3.004,-2.9742,-2.9522,-2.9179,-3.8375,-3.9125,-3.9308,-3.9565,-3.9765,-3.9856,-3.9765,-3.9856,-4.0146,-4.0237,-4.0237,-4.0493,-4.0583,-4.0652,-4.1337,-4.1697,-4.1885,-4.2484,-4.2765,-4.2765,-4.2765,-4.2765,-4.2765,-4.2556,-4.2573,-4.2765,-4.2765,-4.2765,-4.2663,-4.2467,-4.2013,-4.1697,-4.1042,-4.0335,-3.9557,-3.8942,-3.8467,-3.7991,-3.7715,-3.7531,-3.7531,-3.7238,-3.6406,-3.5128,-3.3709,-3.2616,-3.1411,-3.1314,-3.1164,-3.1012,-3.0708,-3.0416,-3.0214,-3.0214,-3.0214,-3.0214,-3.0214,-3.0214,-3.0214,-3.0214,-3.0214,-3.0214,-3.0214,-3.0214,-3.0214,-3.0214,-3.0214,-3.0214,-3.0214,-3.0214,-3.0214,-3.0214,-3.0214,-3.0214,-3.0214,-3.0214,-3.0214,-3.0214,-3.0214,-3.0214,-3.0214,-3.0214,-3.0214,-3.0214,-3.0214,-3.0214,-3.0214,-3.0214,-3.0214,-3.0202,-3.0081,-3.002,-2.99,-2.9707,-2.9405,-2.9139,-2.8874,-2.8741,-2.8681,-2.8644,-2.8825,-2.9091,-2.9308,-2.9562,-2.9815,-2.9948,-2.9972,-3.0081,-3.0189,-3.0214,-3.0214,-3.0214,-3.0076,-2.9879,-2.9634,-3.9582,-4.0055,-4.0402,-4.0583,-4.0583,-4.0583,-4.0493,-4.0583,-4.0583,-4.0493,-4.0583,-4.0583,-4.0583,-4.0738,-4.1371,-4.1714,-4.2073,-4.2467,-4.2765,-4.2765,-4.2765,-4.2765,-4.2765,-4.2765,-4.2765,-4.2765,-4.2765,-4.2748,-4.2655,-4.2381,-4.1936,-4.1594,-4.1234,-4.0617,-4.0106,-3.9964,-3.9673,-3.9291,-3.92,-3.92,-3.92,-3.8834,-3.7807,-3.6327,-3.5243,-3.4318,-3.3186,-3.2794,-3.2568,-3.2145,-3.1642,-3.1176,-3.0708,-3.0214,-3.0214,-3.0214,-3.0214,-3.0214,-3.0214,-3.0214,-3.0214,-3.0214,-3.0214,-3.0214,-3.0214,-3.0214,-3.0214,-3.0214,-3.0214,-3.0214,-3.0214,-3.0214,-3.0214,-3.0214,-3.0214,-3.0214,-3.0214,-3.0214,-3.0214,-3.0214,-3.0214,-3.0214,-3.0214,-3.0214,-3.0214,-3.0214,-3.0214,-3.0214,-3.0214,-3.0165,-3.0057,-2.9888,-2.9755,-2.9429,-2.9103,-2.8982,-2.8705,-2.8656,-2.862,-2.8632,-2.8656,-2.8813,-2.9055,-2.9296,-2.9513,-2.967,-2.9839,-2.996,-3.0057,-3.0153,-3.0214,-3.0214,-3.0214,-3.0214,-3.0081,-4.0402,-4.0493,-4.0583,-4.0583,-4.0583,-4.0583,-4.0583,-4.0583,-4.0583,-4.0583,-4.0583,-4.0583,-4.0674,-4.0863,-4.1371,-4.2022,-4.2596,-4.2792,-4.2765,-4.2765,-4.2765,-4.2765,-4.2861,-4.2861,-4.2844,-4.2765,-4.281,-4.2673,-4.2381,-4.1988,-4.1645,-4.1251,-4.0909,-4.0561,-4.0527,-4.0493,-4.0402,-4.022,-4.0129,-4.0203,-4.0112,-4.0021,-3.9383,-3.7839,-3.6836,-3.5777,-3.4803,-3.4031,-3.3557,-3.3408,-3.3336,-3.2875,-3.2132,-3.1088,-3.0493,-3.0315,-3.0214,-3.0214,-3.0214,-3.0214,-3.0214,-3.0214,-3.0214,-3.0214,-3.0214,-3.0214,-3.0214,-3.0214,-3.0214,-3.0214,-3.0214,-3.0214,-3.0214,-3.0214,-3.0214,-3.0214,-3.0214,-3.0214,-3.0214,-3.0214,-3.0214,-3.0214,-3.0214,-3.0214,-3.0214,-3.0214,-3.0214,-3.0214,-3.0214,-3.0141,-3.0045,-2.9827,-2.9598,-2.92,-2.8789,-2.8753,-2.8632,-2.8644,-2.862,-2.862,-2.8632,-2.8644,-2.8801,-2.9043,-2.9296,-2.9501,-2.9658,-2.9815,-3.0008,-3.0153,-3.0189,-3.0214,-3.0214,-3.0214,-3.0214,-4.0583,-4.0583,-4.0583,-4.0583,-4.0583,-4.0583,-4.0583,-4.0583,-4.0583,-4.0583,-4.0674,-4.0856,-4.0946,-4.1244,-4.2018,-4.2783,-4.3071,-4.2861,-4.2861,-4.2765,-4.2765,-4.2957,-4.3148,-4.3244,-4.3279,-4.3175,-4.3105,-4.2657,-4.2244,-4.1697,-4.1371,-4.1149,-4.0772,-4.0583,-4.0583,-4.0583,-4.0583,-4.0583,-4.0583,-4.0583,-4.0583,-4.0583,-4.0038,-3.9208,-3.8498,-3.7648,-3.6786,-3.619,-3.5757,-3.542,-3.4964,-3.4465,-3.3674,-3.2615,-3.1265,-3.0772,-3.0416,-3.0214,-3.0214,-3.0214,-3.0214,-3.0214,-3.0214,-3.0214,-3.0214,-3.0214,-3.0214,-3.0214,-3.0214,-3.0214,-3.0214,-3.0214,-3.0214,-3.0214,-3.0214,-3.0214,-3.0214,-3.0214,-3.0214,-3.0214,-3.0214,-3.0214,-3.0214,-3.0214,-3.0214,-3.0214,-3.0214,-3.0214,-3.0214,-3.0081,-2.996,-2.961,-2.9344,-2.9031,-2.8693,-2.8669,-2.862,-2.862,-2.862,-2.862,-2.862,-2.8632,-2.8656,-2.8777,-2.9031,-2.9284,-2.9513,-2.9682,-2.9912,-3.0129,-3.0177,-3.0214,-3.0214,-3.0214,-3.0214,-4.0583,-4.0583,-4.0583,-4.0583,-4.0583,-4.0583,-4.0583,-4.0583,-4.0674,-4.0765,-4.0765,-4.1235,-4.1416,-4.1699,-4.2587,-4.3345,-4.3669,-4.334,-4.3244,-4.3244,-4.3244,-4.3435,-4.3609,-4.3694,-4.3614,-4.3574,-4.307,-4.2713,-4.2166,-4.1567,-4.1183,-4.096,-4.0686,-4.0583,-4.0583,-4.0583,-4.0583,-4.0583,-4.0583,-4.0583,-4.0583,-4.0583,-4.0402,-4.0072,-3.9791,-3.9151,-3.8409,-3.8024,-3.7663,-3.7187,-3.6677,-3.6045,-3.555,-3.4297,-3.2981,-3.1792,-3.0873,-3.0404,-3.0214,-3.0214,-3.0214,-3.0214,-3.0214,-3.0214,-3.0214,-3.0214,-3.0214,-3.0214,-3.0214,-3.0214,-3.0214,-3.0214,-3.0214,-3.0214,-3.0214,-3.0214,-3.0214,-3.0214,-3.0214,-3.0214,-3.0214,-3.0214,-3.0214,-3.0214,-3.0214,-3.0214,-3.0214,-3.0214,-3.0177,-2.996,-2.9755,-2.9357,-2.9055,-2.8813,-2.8644,-2.8644,-2.862,-2.862,-2.862,-2.862,-2.862,-2.862,-2.8656,-2.8681,-2.8765,-2.9019,-2.9284,-2.9538,-2.9755,-2.9936,-3.0105,-3.0202,-3.0214,-3.0214,-3.0214,-4.0583,-4.0583,-4.0583,-4.0583,-4.0583,-4.0583,-4.0583,-4.0674,-4.1054,-4.1235,-4.1218,-4.1687,-4.1957,-4.2278,-4.2863,-4.3643,-4.4081,-4.4103,-4.4008,-4.4008,-4.4008,-4.4068,-4.4205,-4.3904,-4.3821,-4.3759,-4.3076,-4.2425,-4.204,-4.1568,-4.1069,-4.0738,-4.0652,-4.0583,-4.0583,-4.0583,-4.0583,-4.0583,-4.0583,-4.0583,-4.0583,-4.0583,-4.0583,-4.0419,-4.0106,-3.9807,-3.9532,-3.9172,-3.8884,-3.8662,-3.8601,-3.8103,-3.7451,-3.6341,-3.5192,-3.3773,-3.2242,-3.072,-3.038,-3.0129,-3.0153,-3.0141,-3.0177,-3.0202,-3.0214,-3.0214,-3.0214,-3.0214,-3.0214,-3.0214,-3.0214,-3.0214,-3.0214,-3.0214,-3.0214,-3.0214,-3.0214,-3.0214,-3.0214,-3.0214,-3.0214,-3.0214,-3.0214,-3.0214,-3.0214,-3.0214,-3.0214,-3.0202,-3.0081,-2.9815,-2.9513,-2.9115,-2.891,-2.8693,-2.862,-2.862,-2.862,-2.862,-2.862,-2.862,-2.862,-2.862,-2.862,-2.8656,-2.8717,-2.8777,-2.9019,-2.9284,-2.9538,-2.9827,-3.0093,-3.0189,-3.0214,-3.0214,-3.0214,-4.0583,-4.0583,-4.0583,-4.0583,-4.0583,-4.0583,-4.0583,-4.0674,-4.1145,-4.1325,-4.1506,-4.2119,-4.2802,-4.3397,-4.3646,-4.3999,-4.4607,-4.4578,-4.4388,-4.4483,-4.4465,-4.4453,-4.4428,-4.4325,-4.4128,-4.3774,-4.3359,-4.289,-4.2293,-4.166,-4.1102,-4.0726,-4.0583,-4.0583,-4.0583,-4.0583,-4.0583,-4.0583,-4.0583,-4.0583,-4.0583,-4.0583,-4.0583,-4.0583,-4.0402,-4.0328,-4.022,-4.0129,-3.9906,-3.9816,-3.9632,-3.9244,-3.8588,-3.7488,-3.6178,-3.4964,-3.3304,-3.1797,-3.0639,-3.004,-2.9876,-2.996,-2.9996,-3.0033,-3.0153,-3.0214,-3.0214,-3.0214,-3.0214,-3.0214,-3.0214,-3.0214,-3.0214,-3.0214,-3.0214,-3.0214,-3.0214,-3.0214,-3.0214,-3.0214,-3.0214,-3.0214,-3.0214,-3.0214,-3.0214,-3.0214,-3.0165,-3.0117,-2.9864,-2.9501,-2.9188,-2.885,-2.8729,-2.8644,-2.862,-2.862,-2.862,-2.862,-2.862,-2.862,-2.862,-2.862,-2.862,-2.862,-2.8656,-2.8741,-2.8837,-2.9139,-2.9513,-2.9827,-3.0129,-3.0177,-3.0214,-3.0214,-3.0214,-4.0583,-4.0583,-4.0583,-4.0583,-4.0583,-4.0583,-4.0674,-4.0856,-4.1325,-4.1597,-4.1867,-4.2604,-4.3651,-4.4435,-4.4342,-4.4557,-4.5281,-4.4957,-4.4768,-4.4768,-4.4714,-4.4818,-4.4735,-4.4629,-4.4397,-4.4086,-4.3615,-4.3145,-4.2694,-4.2065,-4.1433,-4.0765,-4.0674,-4.0583,-4.0583,-4.0583,-4.0583,-4.0583,-4.0583,-4.0583,-4.0583,-4.0583,-4.0583,-4.0583,-4.0583,-4.0583,-4.0583,-4.0583,-4.0493,-4.0419,-4.0254,-3.9949,-3.9597,-3.8662,-3.7475,-3.622,-3.4664,-3.3103,-3.1672,-3.0601,-2.9823,-2.9646,-2.9803,-2.9936,-3.0165,-3.0214,-3.0214,-3.0214,-3.0214,-3.0214,-3.0214,-3.0214,-3.0214,-3.0214,-3.0214,-3.0214,-3.0214,-3.0214,-3.0214,-3.0214,-3.0214,-3.0214,-3.0214,-3.0214,-3.0214,-3.0214,-3.0141,-3.0033,-2.9695,-2.9272,-2.9006,-2.8717,-2.8669,-2.862,-2.862,-2.862,-2.862,-2.862,-2.862,-2.862,-2.862,-2.862,-2.862,-2.862,-2.862,-2.8741,-2.8874,-2.92,-2.9501,-2.9719,-2.9924,-3.0141,-3.0214,-3.0214,-3.0214,-4.0583,-4.0583,-4.0583,-4.0583,-4.0583,-4.0583,-4.0856,-4.1235,-4.1759,-4.2209,-4.2676,-4.3268,-4.3849,-4.4508,-4.4655,-4.5021,-4.5789,-4.5789,-4.5695,-4.5713,-4.5753,-4.5403,-4.5056,-4.4764,-4.4398,-4.405,-4.3703,-4.3233,-4.2855,-4.2676,-4.2047,-4.1325,-4.1037,-4.0765,-4.0583,-4.0674,-4.0583,-4.0583,-4.0583,-4.0583,-4.0583,-4.0583,-4.0583,-4.0583,-4.0583,-4.0583,-4.0583,-4.0583,-4.0583,-4.0583,-4.0493,-4.0402,-4.019,-3.9548,-3.8598,-3.7492,-3.6095,-3.4526,-3.3257,-3.1289,-2.9984,-2.9687,-2.9658,-2.9912,-3.0177,-3.0214,-3.0214,-3.0214,-3.0214,-3.0214,-3.0214,-3.0214,-3.0315,-3.0518,-3.0619,-3.0518,-3.0518,-3.0315,-3.0315,-3.0214,-3.0214,-3.0214,-3.0214,-3.0214,-3.0214,-3.0214,-2.996,-2.9839,-2.9501,-2.9127,-2.891,-2.8717,-2.8656,-2.862,-2.862,-2.862,-2.862,-2.862,-2.862,-2.862,-2.862,-2.862,-2.862,-2.862,-2.8632,-2.8765,-2.891,-2.9139,-2.9344,-2.9526,-2.9743,-3.0069,-3.0214,-3.0214,-3.0214,-4.1489,-4.1489,-4.1489,-4.1127,-4.0674,-4.0856,-4.1145,-4.1416,-4.2119,-4.2748,-4.3213,-4.3447,-4.394,-4.449,-4.471,-4.5113,-4.581,-4.5883,-4.5883,-4.5792,-4.5645,-4.5297,-4.4911,-4.4526,-4.4105,-4.3774,-4.3554,-4.3499,-4.3213,-4.3034,-4.2658,-4.2119,-4.1669,-4.1308,-4.1127,-4.0765,-4.0674,-4.0583,-4.0583,-4.0583,-4.0583,-4.0583,-4.0583,-4.0583,-4.0583,-4.0583,-4.0583,-4.0583,-4.0583,-4.0583,-4.0583,-4.0583,-4.0583,-4.0041,-3.9448,-3.8787,-3.7273,-3.6139,-3.4465,-3.2354,-3.0514,-3.0033,-2.9857,-2.9912,-3.0165,-3.0214,-3.0214,-3.0214,-3.0315,-3.0416,-3.072,-3.072,-3.0822,-3.1012,-3.1113,-3.091,-3.0809,-3.072,-3.0518,-3.0416,-3.0315,-3.0214,-3.0214,-3.0214,-3.0214,-3.0189,-2.99,-2.961,-2.9284,-2.9019,-2.8801,-2.8693,-2.8644,-2.862,-2.862,-2.862,-2.862,-2.862,-2.862,-2.862,-2.862,-2.862,-2.862,-2.862,-2.862,-2.8693,-2.8825,-2.9006,-2.9236,-2.9501,-2.9815,-3.0141,-3.0214,-3.0214,-3.0214,-4.2029,-4.2029,-4.2029,-4.1669,-4.1127,-4.1398,-4.1597,-4.1849,-4.2479,-4.3034,-4.3499,-4.3518,-4.3921,-4.449,-4.4691,-4.5132,-4.5718,-4.5883,-4.5883,-4.5755,-4.5498,-4.5077,-4.4673,-4.4288,-4.394,-4.3573,-4.3481,-4.3481,-4.341,-4.3124,-4.3034,-4.2837,-4.2568,-4.2119,-4.1489,-4.1037,-4.0765,-4.0583,-4.0583,-4.0583,-4.0583,-4.0583,-4.0583,-4.0583,-4.0583,-4.0583,-4.0583,-4.0583,-4.0583,-4.0583,-4.0583,-4.0583,-4.0493,-4.022,-3.9964,-3.9366,-3.8553,-3.7464,-3.5897,-3.3243,-3.1068,-3.0426,-3.0045,-3.004,-3.0206,-3.0315,-3.0506,-3.0518,-3.0619,-3.0809,-3.1214,-3.1214,-3.1315,-3.1517,-3.1517,-3.1416,-3.1214,-3.1024,-3.0822,-3.0619,-3.0416,-3.0214,-3.0214,-3.0202,-3.0105,-3.0033,-2.9743,-2.9453,-2.9163,-2.891,-2.8717,-2.8644,-2.8632,-2.862,-2.862,-2.862,-2.862,-2.862,-2.862,-2.862,-2.862,-2.862,-2.862,-2.862,-2.862,-2.862,-2.8741,-2.8922,-2.9236,-2.9562,-2.9876,-3.0177,-3.0214,-3.0214,-3.0214,-4.2029,-4.2029,-4.2029,-4.2029,-4.1939,-4.1939,-4.2209,-4.2568,-4.2748,-4.3124,-4.3499,-4.3499,-4.3921,-4.4526,-4.4673,-4.515,-4.5737,-4.5883,-4.5883,-4.5792,-4.5388,-4.5021,-4.4636,-4.4233,-4.3793,-4.3573,-4.3481,-4.3481,-4.3481,-4.3392,-4.3392,-4.3392,-4.3213,-4.2855,-4.2029,-4.1506,-4.1054,-4.0674,-4.0674,-4.0583,-4.0583,-4.0583,-4.0583,-4.0583,-4.0583,-4.0583,-4.0583,-4.0583,-4.0583,-4.0583,-4.0583,-4.0583,-4.0583,-4.0583,-4.0493,-4.0402,-3.97,-3.8991,-3.8145,-3.4074,-3.215,-3.1205,-3.0809,-3.0479,-3.0359,-3.0595,-3.1012,-3.1012,-3.1315,-3.1617,-3.1706,-3.1806,-3.1806,-3.2008,-3.2109,-3.2021,-3.1819,-3.1416,-3.1113,-3.072,-3.0416,-3.0214,-3.0214,-3.0177,-3.002,-2.9839,-2.9574,-2.9296,-2.9006,-2.8837,-2.8644,-2.862,-2.862,-2.862,-2.862,-2.862,-2.862,-2.862,-2.862,-2.862,-2.862,-2.862,-2.862,-2.862,-2.862,-2.862,-2.8717,-2.885,-2.9127,-2.9417,-2.9864,-3.0141,-3.0177,-3.0214,-3.0214,-4.3034,-4.3034,-4.3034,-4.3034,-4.2945,-4.2658,-4.2658,-4.2855,-4.3124,-4.3303,-4.3499,-4.3481,-4.394,-4.4471,-4.4746,-4.5113,-4.5773,-4.5883,-4.5883,-4.5792,-4.5223,-4.4893,-4.4508,-4.405,-4.3646,-4.3536,-4.3481,-4.3481,-4.3481,-4.3481,-4.3481,-4.3481,-4.3481,-4.3124,-4.2479,-4.1867,-4.1145,-4.1054,-4.0765,-4.0583,-4.0583,-4.0583,-4.0583,-4.0583,-4.0583,-4.0583,-4.0583,-4.0583,-4.0583,-4.0583,-4.0583,-4.0583,-4.0674,-4.0856,-4.1054,-4.1058,-4.0601,-4.0287,-3.9284,-3.6801,-3.4592,-3.2996,-3.1659,-3.1218,-3.1089,-3.1328,-3.1479,-3.1617,-3.1819,-3.2008,-3.2209,-3.231,-3.241,-3.2812,-3.2912,-3.2712,-3.241,-3.192,-3.1416,-3.091,-3.0619,-3.0315,-3.0214,-3.0165,-3.002,-2.9755,-2.9489,-2.9139,-2.8837,-2.8753,-2.862,-2.862,-2.862,-2.862,-2.862,-2.862,-2.862,-2.862,-2.862,-2.862,-2.862,-2.862,-2.862,-2.862,-2.862,-2.8632,-2.8705,-2.8801,-2.897,-2.926,-2.9634,-2.9996,-3.0129,-3.0177,-3.0214,-4.3481,-4.3481,-4.3481,-4.3481,-4.3392,-4.3124,-4.3034,-4.3124,-4.3392,-4.3481,-4.3481,-4.3499,-4.3921,-4.4471,-4.4728,-4.5113,-4.5828,-4.5883,-4.5737,-4.5627,-4.5003,-4.4655,-4.4288,-4.3866,-4.3591,-4.3481,-4.3481,-4.3481,-4.3481,-4.3481,-4.3481,-4.3481,-4.3499,-4.3412,-4.2982,-4.2442,-4.1687,-4.1416,-4.0963,-4.0765,-4.0674,-4.0583,-4.0583,-4.0583,-4.0583,-4.0583,-4.0583,-4.0583,-4.0583,-4.0583,-4.0674,-4.0674,-4.0856,-4.1145,-4.1506,-4.1671,-4.1462,-4.0966,-3.989,-3.9032,-3.6798,-3.532,-3.3543,-3.2448,-3.209,-3.2151,-3.2106,-3.2171,-3.2209,-3.2511,-3.2812,-3.2812,-3.3013,-3.34,-3.3314,-3.3013,-3.2812,-3.231,-3.1718,-3.1214,-3.0619,-3.0416,-3.0202,-3.0117,-3.0033,-2.9719,-2.9393,-2.9043,-2.8729,-2.8669,-2.862,-2.862,-2.862,-2.862,-2.862,-2.862,-2.862,-2.862,-2.862,-2.862,-2.862,-2.862,-2.862,-2.862,-2.862,-2.8632,-2.8656,-2.8753,-2.8874,-2.9031,-2.9284,-2.9634,-2.9984,-3.0117,-3.0165,-4.3481,-4.3481,-4.3481,-4.3481,-4.3499,-4.3499,-4.3499,-4.3499,-4.3481,-4.3481,-4.3481,-4.3481,-4.3921,-4.4545,-4.4673,-4.5132,-4.5755,-4.5883,-4.5663,-4.5315,-4.4875,-4.4526,-4.4123,-4.3719,-4.3536,-4.3481,-4.3481,-4.3481,-4.3481,-4.3481,-4.3481,-4.3518,-4.3573,-4.3648,-4.3541,-4.3289,-4.2531,-4.2041,-4.1587,-4.1314,-4.1149,-4.0885,-4.0885,-4.0868,-4.0907,-4.0873,-4.0856,-4.0856,-4.0856,-4.0765,-4.0765,-4.0946,-4.1145,-4.1325,-4.1939,-4.2228,-4.1918,-4.1278,-4.054,-3.9773,-3.9304,-3.7879,-3.6048,-3.4493,-3.353,-3.348,-3.3273,-3.3134,-3.3113,-3.3213,-3.3314,-3.3314,-3.3314,-3.3414,-3.3414,-3.3213,-3.3113,-3.2611,-3.2021,-3.1315,-3.0619,-3.0315,-3.0214,-3.0141,-3.0008,-2.9646,-2.9344,-2.9079,-2.8801,-2.8656,-2.862,-2.862,-2.862,-2.862,-2.862,-2.862,-2.862,-2.862,-2.862,-2.862,-2.862,-2.862,-2.862,-2.862,-2.862,-2.8632,-2.8644,-2.8681,-2.8741,-2.891,-2.9067,-2.9429,-2.9827,-3.002,-3.0105,-4.3041,-4.3078,-4.3371,-4.3481,-4.3481,-4.3481,-4.3481,-4.3481,-4.3481,-4.3481,-4.3481,-4.3481,-4.394,-4.4636,-4.4673,-4.5187,-4.5627,-4.5847,-4.5627,-4.526,-4.4801,-4.4435,-4.4068,-4.3701,-4.3536,-4.3481,-4.3481,-4.3481,-4.3481,-4.3481,-4.3481,-4.3499,-4.3738,-4.394,-4.4105,-4.4142,-4.3651,-4.3102,-4.2552,-4.2115,-4.1861,-4.1613,-4.1544,-4.1457,-4.1486,-4.1433,-4.1489,-4.1489,-4.1489,-4.1489,-4.1579,-4.1669,-4.1759,-4.2102,-4.2621,-4.2305,-4.2152,-4.1846,-4.126,-4.0726,-4.042,-4.0223,-3.8927,-3.7599,-3.6426,-3.5453,-3.4928,-3.4559,-3.41,-3.4014,-3.3714,-3.3614,-3.3514,-3.3414,-3.3414,-3.3314,-3.3213,-3.2712,-3.2008,-3.1416,-3.0708,-3.0315,-3.0214,-3.0153,-2.9972,-2.961,-2.9284,-2.9043,-2.885,-2.8693,-2.862,-2.862,-2.862,-2.862,-2.862,-2.862,-2.862,-2.862,-2.862,-2.862,-2.862,-2.862,-2.862,-2.862,-2.862,-2.862,-2.8632,-2.8656,-2.8693,-2.8741,-2.891,-2.9284,-2.9622,-2.9827,-3.0008,-4.2729,-4.2894,-4.3133,-4.3334,-4.3481,-4.3481,-4.3481,-4.3481,-4.3481,-4.3481,-4.3481,-4.3481,-4.3921,-4.4581,-4.471,-4.5095,-4.5828,-4.5663,-4.5407,-4.4985,-4.4655,-4.4215,-4.3848,-4.3646,-4.3518,-4.3481,-4.3481,-4.3481,-4.3481,-4.3481,-4.3481,-4.3536,-4.3884,-4.4141,-4.438,-4.4691,-4.4818,-4.4319,-4.3784,-4.3085,-4.2724,-4.2404,-4.2211,-4.2179,-4.2152,-4.2065,-4.2029,-4.2029,-4.2029,-4.2029,-4.2029,-4.2119,-4.2299,-4.273,-4.2742,-4.2509,-4.2289,-4.1941,-4.1403,-4.1354,-4.1337,-4.135,-4.109,-4.0424,-3.9003,-3.7864,-3.6863,-3.6057,-3.5352,-3.4712,-3.4214,-3.3814,-3.3614,-3.3414,-3.3414,-3.3414,-3.3013,-3.2611,-3.2008,-3.1416,-3.091,-3.0416,-3.0177,-3.0117,-2.9936,-2.955,-2.9236,-2.8982,-2.8801,-2.8669,-2.862,-2.862,-2.862,-2.862,-2.862,-2.862,-2.862,-2.862,-2.862,-2.862,-2.862,-2.862,-2.862,-2.862,-2.862,-2.862,-2.862,-2.862,-2.8644,-2.8705,-2.8753,-2.9006,-2.9344,-2.967,-2.9839,-4.2454,-4.2821,-4.2894,-4.3188,-4.3463,-4.3481,-4.3481,-4.3481,-4.3481,-4.3481,-4.3481,-4.3481,-4.3884,-4.4453,-4.4636,-4.5003,-4.5443,-4.5425,-4.5113,-4.4636,-4.4343,-4.3958,-4.3683,-4.3481,-4.3481,-4.3481,-4.3481,-4.3481,-4.3481,-4.3481,-4.3499,-4.3518,-4.3976,-4.4306,-4.46,-4.5113,-4.5332,-4.5348,-4.4684,-4.4041,-4.3474,-4.3079,-4.2724,-4.2688,-4.2494,-4.2209,-4.2209,-4.2119,-4.2119,-4.2119,-4.2209,-4.2479,-4.2855,-4.3195,-4.2934,-4.2619,-4.2362,-4.1922,-4.1537,-4.1379,-4.1507,-4.17,-4.1945,-4.1924,-4.0869,-3.9658,-3.8543,-3.7794,-3.7046,-3.6187,-3.5593,-3.4897,-3.4413,-3.4014,-3.3814,-3.3614,-3.3213,-3.2611,-3.1907,-3.1315,-3.072,-3.0315,-3.0165,-3.0093,-2.9839,-2.9465,-2.9188,-2.8946,-2.8765,-2.8644,-2.862,-2.862,-2.862,-2.862,-2.862,-2.862,-2.862,-2.862,-2.862,-2.862,-2.862,-2.862,-2.862,-2.862,-2.862,-2.862,-2.862,-2.862,-2.862,-2.8644,-2.8693,-2.8753,-2.9031,-2.9393,-2.961,-4.2069,-4.2491,-4.3078,-4.3408,-4.3481,-4.3481,-4.3481,-4.3481,-4.3481,-4.3481,-4.3481,-4.3536,-4.3756,-4.4233,-4.4526,-4.4838,-4.4948,-4.5095,-4.482,-4.4435,-4.4086,-4.3829,-4.3554,-4.3481,-4.3481,-4.3481,-4.3481,-4.3481,-4.3481,-4.3481,-4.3518,-4.3591,-4.4086,-4.4581,-4.471,-4.5278,-4.5755,-4.5865,-4.5494,-4.4958,-4.4494,-4.3951,-4.3574,-4.3468,-4.3253,-4.2999,-4.3034,-4.3034,-4.3124,-4.3124,-4.3124,-4.3213,-4.3303,-4.3499,-4.3224,-4.2784,-4.2436,-4.1996,-4.1629,-4.139,-4.1372,-4.1702,-4.2061,-4.251,-4.2296,-4.1279,-4.0396,-3.9692,-3.8827,-3.7848,-3.6977,-3.6088,-3.521,-3.4798,-3.42,-3.3814,-3.3414,-3.2611,-3.1819,-3.1214,-3.0619,-3.0279,-3.0141,-2.996,-2.9707,-2.9441,-2.9188,-2.8946,-2.8765,-2.862,-2.862,-2.862,-2.862,-2.862,-2.862,-2.862,-2.862,-2.862,-2.862,-2.862,-2.862,-2.862,-2.862,-2.862,-2.862,-2.862,-2.862,-2.862,-2.862,-2.862,-2.8632,-2.8693,-2.8753,-2.9043,-2.926,-4.1647,-4.2106,-4.2876,-4.3334,-4.3481,-4.3481,-4.3481,-4.3481,-4.3481,-4.3481,-4.3481,-4.3518,-4.3719,-4.405,-4.4325,-4.4545,-4.46,-4.4691,-4.449,-4.4178,-4.3884,-4.3701,-4.3554,-4.3481,-4.3481,-4.3481,-4.3481,-4.3481,-4.3481,-4.3481,-4.3518,-4.3628,-4.4233,-4.4691,-4.4783,-4.5425,-4.5883,-4.5883,-4.5883,-4.5604,-4.5176,-4.4595,-4.4214,-4.4179,-4.3832,-4.3591,-4.3481,-4.3481,-4.3499,-4.3499,-4.3392,-4.3392,-4.3481,-4.3481,-4.3261,-4.2876,-4.2491,-4.2106,-4.1721,-4.139,-4.1207,-4.1519,-4.2032,-4.2557,-4.3269,-4.2464,-4.2568,-4.1852,-4.0916,-3.9883,-3.8909,-3.8029,-3.6765,-3.5975,-3.4997,-3.4313,-3.3514,-3.2511,-3.1907,-3.1517,-3.0886,-3.0117,-3.0008,-2.9743,-2.9489,-2.9236,-2.9006,-2.8874,-2.8705,-2.862,-2.862,-2.862,-2.862,-2.862,-2.862,-2.862,-2.862,-2.862,-2.862,-2.862,-2.862,-2.862,-2.862,-2.862,-2.862,-2.862,-2.862,-2.862,-2.862,-2.862,-2.862,-2.8632,-2.8693,-2.8741,-2.891,-4.1317,-4.1776,-4.2546,-4.3059,-4.3408,-4.3481,-4.3481,-4.3481,-4.3481,-4.3481,-4.3481,-4.3481,-4.3719,-4.3903,-4.4086,-4.4288,-4.4398,-4.4343,-4.4141,-4.3921,-4.3664,-4.3573,-4.3536,-4.3481,-4.3481,-4.3481,-4.3481,-4.3481,-4.3481,-4.3481,-4.3536,-4.3664,-4.4123,-4.4673,-4.4911,-4.5388,-4.5883,-4.5847,-4.5773,-4.559,-4.5278,-4.4893,-4.4691,-4.4361,-4.394,-4.3536,-4.3481,-4.3481,-4.3481,-4.3481,-4.3481,-4.3481,-4.3481,-4.3481,-4.3334,-4.3004,-4.2527,-4.2179,-4.1794,-4.1354,-4.1225,-4.1354,-4.1941,-4.2637,-4.3463,-4.3888,-4.4002,-4.3733,-4.2802,-4.1929,-4.0852,-3.9883,-3.8616,-3.716,-3.6088,-3.4612,-3.3614,-3.2511,-3.2008,-3.1706,-3.0912,-3.0133,-2.9827,-2.9562,-2.9284,-2.9031,-2.885,-2.8717,-2.862,-2.862,-2.862,-2.862,-2.862,-2.862,-2.862,-2.862,-2.862,-2.862,-2.862,-2.862,-2.862,-2.862,-2.862,-2.862,-2.862,-2.862,-2.862,-2.862,-2.862,-2.862,-2.862,-2.862,-2.8632,-2.8669,-2.8656,-4.1299,-4.1757,-4.2546,-4.2913,-4.3041,-4.3353,-4.3481,-4.3481,-4.3481,-4.3481,-4.3481,-4.3499,-4.3573,-4.3628,-4.3976,-4.4086,-4.3884,-4.3921,-4.3811,-4.3591,-4.3554,-4.3499,-4.3481,-4.3481,-4.3481,-4.3481,-4.3481,-4.3481,-4.3481,-4.3481,-4.3499,-4.3554,-4.4251,-4.4673,-4.482,-4.5315,-4.5773,-4.5718,-4.5517,-4.5297,-4.5187,-4.4838,-4.449,-4.4141,-4.3756,-4.3554,-4.3481,-4.3481,-4.3481,-4.3481,-4.3481,-4.3481,-4.3481,-4.3481,-4.3389,-4.3188,-4.2711,-4.2344,-4.1959,-4.1482,-4.1317,-4.15,-4.2106,-4.2784,-4.3573,-4.4325,-4.4577,-4.51,-4.4335,-4.3669,-4.2714,-4.1929,-4.0659,-3.8909,-3.7553,-3.5479,-3.3814,-3.2699,-3.1894,-3.1303,-3.0487,-2.9988,-2.9731,-2.9441,-2.9139,-2.8922,-2.8777,-2.8656,-2.862,-2.862,-2.862,-2.862,-2.862,-2.862,-2.862,-2.862,-2.862,-2.862,-2.862,-2.862,-2.862,-2.862,-2.862,-2.862,-2.862,-2.862,-2.862,-2.862,-2.862,-2.862,-2.862,-2.862,-2.862,-2.862,-2.862]},{"header":{"parameterUnit":"m.s-1","parameterCategory":1,"la1":31.0,"la2":29.5877,"lo1":-88.7671,"lo2":-86.6584,"dx":0.0162,"dy":0.0185,"nx":115,"ny":88,"refTime":"2022-11-23T18:00:00:Z","depth":0,"parameterNumber":3,"parameterNumberName":"V-component_of_WINDS"},"data":[0.0,0.0,0.0,0.0,0.0,0.0,0.0,0.0,0.0,0.0,0.0,0.0,0.0,0.0,0.0,0.0,0.0,0.0,0.0,0.0,0.0,0.0,0.0,0.0,0.0,0.0,0.0,0.0,0.0,0.0,0.0,0.0,0.0,0.0,0.0,0.0,0.0,0.0,0.0,0.0,0.0,0.0,0.0,0.0,0.0,0.0,0.0,0.0,0.0,0.0,0.0,0.0,0.0,0.0,0.0,0.0,0.0,0.0,0.0,0.0,0.0,0.0,0.0,0.0,0.0,0.0,0.0,0.0,0.0,0.0,0.0,0.0,0.0,0.0,0.0,0.0,0.0,0.0,0.0,0.0,0.0,0.0,0.0,0.0,0.0,0.0,0.0,0.0,0.0,0.0,0.0,0.0,0.0,0.0,0.0,0.0,0.0,0.0,0.0,0.0,0.0,0.0,0.0,0.0,0.0,0.0,0.0,0.0,0.0,0.0,0.0,0.0,0.0,0.0,0.0,0.0,0.0,0.0,0.0,0.0,0.0,0.0,0.0,0.0,0.0,0.0,0.0,0.0,0.0,0.0,0.0,0.0,0.0,0.0,0.0,0.0,0.0,0.0,0.0,0.0,0.0,0.0,0.0,0.0,0.0,0.0,0.0,0.0,0.0,0.0,0.0,0.0,0.0,0.0,0.0,0.0,0.0,0.0,0.0,0.0,0.0,0.0,0.0,0.0,0.0,0.0,0.0,0.0,0.0,0.0,0.0,0.0,0.0,0.0,0.0,0.0,0.0,0.0,0.0,0.0,0.0,0.0,0.0,0.0,0.0,0.0,0.0,0.0,0.0,0.0,0.0,0.0,0.0,0.0,0.0,0.0,0.0,0.0,0.0,0.0,0.0,0.0,0.0,0.0,0.0,0.0,0.0,0.0,0.0,0.0,0.0,0.0,0.0,0.0,0.0,0.0,0.0,0.0,0.0,0.0,0.0,0.0,0.0,0.0,0.0,0.0,0.0,0.0,0.0,0.0,0.0,0.0,0.0,0.0,0.0,0.0,0.0,0.0,0.0,0.0,0.0,0.0,0.0,0.0,0.0,0.0,0.0,0.0,0.0,0.0,0.0,0.0,0.0,0.0,0.0,0.0,0.0,0.0,0.0,0.0,0.0,0.0,0.0,0.0,0.0,0.0,0.0,0.0,0.0,0.0,0.0,0.0,0.0,0.0,0.0,0.0,0.0,0.0,0.0,0.0,0.0,0.0,0.0,0.0,0.0,0.0,0.0,0.0,0.0,0.0,0.0,0.0,0.0,0.0,0.0,0.0,0.0,0.0,0.0,0.0,0.0,0.0,0.0,0.0,0.0,0.0,0.0,0.0,0.0,0.0,0.0,0.0,0.0,0.0,0.0,0.0,0.0,0.0,0.0,0.0,0.0,0.0,0.0,0.0,0.0,0.0,0.0,0.0,0.0,0.0,0.0,0.0,0.0,0.0,0.0,0.0,0.0,0.0,0.0,0.0,0.0,0.0,0.0,0.0,0.0,0.0,0.0,0.0,0.0,0.0,0.0,0.0,0.0,0.0,0.0,0.0,0.0,0.0,0.0,0.0,0.0,0.0,0.0,0.0,0.0,0.0,0.0,0.0,0.0,0.0,0.0,0.0,0.0,0.0,0.0,0.0,0.0,0.0,0.0,0.0,0.0,0.0,0.0,0.0,0.0,0.0,0.0,0.0,0.0,0.0,0.0,0.0,0.0,0.0,0.0,0.0,0.0,0.0,0.0,0.0,0.0,0.0,0.0,0.0,0.0,0.0,0.0,0.0,0.0,0.0,0.0,0.0,0.0,0.0,0.0,0.0,0.0,0.0,0.0,0.0,0.0,0.0,0.0,0.0,0.0,0.0,0.0,0.0,0.0,0.0,0.0,0.0,0.0,0.0,0.0,0.0,0.0,0.0,0.0,0.0,0.0,0.0,0.0,0.0,0.0,0.0,0.0,0.0,0.0,0.0,0.0,0.0,0.0,0.0,0.0,0.0,0.0,0.0,0.0,0.0,0.0,0.0,0.0,0.0,0.0,0.0,0.0,0.0,0.0,0.0,0.0,0.0,0.0,0.0,0.0,0.0,0.0,0.0,0.0,0.0,0.0,0.0,0.0,0.0,0.0,0.0,0.0,0.0,0.0,0.0,0.0,0.0,0.0,0.0,0.0,0.0,0.0,0.0,0.0,0.0,0.0,0.0,0.0,0.0,0.0,0.0,0.0,0.0,0.0,0.0,0.0,0.0,0.0,0.0,0.0,0.0,0.0,0.0,0.0,0.0,0.0,0.0,0.0,0.0,0.0,0.0,0.0,0.0,0.0,0.0,0.0,0.0,0.0,0.0,0.0,0.0,0.0,0.0,0.0,0.0,0.0,0.0,0.0,0.0,0.0,0.0,0.0,0.0,0.0,0.0,0.0,0.0,0.0,0.0,0.0,0.0,0.0,0.0,0.0,0.0,0.0,0.0,0.0,0.0,0.0,0.0,0.0,0.0,0.0,0.0,0.0,0.0,0.0,0.0,0.0,0.0,0.0,0.0,0.0,0.0,0.0,0.0,0.0,0.0,0.0,0.0,0.0,0.0,0.0,0.0,0.0,0.0,0.0,0.0,0.0,0.0,0.0,0.0,0.0,0.0,0.0,0.0,0.0,0.0,0.0,0.0,0.0,0.0,0.0,0.0,0.0,0.0,0.0,0.0,0.0,0.0,0.0,0.0,0.0,0.0,0.0,0.0,0.0,0.0,0.0,0.0,0.0,0.0,0.0,0.0,0.0,0.0,0.0,0.0,0.0,0.0,0.0,0.0,0.0,0.0,0.0,0.0,0.0,0.0,0.0,0.0,0.0,0.0,0.0,0.0,0.0,0.0,0.0,0.0,0.0,0.0,0.0,0.0,0.0,0.0,0.0,0.0,0.0,0.0,0.0,0.0,0.0,0.0,0.0,0.0,0.0,0.0,0.0,0.0,0.0,0.0,0.0,0.0,0.0,0.0,0.0,0.0,0.0,0.0,0.0,0.0,0.0,0.0,0.0,0.0,0.0,0.0,0.0,0.0,0.0,0.0,0.0,0.0,0.0,0.0,0.0,0.0,0.0,0.0,0.0,0.0,0.0,0.0,0.0,0.0,0.0,0.0,0.0,0.0,0.0,0.0,0.0,0.0,0.0,0.0,0.0,0.0,0.0,0.0,0.0,0.0,0.0,0.0,0.0,0.0,0.0,0.0,0.0,0.0,0.0,0.0,0.0,0.0,0.0,0.0,0.0,0.0,0.0,0.0,0.0,0.0,0.0,0.0,0.0,0.0,0.0,0.0,0.0,0.0,0.0,0.0,0.0,0.0,0.0,0.0,0.0,0.0,0.0,0.0,0.0,0.0,0.0,0.0,0.0,0.0,0.0,0.0,0.0,0.0,0.0,0.0,0.0,0.0,0.0,0.0,0.0,0.0,0.0,0.0,0.0,0.0,0.0,0.0,0.0,0.0,0.0,0.0,0.0,0.0,0.0,0.0,0.0,0.0,0.0,0.0,0.0,0.0,0.0,0.0,0.0,0.0,0.0,0.0,0.0,0.0,0.0,0.0,0.0,0.0,0.0,0.0,0.0,0.0,0.0,0.0,0.0,0.0,0.0,0.0,0.0,0.0,0.0,0.0,0.0,0.0,0.0,0.0,0.0,0.0,0.0,0.0,0.0,0.0,0.0,0.0,0.0,0.0,0.0,0.0,0.0,0.0,0.0,0.0,0.0,0.0,0.0,0.0,0.0,0.0,0.0,0.0,0.0,0.0,0.0,0.0,0.0,0.0,0.0,0.0,0.0,0.0,0.0,0.0,0.0,0.0,0.0,0.0,0.0,0.0,0.0,0.0,0.0,0.0,0.0,0.0,0.0,0.0,0.0,0.0,0.0,0.0,0.0,0.0,0.0,0.0,0.0,0.0,0.0,0.0,0.0,0.0,0.0,0.0,0.0,0.0,0.0,0.0,0.0,0.0,0.0,0.0,0.0,0.0,0.0,0.0,0.0,0.0,0.0,0.0,0.0,0.0,0.0,0.0,0.0,0.0,0.0,0.0,0.0,0.0,0.0,0.0,0.0,0.0,0.0,0.0,0.0,0.0,0.0,0.0,0.0,0.0,0.0,0.0,0.0,0.0,0.0,0.0,0.0,0.0,0.0,0.0,0.0,0.0,0.0,0.0,0.0,0.0,0.0,0.0,0.0,0.0,0.0,0.0,0.0,0.0,0.0,0.0,3.0543,0.0,0.0,0.0,3.0403,0.0,0.0,0.0,0.0,0.0,0.0,0.0,0.0,0.0,0.0,0.0,0.0,0.0,0.0,0.0,0.0,0.0,0.0,0.0,0.0,0.0,0.0,0.0,0.0,0.0,0.0,0.0,0.0,0.0,0.0,0.0,0.0,0.0,0.0,0.0,0.0,0.0,0.0,0.0,0.0,0.0,0.0,0.0,0.0,0.0,0.0,0.0,0.0,0.0,0.0,0.0,0.0,0.0,0.0,0.0,0.0,0.0,0.0,0.0,0.0,0.0,0.0,0.0,0.0,0.0,0.0,0.0,0.0,0.0,0.0,0.0,0.0,0.0,0.0,0.0,0.0,0.0,0.0,0.0,0.0,0.0,0.0,0.0,0.0,0.0,0.0,0.0,0.0,0.0,0.0,0.0,0.0,0.0,0.0,0.0,0.0,0.0,0.0,0.0,0.0,0.0,0.0,0.0,0.0,0.0,0.0,0.0,0.0,0.0,0.0,3.1819,3.1791,3.1811,3.1788,3.1755,0.0,0.0,0.0,0.0,0.0,0.0,0.0,0.0,0.0,0.0,0.0,0.0,0.0,0.0,0.0,0.0,0.0,0.0,0.0,0.0,0.0,0.0,0.0,0.0,0.0,0.0,0.0,0.0,0.0,0.0,0.0,0.0,0.0,0.0,0.0,0.0,0.0,0.0,0.0,0.0,0.0,0.0,0.0,0.0,0.0,0.0,0.0,0.0,0.0,0.0,0.0,0.0,0.0,0.0,0.0,0.0,0.0,0.0,0.0,0.0,0.0,0.0,0.0,0.0,0.0,0.0,0.0,0.0,0.0,0.0,0.0,0.0,0.0,0.0,0.0,0.0,0.0,0.0,0.0,0.0,0.0,0.0,0.0,0.0,0.0,0.0,0.0,0.0,0.0,0.0,0.0,0.0,0.0,0.0,0.0,0.0,0.0,0.0,0.0,0.0,0.0,0.0,0.0,0.0,0.0,0.0,0.0,0.0,0.0,0.0,0.0,0.0,3.3332,3.337,3.3179,0.0,0.0,0.0,0.0,0.0,0.0,0.0,0.0,0.0,0.0,0.0,0.0,0.0,0.0,0.0,0.0,0.0,0.0,0.0,0.0,0.0,0.0,0.0,0.0,0.0,0.0,0.0,0.0,0.0,0.0,0.0,0.0,0.0,0.0,0.0,0.0,0.0,0.0,0.0,0.0,0.0,0.0,0.0,0.0,0.0,0.0,0.0,0.0,0.0,0.0,0.0,0.0,0.0,0.0,0.0,0.0,0.0,0.0,0.0,0.0,0.0,0.0,0.0,0.0,0.0,0.0,0.0,0.0,0.0,0.0,0.0,0.0,0.0,0.0,0.0,0.0,0.0,0.0,0.0,0.0,0.0,0.0,0.0,0.0,0.0,0.0,0.0,0.0,0.0,0.0,0.0,0.0,0.0,0.0,0.0,0.0,0.0,0.0,0.0,0.0,0.0,0.0,0.0,0.0,0.0,0.0,0.0,0.0,0.0,0.0,3.3929,3.4012,3.4687,0.0,3.4054,0.0,0.0,0.0,0.0,0.0,0.0,0.0,0.0,0.0,0.0,0.0,0.0,0.0,0.0,0.0,0.0,0.0,0.0,0.0,0.0,0.0,0.0,0.0,0.0,0.0,0.0,0.0,0.0,0.0,0.0,0.0,0.0,0.0,0.0,0.0,0.0,0.0,0.0,0.0,0.0,0.0,0.0,0.0,0.0,0.0,0.0,0.0,0.0,0.0,0.0,0.0,0.0,0.0,0.0,0.0,0.0,0.0,0.0,0.0,0.0,0.0,0.0,0.0,0.0,0.0,0.0,0.0,0.0,0.0,0.0,0.0,0.0,0.0,0.0,0.0,0.0,0.0,0.0,0.0,0.0,0.0,0.0,0.0,0.0,0.0,0.0,0.0,0.0,0.0,0.0,0.0,0.0,0.0,0.0,0.0,0.0,0.0,0.0,0.0,0.0,0.0,0.0,0.0,0.0,0.0,0.0,0.0,0.0,0.0,0.0,3.5712,3.6225,3.6594,3.6388,0.0,0.0,0.0,0.0,0.0,0.0,0.0,0.0,0.0,0.0,0.0,0.0,0.0,0.0,0.0,0.0,0.0,0.0,0.0,0.0,0.0,0.0,0.0,0.0,0.0,0.0,0.0,0.0,0.0,0.0,0.0,0.0,0.0,0.0,0.0,0.0,0.0,0.0,0.0,0.0,0.0,0.0,0.0,0.0,0.0,0.0,0.0,0.0,0.0,0.0,0.0,0.0,0.0,0.0,0.0,0.0,0.0,0.0,0.0,0.0,0.0,0.0,0.0,0.0,0.0,0.0,0.0,0.0,0.0,0.0,0.0,0.0,0.0,0.0,0.0,0.0,0.0,0.0,0.0,0.0,0.0,0.0,0.0,0.0,0.0,0.0,0.0,0.0,0.0,0.0,0.0,0.0,0.0,0.0,0.0,0.0,0.0,0.0,0.0,0.0,0.0,0.0,0.0,0.0,0.0,0.0,0.0,0.0,0.0,0.0,3.6226,3.6863,3.7674,3.7747,3.7343,3.6526,0.0,0.0,0.0,0.0,0.0,0.0,0.0,0.0,0.0,0.0,0.0,0.0,0.0,0.0,0.0,0.0,0.0,0.0,0.0,0.0,0.0,0.0,0.0,0.0,0.0,0.0,0.0,0.0,0.0,0.0,0.0,0.0,0.0,0.0,0.0,0.0,0.0,0.0,0.0,0.0,0.0,0.0,0.0,0.0,0.0,0.0,0.0,0.0,0.0,0.0,0.0,0.0,0.0,0.0,0.0,0.0,0.0,0.0,0.0,0.0,0.0,0.0,0.0,0.0,0.0,0.0,0.0,0.0,0.0,0.0,0.0,0.0,0.0,0.0,0.0,0.0,0.0,0.0,0.0,0.0,0.0,0.0,0.0,0.0,0.0,0.0,0.0,0.0,0.0,0.0,0.0,0.0,0.0,0.0,0.0,0.0,0.0,0.0,0.0,0.0,0.0,0.0,0.0,0.0,0.0,0.0,0.0,0.0,3.4132,3.57,3.6901,3.7674,3.7712,3.7318,0.0,0.0,0.0,0.0,0.0,0.0,0.0,0.0,0.0,0.0,0.0,0.0,0.0,0.0,0.0,0.0,0.0,0.0,0.0,0.0,0.0,0.0,0.0,0.0,0.0,0.0,0.0,0.0,0.0,0.0,0.0,0.0,0.0,0.0,0.0,0.0,0.0,0.0,0.0,0.0,0.0,0.0,0.0,0.0,0.0,0.0,0.0,0.0,0.0,0.0,0.0,0.0,0.0,0.0,0.0,0.0,0.0,0.0,0.0,0.0,0.0,0.0,0.0,0.0,0.0,0.0,0.0,0.0,0.0,0.0,0.0,0.0,0.0,0.0,0.0,0.0,0.0,0.0,0.0,0.0,0.0,0.0,0.0,0.0,0.0,0.0,0.0,0.0,0.0,0.0,0.0,0.0,0.0,0.0,0.0,0.0,0.0,0.0,0.0,0.0,0.0,0.0,0.0,0.0,0.0,0.0,0.0,0.0,0.0,3.5511,3.7735,3.8773,3.8553,3.8553,3.7912,0.0,0.0,0.0,0.0,0.0,0.0,0.0,0.0,0.0,0.0,0.0,0.0,0.0,0.0,0.0,0.0,0.0,0.0,0.0,0.0,0.0,0.0,0.0,0.0,0.0,0.0,0.0,0.0,0.0,0.0,0.0,0.0,0.0,0.0,0.0,0.0,0.0,0.0,0.0,0.0,0.0,0.0,0.0,0.0,0.0,0.0,0.0,0.0,0.0,0.0,0.0,0.0,0.0,0.0,0.0,0.0,0.0,0.0,0.0,0.0,0.0,0.0,0.0,0.0,0.0,0.0,0.0,0.0,0.0,0.0,0.0,0.0,0.0,0.0,0.0,0.0,0.0,0.0,0.0,0.0,0.0,0.0,0.0,0.0,0.0,0.0,0.0,0.0,0.0,0.0,0.0,0.0,0.0,0.0,0.0,0.0,0.0,0.0,0.0,0.0,0.0,0.0,0.0,0.0,0.0,0.0,0.0,0.0,0.0,3.6729,3.8765,3.9584,3.9011,3.8706,3.7941,0.0,0.0,0.0,0.0,0.0,0.0,0.0,0.0,0.0,0.0,0.0,0.0,0.0,0.0,0.0,0.0,0.0,0.0,0.0,0.0,0.0,0.0,0.0,0.0,0.0,0.0,0.0,0.0,0.0,0.0,0.0,0.0,0.0,0.0,0.0,0.0,0.0,0.0,0.0,0.0,0.0,0.0,0.0,0.0,0.0,0.0,0.0,0.0,0.0,0.0,0.0,0.0,0.0,0.0,0.0,0.0,0.0,0.0,0.0,0.0,0.0,0.0,0.0,0.0,0.0,0.0,0.0,0.0,0.0,0.0,0.0,0.0,0.0,0.0,0.0,0.0,0.0,0.0,0.0,0.0,0.0,0.0,0.0,0.0,0.0,0.0,0.0,0.0,0.0,0.0,0.0,0.0,0.0,0.0,0.0,0.0,0.0,0.0,0.0,0.0,0.0,0.0,0.0,0.0,0.0,0.0,0.0,0.0,3.5096,3.7641,3.8678,3.9279,3.9049,3.8285,3.7406,0.0,0.0,0.0,0.0,0.0,0.0,0.0,0.0,0.0,0.0,0.0,0.0,0.0,0.0,0.0,0.0,0.0,0.0,0.0,0.0,0.0,0.0,0.0,0.0,0.0,0.0,0.0,0.0,0.0,0.0,0.0,0.0,0.0,0.0,0.0,0.0,0.0,0.0,0.0,0.0,0.0,0.0,0.0,0.0,0.0,0.0,0.0,0.0,0.0,0.0,0.0,0.0,0.0,0.0,0.0,0.0,0.0,0.0,0.0,0.0,0.0,0.0,0.0,0.0,0.0,0.0,0.0,0.0,0.0,0.0,0.0,0.0,0.0,0.0,0.0,0.0,0.0,0.0,0.0,0.0,0.0,0.0,0.0,0.0,0.0,0.0,0.0,0.0,0.0,0.0,0.0,0.0,0.0,0.0,0.0,0.0,0.0,0.0,0.0,0.0,0.0,0.0,0.0,0.0,0.0,0.0,0.0,0.0,0.0,4.0072,4.1604,4.2133,4.16,4.0234,3.882,0.0,0.0,0.0,0.0,0.0,0.0,0.0,0.0,0.0,0.0,0.0,0.0,0.0,0.0,0.0,0.0,0.0,0.0,0.0,0.0,0.0,0.0,0.0,0.0,0.0,0.0,0.0,0.0,0.0,0.0,0.0,0.0,0.0,0.0,0.0,0.0,0.0,0.0,0.0,0.0,0.0,0.0,0.0,0.0,0.0,0.0,0.0,0.0,0.0,0.0,0.0,0.0,0.0,0.0,0.0,0.0,0.0,0.0,0.0,0.0,0.0,0.0,0.0,0.0,0.0,0.0,0.0,0.0,0.0,0.0,0.0,0.0,0.0,0.0,0.0,0.0,0.0,0.0,0.0,0.0,0.0,0.0,0.0,0.0,0.0,0.0,0.0,0.0,0.0,0.0,0.0,0.0,0.0,0.0,0.0,0.0,0.0,0.0,0.0,0.0,0.0,0.0,0.0,0.0,0.0,0.0,0.0,0.0,0.0,4.427,4.4673,4.4804,4.4697,4.2422,4.0434,3.8703,0.0,0.0,0.0,0.0,0.0,0.0,0.0,0.0,0.0,0.0,0.0,0.0,0.0,0.0,0.0,0.0,0.0,0.0,0.0,0.0,0.0,0.0,0.0,0.0,0.0,0.0,0.0,0.0,0.0,0.0,0.0,0.0,0.0,0.0,0.0,0.0,0.0,0.0,0.0,0.0,0.0,0.0,0.0,0.0,0.0,0.0,0.0,0.0,0.0,0.0,0.0,0.0,0.0,0.0,0.0,0.0,0.0,0.0,0.0,0.0,0.0,0.0,0.0,0.0,0.0,0.0,0.0,0.0,0.0,0.0,0.0,0.0,0.0,0.0,0.0,0.0,0.0,0.0,0.0,0.0,0.0,0.0,0.0,0.0,0.0,0.0,0.0,0.0,0.0,0.0,0.0,0.0,0.0,0.0,0.0,0.0,0.0,0.0,0.0,0.0,0.0,0.0,0.0,0.0,0.0,0.0,0.0,0.0,4.9966,4.8021,4.7395,4.8077,4.4898,4.2298,0.0,0.0,0.0,0.0,0.0,0.0,0.0,0.0,0.0,0.0,0.0,0.0,0.0,0.0,0.0,0.0,0.0,0.0,0.0,0.0,0.0,0.0,0.0,0.0,0.0,0.0,0.0,0.0,0.0,0.0,0.0,0.0,0.0,0.0,0.0,0.0,0.0,0.0,0.0,0.0,0.0,0.0,0.0,0.0,0.0,0.0,0.0,0.0,0.0,0.0,0.0,0.0,0.0,0.0,0.0,0.0,0.0,0.0,0.0,0.0,0.0,0.0,0.0,0.0,0.0,0.0,0.0,0.0,0.0,0.0,0.0,0.0,0.0,0.0,0.0,0.0,0.0,0.0,0.0,0.0,0.0,0.0,0.0,0.0,0.0,0.0,0.0,0.0,0.0,0.0,0.0,0.0,0.0,0.0,0.0,0.0,0.0,0.0,0.0,0.0,0.0,0.0,0.0,0.0,0.0,0.0,0.0,0.0,0.0,5.2637,5.3518,5.3185,5.161,4.8388,4.5524,0.0,0.0,0.0,0.0,0.0,0.0,0.0,0.0,0.0,0.0,0.0,0.0,0.0,0.0,0.0,0.0,0.0,0.0,0.0,0.0,0.0,0.0,0.0,0.0,0.0,0.0,0.0,0.0,0.0,0.0,0.0,0.0,0.0,0.0,0.0,0.0,0.0,0.0,0.0,0.0,0.0,0.0,0.0,0.0,0.0,0.0,0.0,0.0,0.0,0.0,0.0,0.0,0.0,0.0,0.0,0.0,0.0,0.0,0.0,0.0,0.0,0.0,0.0,0.0,0.0,0.0,0.0,0.0,0.0,0.0,0.0,0.0,0.0,0.0,0.0,0.0,0.0,0.0,0.0,0.0,0.0,0.0,0.0,0.0,0.0,0.0,0.0,0.0,0.0,0.0,0.0,0.0,0.0,0.0,0.0,0.0,0.0,0.0,0.0,0.0,0.0,0.0,0.0,0.0,0.0,0.0,0.0,0.0,5.1361,5.4818,5.6712,5.6996,5.5617,5.1678,4.821,0.0,0.0,0.0,0.0,0.0,0.0,0.0,0.0,0.0,0.0,0.0,0.0,0.0,0.0,0.0,0.0,0.0,0.0,0.0,0.0,0.0,0.0,0.0,0.0,0.0,0.0,0.0,0.0,0.0,0.0,0.0,0.0,0.0,0.0,0.0,0.0,0.0,0.0,0.0,0.0,0.0,0.0,0.0,0.0,0.0,0.0,0.0,0.0,0.0,0.0,0.0,0.0,0.0,0.0,0.0,0.0,0.0,0.0,0.0,0.0,0.0,0.0,0.0,0.0,0.0,0.0,0.0,0.0,0.0,0.0,0.0,0.0,0.0,0.0,0.0,0.0,0.0,0.0,0.0,0.0,0.0,0.0,0.0,0.0,0.0,0.0,0.0,0.0,0.0,0.0,0.0,0.0,0.0,0.0,0.0,0.0,0.0,0.0,0.0,0.0,0.0,0.0,0.0,0.0,0.0,0.0,0.0,0.0,5.3158,5.6501,5.8339,5.9305,5.9294,5.4718,5.0619,0.0,0.0,0.0,0.0,0.0,0.0,0.0,0.0,0.0,0.0,0.0,0.0,0.0,0.0,0.0,0.0,0.0,0.0,0.0,0.0,0.0,0.0,0.0,0.0,0.0,0.0,0.0,0.0,0.0,0.0,0.0,0.0,0.0,0.0,0.0,0.0,0.0,0.0,0.0,0.0,0.0,0.0,0.0,0.0,0.0,0.0,0.0,0.0,0.0,0.0,0.0,0.0,0.0,0.0,0.0,0.0,0.0,0.0,0.0,0.0,0.0,0.0,0.0,0.0,0.0,0.0,0.0,0.0,0.0,0.0,0.0,0.0,0.0,0.0,0.0,0.0,0.0,0.0,0.0,0.0,0.0,0.0,0.0,0.0,0.0,0.0,0.0,0.0,0.0,0.0,0.0,0.0,0.0,0.0,0.0,0.0,0.0,0.0,0.0,0.0,0.0,0.0,0.0,0.0,0.0,0.0,0.0,0.0,5.5635,5.8429,5.9609,6.0212,6.0225,5.6724,5.3223,0.0,0.0,0.0,0.0,0.0,0.0,0.0,0.0,0.0,0.0,0.0,0.0,0.0,0.0,0.0,0.0,0.0,0.0,0.0,0.0,0.0,0.0,0.0,0.0,0.0,0.0,0.0,0.0,0.0,0.0,0.0,0.0,0.0,0.0,0.0,0.0,0.0,0.0,0.0,0.0,0.0,0.0,0.0,0.0,0.0,0.0,0.0,0.0,3.8203,0.0,0.0,0.0,0.0,0.0,0.0,0.0,0.0,0.0,0.0,0.0,0.0,0.0,0.0,0.0,0.0,0.0,0.0,0.0,0.0,0.0,0.0,0.0,0.0,0.0,0.0,0.0,0.0,0.0,0.0,0.0,0.0,0.0,0.0,0.0,0.0,0.0,0.0,0.0,0.0,0.0,0.0,0.0,0.0,0.0,0.0,0.0,0.0,0.0,0.0,0.0,0.0,0.0,0.0,0.0,0.0,0.0,0.0,0.0,5.7201,5.9015,6.036,6.0822,6.0441,5.808,5.5005,0.0,0.0,0.0,0.0,0.0,0.0,0.0,0.0,0.0,0.0,0.0,0.0,0.0,0.0,0.0,0.0,0.0,0.0,0.0,0.0,0.0,0.0,0.0,0.0,0.0,0.0,0.0,0.0,0.0,0.0,0.0,0.0,0.0,0.0,0.0,0.0,0.0,0.0,0.0,0.0,0.0,0.0,0.0,0.0,0.0,0.0,0.0,0.0,0.0,0.0,0.0,0.0,0.0,0.0,0.0,0.0,0.0,0.0,0.0,0.0,0.0,0.0,0.0,0.0,0.0,0.0,0.0,0.0,0.0,0.0,0.0,0.0,0.0,0.0,0.0,0.0,0.0,0.0,0.0,0.0,0.0,0.0,0.0,0.0,0.0,0.0,0.0,0.0,0.0,0.0,0.0,0.0,0.0,0.0,0.0,0.0,0.0,0.0,0.0,0.0,0.0,0.0,0.0,0.0,0.0,0.0,0.0,5.5351,5.8487,5.9602,6.0943,6.1329,6.0671,5.9013,5.6199,5.2088,0.0,0.0,0.0,0.0,0.0,0.0,0.0,0.0,0.0,0.0,0.0,0.0,0.0,0.0,0.0,0.0,0.0,0.0,0.0,0.0,0.0,0.0,0.0,0.0,0.0,0.0,0.0,0.0,0.0,0.0,0.0,0.0,0.0,0.0,0.0,0.0,0.0,0.0,3.8925,4.211,0.0,0.0,0.0,0.0,0.0,0.0,0.0,0.0,4.1992,0.0,0.0,0.0,0.0,0.0,0.0,0.0,0.0,0.0,0.0,0.0,0.0,0.0,0.0,0.0,0.0,0.0,0.0,0.0,0.0,0.0,0.0,0.0,0.0,0.0,0.0,0.0,0.0,0.0,0.0,0.0,0.0,0.0,0.0,0.0,0.0,0.0,0.0,0.0,0.0,0.0,0.0,0.0,0.0,0.0,0.0,0.0,0.0,0.0,0.0,0.0,0.0,0.0,0.0,0.0,0.0,5.3264,5.6992,6.0005,6.2347,6.1986,6.1704,6.1527,5.932,5.6443,5.2877,0.0,0.0,0.0,0.0,0.0,0.0,0.0,0.0,0.0,0.0,0.0,0.0,0.0,0.0,0.0,0.0,0.0,0.0,0.0,0.0,0.0,0.0,0.0,0.0,0.0,0.0,0.0,0.0,0.0,0.0,0.0,0.0,0.0,0.0,0.0,0.0,0.0,0.0,0.0,4.5216,4.6633,0.0,0.0,0.0,0.0,0.0,0.0,0.0,0.0,4.2617,0.0,0.0,0.0,0.0,0.0,0.0,0.0,0.0,0.0,0.0,0.0,0.0,0.0,0.0,0.0,0.0,0.0,0.0,0.0,0.0,0.0,0.0,0.0,0.0,0.0,0.0,0.0,0.0,0.0,0.0,0.0,0.0,0.0,0.0,0.0,0.0,0.0,0.0,0.0,0.0,0.0,0.0,0.0,0.0,0.0,0.0,0.0,0.0,0.0,0.0,0.0,0.0,0.0,0.0,0.0,5.4482,5.8797,6.1712,6.3077,6.3548,6.3152,6.1887,5.9881,5.6951,0.0,0.0,0.0,0.0,0.0,0.0,0.0,0.0,0.0,0.0,0.0,0.0,0.0,0.0,0.0,0.0,0.0,0.0,0.0,0.0,0.0,0.0,0.0,0.0,0.0,0.0,0.0,0.0,0.0,0.0,0.0,0.0,0.0,0.0,0.0,0.0,0.0,0.0,0.0,0.0,4.7525,4.8743,4.8358,0.0,0.0,0.0,0.0,0.0,0.0,4.5195,4.4844,0.0,0.0,0.0,0.0,0.0,0.0,0.0,0.0,0.0,0.0,0.0,0.0,0.0,0.0,0.0,0.0,0.0,0.0,0.0,0.0,0.0,0.0,0.0,0.0,0.0,0.0,0.0,0.0,0.0,0.0,0.0,0.0,0.0,0.0,0.0,0.0,0.0,0.0,0.0,0.0,0.0,0.0,0.0,0.0,0.0,0.0,0.0,0.0,0.0,0.0,0.0,0.0,0.0,0.0,0.0,5.5503,6.0523,6.337,6.3896,6.5022,6.46,6.2452,6.0468,5.7574,0.0,0.0,0.0,0.0,0.0,0.0,0.0,0.0,0.0,0.0,0.0,0.0,0.0,0.0,0.0,0.0,0.0,0.0,0.0,0.0,0.0,0.0,0.0,0.0,0.0,0.0,0.0,0.0,0.0,0.0,0.0,0.0,0.0,0.0,0.0,0.0,0.0,0.0,0.0,0.0,0.0,5.0735,5.0934,5.0389,0.0,0.0,0.0,0.0,4.8164,4.8281,0.0,0.0,0.0,0.0,0.0,0.0,0.0,0.0,0.0,0.0,0.0,0.0,0.0,0.0,0.0,0.0,0.0,0.0,0.0,0.0,0.0,0.0,0.0,0.0,0.0,0.0,0.0,0.0,0.0,0.0,0.0,0.0,0.0,0.0,0.0,0.0,0.0,0.0,0.0,0.0,0.0,0.0,0.0,0.0,0.0,0.0,0.0,0.0,0.0,0.0,0.0,0.0,0.0,0.0,0.0,0.0,5.7139,6.1769,6.49,6.6419,6.6062,6.5256,6.418,6.1069,5.8112,0.0,0.0,0.0,0.0,0.0,0.0,0.0,0.0,0.0,0.0,0.0,0.0,0.0,0.0,0.0,0.0,0.0,0.0,0.0,0.0,0.0,0.0,0.0,0.0,0.0,0.0,0.0,0.0,0.0,0.0,0.0,0.0,0.0,0.0,0.0,0.0,0.0,0.0,0.0,0.0,0.0,5.2683,5.3467,5.3469,5.2533,0.0,0.0,5.16,5.0156,5.0508,0.0,0.0,0.0,0.0,0.0,0.0,0.0,0.0,0.0,0.0,0.0,0.0,0.0,0.0,0.0,0.0,0.0,0.0,0.0,0.0,0.0,0.0,0.0,0.0,0.0,0.0,0.0,0.0,0.0,0.0,0.0,0.0,0.0,0.0,0.0,0.0,0.0,0.0,0.0,0.0,0.0,0.0,0.0,0.0,0.0,0.0,0.0,0.0,0.0,0.0,0.0,0.0,0.0,0.0,0.0,5.3043,5.8775,6.3284,6.626,6.7662,6.7447,6.6628,6.5321,6.2476,5.9285,0.0,0.0,0.0,0.0,0.0,0.0,0.0,0.0,0.0,0.0,0.0,0.0,0.0,0.0,0.0,0.0,0.0,0.0,0.0,0.0,0.0,0.0,0.0,0.0,0.0,0.0,0.0,0.0,0.0,0.0,0.0,0.0,0.0,0.0,0.0,0.0,0.0,0.0,0.0,0.0,0.0,0.0,5.515,5.625,0.0,0.0,0.0,5.6479,5.484,0.0,0.0,0.0,0.0,0.0,0.0,0.0,0.0,0.0,0.0,0.0,0.0,0.0,0.0,0.0,0.0,0.0,0.0,0.0,0.0,0.0,0.0,0.0,0.0,0.0,0.0,0.0,0.0,0.0,0.0,0.0,0.0,0.0,0.0,0.0,0.0,0.0,0.0,0.0,0.0,0.0,0.0,0.0,0.0,0.0,0.0,0.0,0.0,0.0,0.0,0.0,0.0,0.0,0.0,0.0,0.0,0.0,6.0362,6.4818,6.7683,6.8795,6.8932,6.8218,6.6551,6.4051,0.0,0.0,0.0,0.0,0.0,0.0,0.0,0.0,0.0,0.0,0.0,0.0,0.0,0.0,0.0,0.0,0.0,0.0,0.0,0.0,0.0,0.0,0.0,0.0,0.0,0.0,0.0,3.316,0.0,0.0,0.0,0.0,0.0,0.0,0.0,0.0,0.0,0.0,0.0,0.0,0.0,0.0,5.4718,5.7069,5.8878,5.9641,0.0,0.0,6.0528,5.9087,5.8115,5.6437,0.0,0.0,0.0,0.0,0.0,0.0,0.0,0.0,0.0,0.0,0.0,0.0,0.0,0.0,0.0,0.0,0.0,0.0,0.0,0.0,0.0,0.0,0.0,0.0,0.0,0.0,0.0,0.0,0.0,0.0,0.0,0.0,0.0,0.0,0.0,0.0,0.0,0.0,0.0,0.0,0.0,0.0,0.0,0.0,0.0,0.0,0.0,0.0,0.0,0.0,0.0,0.0,0.0,0.0,5.5115,6.1748,6.6415,6.9273,7.0317,7.0546,6.9893,6.8269,6.5782,6.3166,0.0,0.0,0.0,0.0,0.0,0.0,0.0,0.0,0.0,0.0,0.0,0.0,0.0,0.0,0.0,0.0,0.0,0.0,0.0,0.0,0.0,0.0,0.0,0.0,0.0,0.0,0.0,0.0,0.0,0.0,0.0,0.0,0.0,0.0,0.0,0.0,0.0,0.0,0.0,0.0,0.0,5.7898,5.9604,6.1351,6.2177,0.0,6.2155,6.2413,6.1577,6.0712,5.9261,5.6602,0.0,0.0,0.0,0.0,0.0,0.0,0.0,0.0,0.0,0.0,0.0,0.0,0.0,0.0,0.0,0.0,0.0,0.0,0.0,0.0,0.0,0.0,0.0,0.0,0.0,0.0,0.0,0.0,0.0,0.0,0.0,0.0,0.0,0.0,0.0,0.0,0.0,0.0,0.0,0.0,0.0,0.0,0.0,0.0,0.0,0.0,0.0,0.0,0.0,0.0,0.0,0.0,0.0,5.5911,6.2654,6.7237,7.0387,7.1985,7.1773,7.1046,6.9975,6.7975,6.5243,0.0,0.0,0.0,0.0,0.0,0.0,0.0,0.0,0.0,0.0,0.0,0.0,0.0,0.0,0.0,0.0,0.0,0.0,0.0,0.0,0.0,0.0,0.0,0.0,0.0,0.0,0.0,0.0,3.8277,3.8746,3.8507,0.0,0.0,0.0,0.0,0.0,0.0,0.0,0.0,0.0,0.0,5.9746,6.1981,6.4241,0.0,0.0,6.5361,6.5484,6.4138,6.3171,6.1759,5.9148,5.7286,0.0,0.0,0.0,0.0,0.0,0.0,0.0,0.0,0.0,0.0,0.0,0.0,0.0,0.0,0.0,0.0,0.0,0.0,0.0,0.0,0.0,0.0,0.0,0.0,0.0,0.0,0.0,3.6569,0.0,0.0,0.0,0.0,0.0,0.0,0.0,0.0,0.0,0.0,0.0,0.0,0.0,0.0,0.0,0.0,0.0,0.0,0.0,0.0,0.0,0.0,0.0,0.0,5.6703,6.3426,6.8206,7.1557,7.3284,7.3214,7.2639,7.1626,7.0269,6.7782,0.0,0.0,0.0,0.0,0.0,0.0,0.0,0.0,0.0,0.0,0.0,0.0,0.0,0.0,0.0,0.0,0.0,0.0,0.0,0.0,0.0,0.0,0.0,0.0,0.0,0.0,0.0,0.0,4.0046,4.0008,3.8854,0.0,0.0,0.0,0.0,0.0,0.0,0.0,0.0,0.0,0.0,6.2684,6.4541,6.6796,6.7997,6.7221,6.7712,6.7697,6.6283,6.5504,6.4286,6.1985,0.0,0.0,0.0,0.0,0.0,0.0,0.0,0.0,0.0,0.0,0.0,0.0,0.0,0.0,0.0,0.0,0.0,0.0,0.0,0.0,0.0,0.0,0.0,0.0,0.0,0.0,0.0,3.9045,0.0,0.0,3.7856,0.0,0.0,0.0,0.0,0.0,0.0,0.0,0.0,0.0,0.0,0.0,0.0,0.0,0.0,0.0,0.0,0.0,0.0,0.0,0.0,0.0,0.0,5.751,6.4111,6.9484,7.2754,7.3915,7.4948,7.4839,7.3321,7.251,7.0898,6.8205,0.0,0.0,0.0,0.0,0.0,0.0,0.0,0.0,0.0,0.0,0.0,0.0,0.0,0.0,0.0,0.0,0.0,0.0,0.0,0.0,0.0,0.0,0.0,0.0,0.0,0.0,4.2701,4.297,4.2277,0.0,0.0,0.0,0.0,0.0,0.0,0.0,0.0,0.0,5.8946,6.3923,6.7159,6.7248,6.876,6.9634,6.8868,6.8846,6.8644,6.7828,6.7581,6.6997,0.0,0.0,0.0,0.0,0.0,0.0,0.0,0.0,0.0,0.0,0.0,0.0,0.0,0.0,0.0,0.0,0.0,0.0,0.0,0.0,0.0,0.0,0.0,0.0,0.0,0.0,0.0,4.4804,4.4618,0.0,0.0,0.0,0.0,0.0,0.0,0.0,0.0,0.0,0.0,0.0,6.0295,5.9775,0.0,0.0,0.0,0.0,0.0,0.0,0.0,0.0,0.0,0.0,0.0,0.0,5.9721,6.5827,7.1182,7.4708,7.6446,7.697,7.6794,7.5856,7.5086,7.2476,6.7667,0.0,0.0,0.0,0.0,0.0,0.0,0.0,0.0,0.0,0.0,0.0,0.0,0.0,0.0,0.0,0.0,0.0,0.0,0.0,0.0,0.0,0.0,0.0,0.0,0.0,4.3055,0.0,0.0,0.0,0.0,0.0,0.0,0.0,0.0,0.0,0.0,5.4252,5.8995,6.3241,6.7218,6.9887,7.0503,7.1596,7.1877,0.0,0.0,0.0,0.0,0.0,0.0,0.0,0.0,0.0,0.0,0.0,0.0,0.0,6.4599,6.172,5.8096,5.6279,5.531,5.5311,0.0,0.0,0.0,0.0,0.0,0.0,0.0,0.0,0.0,0.0,0.0,0.0,0.0,0.0,5.056,5.0042,4.7961,0.0,0.0,0.0,0.0,0.0,0.0,0.0,0.0,6.2896,6.4693,6.5719,6.5496,6.4642,6.3305,6.193,5.7955,0.0,0.0,0.0,0.0,0.0,0.0,0.0,0.0,6.1888,6.7471,7.2472,7.5872,7.7549,7.8177,7.816,7.7537,7.6532,7.3899,6.9475,6.609,6.2589,0.0,0.0,0.0,0.0,0.0,0.0,0.0,0.0,0.0,0.0,0.0,0.0,0.0,0.0,0.0,0.0,0.0,0.0,0.0,0.0,0.0,0.0,0.0,4.5163,0.0,0.0,0.0,0.0,0.0,0.0,0.0,0.0,0.0,5.5088,5.9165,6.3512,6.7167,7.0283,7.2437,7.2976,0.0,0.0,0.0,0.0,0.0,0.0,0.0,7.1916,7.1633,7.2365,7.2978,7.3082,7.2801,7.2485,7.2249,0.0,0.0,6.5247,6.3219,6.2298,6.234,6.1874,6.1992,6.3633,6.418,6.4961,0.0,0.0,0.0,0.0,5.4447,0.0,0.0,0.0,5.6348,5.6178,0.0,5.3645,0.0,0.0,0.0,0.0,5.4314,5.8326,0.0,0.0,6.832,6.9855,6.993,7.0635,6.9781,6.754,6.6685,6.5385,6.3267,5.5763,5.1379,0.0,0.0,0.0,0.0,0.0,6.3979,6.899,7.3454,7.624,7.7396,7.8618,7.8953,7.8338,7.6886,7.5308,7.3538,7.0269,6.7359,6.4782,6.0704,0.0,0.0,0.0,0.0,0.0,0.0,0.0,0.0,0.0,0.0,0.0,0.0,0.0,0.0,0.0,0.0,0.0,0.0,0.0,0.0,4.7394,0.0,0.0,0.0,0.0,0.0,0.0,0.0,0.0,0.0,6.205,6.1435,6.4743,6.8205,7.0706,0.0,0.0,0.0,0.0,7.6121,7.6139,7.6192,7.5898,7.5117,7.5655,7.595,7.5233,0.0,0.0,7.6594,7.6686,7.6982,7.7807,7.7153,7.5252,7.0516,6.89,6.8305,6.8314,6.824,6.8359,6.8476,6.9062,6.9805,6.7118,0.0,0.0,0.0,0.0,6.2051,6.2429,6.247,6.2508,6.2364,6.2045,6.0338,0.0,0.0,0.0,0.0,0.0,0.0,6.7503,7.014,7.2221,7.3484,7.4041,7.4264,7.3447,7.1663,7.1403,7.014,6.7887,6.5051,6.1113,5.632,0.0,0.0,0.0,0.0,6.768,7.1649,7.5394,7.7923,7.9229,7.9722,7.9722,7.9165,7.8206,7.6924,7.5272,7.3164,7.0591,6.7436,6.4436,0.0,0.0,0.0,0.0,0.0,0.0,0.0,0.0,0.0,0.0,0.0,0.0,0.0,0.0,0.0,0.0,0.0,0.0,0.0,5.2472,5.3818,5.3538,0.0,0.0,0.0,0.0,0.0,0.0,0.0,0.0,0.0,7.0437,7.0706,7.1668,0.0,0.0,7.6784,7.7323,7.8169,7.8477,7.7891,7.8353,0.0,7.7574,7.8175,7.8853,7.9268,8.0574,8.146,8.0963,8.0493,8.0069,7.9763,7.901,7.796,7.6661,7.4745,7.3353,7.284,7.2668,7.2917,7.3547,7.3903,7.4256,7.4078,7.1143,6.8017,6.6777,6.6963,6.7793,6.8234,6.836,6.8435,6.8283,6.784,6.6398,6.5417,6.4733,6.4212,0.0,0.0,0.0,7.1775,7.4179,7.5453,7.6493,7.7236,7.7273,7.6419,7.4922,7.4885,7.3892,7.2109,7.1329,6.8951,6.5013,0.0,6.2576,6.4605,6.7425,7.0757,7.4462,7.6753,7.8606,8.0166,8.0186,7.9896,7.9297,7.8871,7.7888,7.6322,7.5058,7.312,7.0459,6.8269,6.5089,0.0,0.0,0.0,0.0,0.0,0.0,0.0,0.0,0.0,0.0,0.0,4.5124,4.624,0.0,0.0,0.0,5.024,5.3857,5.7396,5.7896,0.0,0.0,0.0,0.0,0.0,0.0,0.0,6.6551,6.9706,7.2706,7.5361,7.5438,7.5668,7.6861,7.7746,7.8592,7.94,0.0,8.0746,8.0516,8.0977,8.1131,8.0631,8.0939,8.1477,8.2016,8.3002,8.362,8.3216,8.2806,8.23,8.1496,8.0678,8.0013,7.9688,7.8159,7.6787,7.6074,7.5663,7.5696,7.6256,7.6616,7.7052,7.9576,7.9131,7.4022,7.1876,7.1947,7.2814,7.3198,7.3335,7.3938,7.3678,7.2833,7.19,7.1144,7.0584,7.0584,0.0,7.1963,7.3264,7.5182,7.7412,7.823,7.8982,7.9688,7.9688,7.8871,7.7385,7.731,7.6827,7.5973,7.523,7.4858,7.4747,6.962,6.7999,7.0004,7.0932,7.3387,7.7303,7.7789,7.8816,8.0454,8.0204,7.9751,7.9036,7.8999,7.8332,7.6985,7.6169,7.5079,7.3522,7.202,6.964,6.6346,0.0,0.0,0.0,0.0,0.0,0.0,0.0,0.0,0.0,0.0,0.0,0.0,0.0,0.0,5.1327,5.5164,0.0,6.1166,6.0742,0.0,0.0,0.0,6.3012,6.382,6.6846,6.9821,7.2245,0.0,0.0,7.7284,7.89,7.9631,7.89,7.9515,8.0323,8.117,8.1977,8.2824,8.3555,8.3824,8.3901,8.3978,8.4055,8.4109,8.4164,8.4119,8.4378,8.4368,8.4234,8.3979,8.3334,8.2277,8.14,8.0609,7.9797,7.901,7.8324,7.7679,7.719,7.7246,7.7805,7.8324,8.0394,8.0282,7.8973,7.7835,7.699,7.7202,7.7354,7.7442,7.7398,7.7255,7.7016,7.6696,7.6553,7.6602,7.6602,7.705,7.7845,7.8004,7.8685,7.9874,8.0728,8.1211,8.136,8.1397,8.084,7.9837,7.9242,7.8499,7.7719,7.7496,7.7422,7.7347,7.601,7.4747,7.3521,7.4896,7.6462,7.8197,7.9615,8.0364,8.0491,8.0481,8.0091,7.9327,7.8836,7.849,7.8252,7.6998,7.59,7.5097,7.4057,7.2011,6.8803,6.6844,0.0,0.0,0.0,0.0,0.0,0.0,0.0,0.0,0.0,5.2664,5.5021,0.0,5.7165,0.0,6.0319,6.3858,6.6359,6.6974,0.0,0.0,6.7244,6.8205,6.9013,7.1514,7.3707,7.4938,7.6553,7.8015,7.9054,8.0131,8.0939,8.1323,8.1593,8.2016,8.2901,8.3747,8.4555,8.5363,8.5978,8.6709,8.7264,8.7478,8.7396,8.7578,8.7596,8.7711,8.7732,8.6774,8.5952,8.5604,8.3902,8.2599,8.2225,8.1035,8.0085,7.9794,7.9239,7.8737,7.8773,7.8974,7.9133,8.214,8.1806,8.1806,8.14,8.0646,7.9956,7.9765,7.9845,7.9657,7.9576,7.9548,7.9493,7.9548,7.9684,7.9684,7.9908,8.0291,8.0135,8.0654,8.1806,8.2288,8.292,8.3589,8.3589,8.318,8.2326,8.188,8.1248,8.0505,8.0125,7.9939,7.9939,7.9539,7.8648,7.7385,7.7868,7.8964,8.0572,8.1606,8.15,8.0291,8.0255,7.9917,7.9201,7.8832,7.8617,7.8397,7.7686,7.6863,7.593,7.5486,7.4172,7.1766,6.9672,6.7069,0.0,0.0,0.0,0.0,0.0,0.0,0.0,0.0,0.0,0.0,0.0,6.2781,6.382,6.6051,6.8436,7.0975,7.1629,7.1898,7.1783,7.2552,7.3245,7.3707,7.5322,7.6707,7.7592,7.8861,7.9977,8.0823,8.2016,8.2939,8.3401,8.3747,8.4016,8.4209,8.4901,8.5747,8.6555,8.7094,8.7709,8.8556,8.8705,8.8755,8.8804,8.8876,8.8952,8.8973,8.8334,8.7538,8.6687,8.541,8.4211,8.3515,8.2689,8.1978,8.1925,8.1697,8.0922,7.958,7.9601,7.9913,8.4072,8.3366,8.3329,8.3329,8.3247,8.1912,8.1354,8.1353,8.1243,8.1187,8.1187,8.1215,8.1215,8.1215,8.1215,8.1215,8.1215,8.1111,8.1843,8.3329,8.344,8.4295,8.5743,8.5743,8.5372,8.474,8.4592,8.4183,8.3477,8.2838,8.24,8.2251,8.1545,8.1137,8.0988,8.0394,8.1211,8.344,8.355,8.251,8.0383,8.0122,7.9679,7.9025,7.8988,7.8779,7.8274,7.8337,7.7808,7.668,7.6539,7.5931,7.458,7.2341,7.0103,0.0,6.5498,0.0,0.0,0.0,0.0,0.0,0.0,0.0,0.0,6.632,6.8244,7.1437,7.1629,7.2552,7.4976,7.5207,7.5476,7.6245,7.6976,7.7476,7.763,7.8323,7.9169,8.0015,8.09,8.167,8.2362,8.3901,8.4901,8.4863,8.544,8.5632,8.5247,8.5632,8.6363,8.7286,8.7594,8.8171,8.8803,8.9046,8.9228,8.9183,8.9339,8.9291,8.9436,8.9325,8.8826,8.7459,8.6763,8.5989,8.4611,8.4224,8.3992,8.3876,8.3812,8.2972,8.0838,8.063,8.0932,8.4889,8.4183,8.4183,8.4183,8.4146,8.3841,8.3388,8.2822,8.2756,8.2756,8.2756,8.2871,8.2928,8.2928,8.2928,8.2928,8.2928,8.2785,8.3254,8.4183,8.4852,8.5632,8.6561,8.6561,8.6486,8.6301,8.5706,8.5298,8.5149,8.5,8.4592,8.396,8.3775,8.3366,8.2771,0.0,0.0,0.0,8.451,8.3685,8.2561,8.126,8.0172,7.9419,7.9491,0.0,7.9523,7.9053,7.8728,7.8615,7.7402,0.0,0.0,0.0,0.0,0.0,0.0,0.0,0.0,0.0,0.0,0.0,7.1822,7.1245,6.9898,7.1129,7.3206,7.5784,7.5476,7.5784,7.7592,7.7784,7.7861,7.7977,7.8169,7.8515,7.9246,8.0092,8.0939,8.1747,8.2593,8.317,8.3362,8.4247,8.4901,8.4962,8.5593,8.6017,8.5901,8.5978,8.644,8.7286,8.8402,8.9402,8.9633,9.0227,9.0719,9.0873,9.0873,9.0959,9.1029,9.0473,9.0057,8.9439,8.7857,8.6467,8.6004,8.4846,8.4011,8.3881,8.3881,8.373,8.327,8.3266,8.3224,8.5743,8.5,8.4963,8.5,0.0,8.5,8.4778,8.4369,8.4369,8.4146,8.3775,8.3863,8.3669,8.3297,8.3297,8.3297,8.3297,8.3648,8.422,8.5,8.5818,8.6635,8.7415,8.7452,8.7415,8.7415,8.7007,8.6821,8.6821,8.6375,8.5781,8.5,8.4592,8.3997,8.3254,8.4369,8.5186,8.5595,8.5595,8.4815,8.3217,8.2363,8.1323,8.0171,8.0144,0.0,0.0,0.0,0.0,0.0,0.0,0.0,0.0,7.7013,7.6424,7.6074,7.497,7.4357,7.452,7.4919,7.5549,7.644,7.767,7.7162,7.4284,7.5245,7.6669,7.8361,7.8515,7.9015,8.0246,8.0746,8.1016,8.1016,8.1016,8.1208,8.1631,8.1968,8.2375,8.2836,8.3593,8.4076,8.4114,8.4844,8.5305,8.5382,8.5689,8.5975,8.6026,8.606,8.644,8.7286,8.8825,8.9902,9.0017,9.1052,9.1912,9.1997,9.2338,9.264,9.2759,9.2396,9.1824,9.0975,8.9702,8.8545,8.7194,8.6268,8.5574,8.5188,8.5072,8.5087,8.5173,8.4557,8.385,8.6189,8.5595,8.5595,8.5669,8.5818,8.5818,8.5892,8.6041,8.5743,0.0,0.0,8.4406,8.3923,8.3217,8.318,8.3254,8.344,8.4072,8.4889,8.5818,8.6486,8.7267,8.8084,8.8084,8.8084,8.8084,8.8084,8.8084,8.8084,8.7378,8.6524,8.5595,8.4926,8.4183,8.3552,8.4852,8.5669,8.5855,8.6486,8.5855,8.3886,8.3552,8.2734,8.136,8.136,8.136,8.136,8.1437,8.1252,8.0729,8.0651,8.0477,8.0153,7.9491,7.9274,7.9698,7.9095,7.8788,7.8968,7.9654,8.0127,8.0191,8.1496,8.1201,7.8562,7.8985,7.9623,8.0353,8.1084,8.1737,8.2429,8.3083,8.3561,8.3561,8.3561,8.3506,8.349,8.3576,8.3546,8.3588,8.4207,8.4727,8.4709,8.5207,8.5666,8.5666,8.5685,8.5856,8.6059,8.6125,8.6401,8.7325,8.8632,8.971,9.0094,9.1378,9.2486,9.2541,9.3285,9.3935,9.399,9.399,9.3318,9.1837,9.1506,9.0349,8.8498,8.7634,8.738,8.6724,8.6416,8.6339,8.6223,8.522,8.4271,8.5706,8.5595,8.5595,8.6004,8.6635,8.6635,8.7044,8.7601,8.6226,8.5149,8.4406,8.4406,8.396,8.318,8.318,8.3552,8.422,8.4332,8.5186,8.6598,8.6747,8.7267,8.8084,8.8084,8.8084,8.8084,8.8084,8.8084,8.8084,8.7973,8.7118,8.5743,8.5483,8.5,8.4369,8.5149,8.5929,8.6598,8.6747,8.6635,8.6264,8.4963,8.4109,8.3886,8.3886,8.3886,8.3886,8.3916,8.3871,8.3759,8.3119,8.2817,8.2974,8.2418,8.2272,8.2618,8.2109,8.1845,8.1949,8.2202,8.2377,8.2531,8.2741,8.2738,8.26,8.2604,8.2668,8.2783,8.286,8.3013,8.3166,8.332,8.3435,8.3397,8.3358,8.3285,8.3348,8.3924,8.427,8.4077,8.4648,8.5179,8.5135,8.5211,8.5325,8.5287,8.554,8.5759,8.6432,8.6401,8.65,8.7286,8.8209,8.9094,8.9885,9.1364,9.2417,9.2601,9.326,9.3799,9.3907,9.3855,9.3397,9.2494,9.1762,9.0839,8.9645,8.8359,8.7682,8.7297,8.6813,8.6335,8.6335,8.5989,8.5559,8.6264,8.6301,8.6747,8.7155,8.749,8.7527,8.7712,8.801,8.7304,8.6226,8.5112,8.5038,8.4369,8.3254,8.3626,8.4035,8.4443,8.5298,8.6078,8.6784,8.7304,8.7712,8.8084,8.8084,8.8084,8.8084,8.8084,8.8084,8.8084,8.8084,8.723,8.5632,8.474,8.4295,8.4443,8.5186,8.6004,8.6784,8.7675,8.7712,8.6821,8.6969,8.6635,8.5743,8.6152,8.6412,8.6375,8.6412,8.6189,8.5706,8.5335,8.5046,8.4804,8.4592,8.4642,8.4945,8.4807,8.4538,8.4225,8.4408,8.454,8.4643,8.5002,8.5333,8.5443,8.4002,8.3122,8.316,8.3448,8.3678,8.3678,8.4021,8.4269,8.4269,8.4631,8.4917,8.4933,8.5457,8.5844,8.5773,8.5941,8.6076,8.6029,8.6029,8.6029,8.6052,8.6168,8.6539,8.6992,8.6996,8.7141,8.7901,8.872,8.9371,8.987,9.1328,9.2382,9.255,9.3207,9.3651,9.3764,9.3728,9.3364,9.2672,9.2133,9.1364,9.021,8.9363,8.8671,8.8132,8.7863,8.7555,8.7478,8.7171,8.655,8.6486,8.6858,8.7527,8.7935,8.8084,8.8084,8.8084,8.8084,8.8084,8.723,8.5966,8.5855,8.5075,8.3886,8.4406,8.4778,8.5075,8.6226,8.6895,8.7155,8.7787,8.8084,8.8084,8.8084,8.8084,8.8084,8.8084,8.8084,8.8084,8.8084,8.723,8.5595,8.4183,8.3775,8.4406,8.5186,8.6004,8.6858,8.8455,8.8641,8.7452,8.8641,8.8753,8.7787,8.827,8.8641,8.8641,8.8641,8.8233,8.7452,8.7341,8.7068,8.6371,8.6295,8.6357,8.6509,8.6524,8.6282,8.5837,8.5939,8.6088,8.6112,8.6679,8.7033,8.6893,8.5075,8.3794,8.3912,8.4399,8.466,8.4774,8.5149,8.5484,8.5522,8.6032,8.6275,8.6381,8.6786,8.7057,8.7008,8.6807,8.664,8.6651,8.6625,8.6576,8.6616,8.6996,8.7273,8.7347,8.7691,8.8121,8.8582,8.9189,8.9707,8.9994,9.1315,9.2292,9.2444,9.3154,9.3595,9.3728,9.371,9.3364,9.271,9.2479,9.1864,9.0594,8.9979,8.9594,8.9056,8.8709,8.8556,8.8479,8.8094,8.7286,8.5521,8.6709,8.6932,8.7378,8.8084,8.8084,8.8084,8.8084,8.8084,8.7564,8.6747,8.6709,8.6189,8.5446,8.5409,8.5855,8.6486,8.6747,8.723,8.7898,8.8047,8.8084,8.8121,8.8121,8.8084,8.8121,8.8121,8.8158,8.8158,8.8084,8.723,8.5669,8.4703,8.4332,8.448,8.5223,8.6004,8.6821,8.8455,8.9198,8.9087,8.9198,8.957,9.0164,9.0239,9.0276,9.0239,9.0276,8.9904,8.9161,8.9013,8.8678,8.7929,8.7339,8.7019,8.7049,8.6524,8.6144,8.6209,8.6264,8.6346,8.6428,8.6567,8.668,8.6642,8.6358,8.6263,8.6329,8.6455,8.6367,8.6531,8.6531,8.6493,8.6417,8.6644,8.6707,8.6642,8.6628,8.6599,8.6404,8.6564,8.6331,8.6406,8.6377,8.6359,8.6584,8.7154,8.7592,8.7792,8.8312,8.8794,8.9011,8.9193,8.9516,9.0314,9.1413,9.1989,9.2276,9.3041,9.3366,9.3366,9.3423,9.3403,9.2405,9.2402,9.1941,9.121,9.0517,8.994,8.9825,8.9363,8.8786,8.8709,8.8632,8.8017,8.6189,8.6858,8.7341,8.775,8.8084,8.8084,8.8084,8.8084,8.8084,8.7898,8.7601,8.7564,8.6858,8.5632,8.6078,8.6524,8.6821,8.7341,8.775,8.8084,8.8084,8.8084,8.8121,8.8604,8.8827,8.8827,8.879,8.8827,8.8641,8.7824,8.6969,8.6301,8.5483,8.5112,8.5186,8.5892,8.6486,8.6821,8.7973,8.879,8.9347,9.0239,9.0647,9.061,9.1465,9.1725,9.1279,9.1205,9.061,8.9421,8.9273,8.9124,8.8827,8.8555,8.8623,8.8958,8.7941,8.7071,8.6639,8.669,8.6814,8.6872,8.7321,8.7582,8.7553,8.7495,8.7495,8.7462,8.6902,8.6503,8.654,8.6422,8.6404,8.6442,8.6779,8.7079,8.7061,8.7389,8.7574,8.7495,8.7444,8.7354,8.7294,8.7264,8.7294,8.7384,8.7742,8.7964,8.8155,8.8503,8.8767,8.8869,8.8866,8.9212,9.0068,9.0623,9.1097,9.1374,9.1644,9.1951,9.2104,9.2102,9.1928,9.1659,9.1733,9.1692,9.1287,9.1018,9.0671,9.0556,9.0517,9.0056,8.9517,8.9402,8.8863,8.6969,8.723,8.7861,8.8084,8.8084,8.8084,8.8084,8.8084,8.8084,8.8084,8.8084,8.8084,8.7452,8.6486,8.6895,8.7155,8.723,8.7787,8.8084,8.8084,8.8084,8.8195,8.8455,8.9013,8.9421,8.9607,8.9607,8.9644,8.9496,8.8493,8.7601,8.7155,8.6561,8.6152,8.6004,8.6524,8.6932,8.7192,8.7787,8.8381,8.905,9.0313,9.087,9.0647,9.165,9.2022,9.1428,9.1353,9.0722,8.9384,8.9273,8.9273,8.9273,8.9273,8.957,9.0016,8.9087,8.8047,8.723,8.7278,8.7376,8.7413,8.7934,8.8232,8.8232,8.8177,8.8115,8.8035,8.7273,8.6843,8.6806,8.669,8.6668,8.6706,8.719,8.7518,8.7526,8.7995,8.8225,8.8232,8.8059,8.8084,8.8084,8.8041,8.8004,8.8035,8.8134,8.8269,8.8232,8.8354,8.8406,8.8562,8.8733,8.9142,8.9642,8.9944,9.0174,9.0351,9.0589,9.0732,9.0681,9.078,9.0915,9.1107,9.1067,9.1103,9.1084,9.1064,9.11,9.1118,9.1098,9.0923,9.0402,9.0287,8.9902,8.7304,8.7973,8.8084,8.8084,8.8084,8.8084,8.8084,8.8084,8.8084,8.8084,8.8084,8.8084,8.8047,8.7898,8.7935,8.801,8.8047,8.8047,8.8084,8.8121,8.8158,8.853,8.9236,8.931,8.9719,9.0387,9.0462,9.0424,9.0387,9.0276,8.9533,8.8121,8.7935,8.7527,8.6895,8.6858,8.723,8.7898,8.8047,8.8121,8.827,8.9013,8.9793,9.0313,9.061,9.0685,9.0536,9.0573,9.0127,8.931,8.9236,8.9273,8.9273,8.9347,8.9459,8.9421,8.931,8.8864,8.8121,8.8004,8.8004,8.8041,8.8041,8.8115,8.8115,8.8115,8.8084,8.8084,8.7997,8.788,8.7954,8.7805,8.7849,8.7849,8.7997,8.8035,8.8035,8.8035,8.8115,8.8115,8.8115,8.8084,8.8084,8.8084,8.8084,8.8084,8.8115,8.8115,8.8152,8.8115,8.8289,8.8468,8.8889,8.9422,8.928,8.9777,8.9869,9.0104,9.0523,9.0342,9.0301,9.0372,9.0572,9.0753,9.1005,9.1104,9.0953,9.0915,9.0934,9.0991,9.11,9.0982,9.0846,9.1056,9.071,8.7824,8.8084,8.8084,8.8084,8.8084,8.8084,8.8084,8.8084,8.8084,8.8084,8.8084,8.8084,8.8084,8.8084,8.8084,8.8084,8.8084,8.8084,8.8084,8.8158,8.8604,8.9013,8.9384,9.0313,9.0945,9.1205,9.1279,9.0982,9.0536,9.0499,8.9942,8.905,8.8864,8.8455,8.7787,8.7638,8.7787,8.8047,8.8084,8.8084,8.8121,8.8381,8.8678,8.8976,8.9979,9.0239,8.9756,8.9719,8.9347,8.8567,8.853,8.8753,8.931,9.0276,9.0573,9.0127,9.0053,8.9496,8.8344,8.8084,8.8084,8.8084,8.8084,8.8121,8.8084,8.8084,8.8084,8.8121,8.8121,8.827,8.8641,8.8418,8.8084,8.8084,8.8121,8.8121,8.8084,8.8084,8.8084,8.8084,8.8084,8.8084,8.8195,8.8121,8.8084,8.8084,8.8121,8.8158,8.8195,8.8493,8.8864,8.8976,8.9559,9.01,9.0025,9.0359,9.0671,9.0852,9.1076,9.1142,9.113,9.1215,9.1435,9.143,9.1507,9.1429,9.1381,9.1034,9.1003,9.0953,9.1068,9.12,9.1192,9.1175,9.1038,8.8084,8.8084,8.8084,8.8084,8.8084,8.8084,8.8084,8.8084,8.8084,8.8084,8.8084,8.8084,8.8084,8.8158,8.8381,8.8493,8.8493,8.8493,8.8493,8.8567,8.931,8.983,9.0202,9.1205,9.1836,9.2096,9.2133,9.1799,9.139,9.1316,9.0722,8.9719,8.9681,8.9124,8.827,8.8084,8.8084,8.8084,8.8084,8.8084,8.8084,8.8084,8.8084,8.8233,8.9161,8.9496,8.8901,8.8901,8.8678,8.8195,8.8084,8.8567,8.9681,9.0945,9.1465,9.0945,9.061,8.9904,8.8678,8.8233,8.8084,8.8121,8.8344,8.8493,8.8493,8.8716,8.8827,8.8864,8.8901,8.9161,8.9421,8.9198,8.879,8.8567,8.8493,8.8455,8.8493,8.8493,8.8641,8.8901,8.8976,8.8938,8.8864,8.8901,8.8938,8.8864,8.8864,8.8864,8.8976,8.9273,8.9681,8.9756,9.035,9.0828,9.0998,9.1354,9.1126,9.1221,9.1348,9.1555,9.178,9.1924,9.2058,9.2087,9.2039,9.19,9.1667,9.1286,9.1108,9.0996,9.1161,9.1375,9.1279,9.11,9.1024,8.8084,8.8084,8.8084,8.8084,8.8084,8.8084,8.8084,8.8084,8.8084,8.8053,8.8053,8.8053,8.8021,8.8201,8.8764,8.9204,8.9278,8.9432,8.9427,8.9384,9.0127,9.087,9.1502,9.1692,9.2175,9.2806,9.2918,9.2881,9.2732,9.2625,9.1882,9.0652,9.0323,8.9506,8.8121,8.8053,8.8084,8.8084,8.8084,8.8084,8.8084,8.8084,8.8084,8.8084,8.8233,8.827,8.8158,8.8158,8.8158,8.8121,8.8084,8.8864,9.0239,9.1167,9.165,9.1502,9.0945,9.0202,8.9384,8.8678,8.8381,8.8455,8.8901,8.931,8.9384,8.9867,9.0239,9.0202,9.0276,9.0424,9.0424,9.0424,9.009,8.9459,8.931,8.931,8.931,8.931,8.957,9.0127,9.0239,9.0424,9.0424,9.0239,9.0127,9.0164,9.0202,9.0164,9.0127,9.035,9.0499,9.0647,9.1167,9.1688,9.2022,9.2277,9.1742,9.1385,9.1423,9.1545,9.1815,9.1992,9.2183,9.2223,9.2006,9.1918,9.1967,9.1621,9.1469,9.1421,9.1521,9.1476,9.1275,9.1145,9.1066,8.8084,8.8084,8.8084,8.8084,8.8084,8.8084,8.8084,8.8084,8.7958,8.7895,8.7858,8.7762,8.766,8.7882,8.8585,8.9251,8.9843,9.0842,9.098,9.036,9.0982,9.1432,9.1766,9.2187,9.2458,9.2579,9.2582,9.2582,9.2582,9.2582,9.1731,9.0472,9.0139,8.9354,8.7969,8.7895,8.7958,8.8084,8.8084,8.8084,8.8084,8.8084,8.8084,8.8084,8.8084,8.8084,8.8084,8.8084,8.8084,8.8121,8.8084,8.8827,9.0202,9.0722,9.113,9.1613,9.1502,9.0982,9.0239,8.9867,8.9681,8.9756,8.9979,9.009,9.0127,9.0387,9.0536,9.0536,9.0499,9.0685,9.1167,9.1316,9.0982,9.0239,9.0127,9.0127,9.0127,9.0164,9.0239,9.0424,9.0499,9.0499,9.0499,9.0536,9.0647,9.061,9.061,9.061,9.061,9.1093,9.1316,9.139,9.2022,9.2468,9.2579,9.2616,9.231,9.1971,9.1918,9.1944,9.2082,9.2219,9.238,9.2367,9.2189,9.2091,9.2117,9.2063,9.1908,9.1671,9.1594,9.1461,9.1348,9.1212,9.1066,8.799,8.799,8.7863,8.7799,8.7799,8.7734,8.7665,8.7702,8.7534,8.7468,8.7332,8.7228,8.716,8.7418,8.8375,8.9219,8.9915,9.1355,9.161,9.1148,9.198,9.2347,9.2246,9.219,9.2235,9.2056,9.1947,9.1912,9.1912,9.1875,9.1103,8.9779,8.9592,8.892,8.7612,8.7595,8.7794,8.799,8.8053,8.8084,8.8084,8.8084,8.8084,8.8084,8.8084,8.8084,8.8084,8.8344,8.853,8.8604,8.879,8.9644,9.0796,9.0982,9.1316,9.1948,9.1873,9.1465,9.0982,9.061,9.0499,9.0536,9.0759,9.0945,9.1019,9.1167,9.1428,9.1428,9.1465,9.165,9.2059,9.2171,9.191,9.1502,9.113,9.0982,9.0982,9.1242,9.1428,9.1502,9.1502,9.1428,9.1428,9.1428,9.1428,9.1428,9.1428,9.1428,9.1502,9.1873,9.2059,9.2208,9.2542,9.2802,9.2914,9.2876,9.2802,9.2649,9.25,9.257,9.271,9.2742,9.2838,9.2764,9.2604,9.2561,9.2604,9.2503,9.2346,9.2081,9.1805,9.1597,9.1467,9.1126,9.0983,8.773,8.7697,8.7368,8.7234,8.72,8.7064,8.6995,8.696,8.6925,8.6784,8.6605,8.6499,8.6499,8.6864,8.8071,8.8984,8.9568,9.0849,9.1615,9.1802,9.2537,9.2903,9.261,9.1803,9.1434,9.1322,9.1133,9.102,9.1057,9.102,9.0219,8.8798,8.8764,8.8251,8.7144,8.7228,8.7534,8.7767,8.7958,8.8021,8.8021,8.8053,8.8053,8.8053,8.8053,8.8127,8.8381,8.9087,8.9459,8.9459,8.9942,9.0647,9.1465,9.1688,9.2022,9.2765,9.2208,9.191,9.1613,9.1279,9.087,9.0945,9.1428,9.1762,9.1873,9.2319,9.2653,9.2691,9.2728,9.2839,9.2876,9.2876,9.2839,9.2839,9.2171,9.1799,9.1836,9.2431,9.2616,9.2765,9.2951,9.2951,9.2728,9.2765,9.2765,9.2802,9.2728,9.2653,9.2691,9.2691,9.2876,9.2951,9.2914,9.2951,9.2988,9.2542,9.2431,9.2282,9.2171,9.2133,9.2505,9.2612,9.2979,9.2942,9.2979,9.2946,9.2937,9.2764,9.2667,9.2496,9.2163,9.1875,9.1574,9.1269,9.0879,8.7231,8.6921,8.6817,8.6712,8.657,8.6499,8.6463,8.6427,8.6174,8.599,8.5879,8.5616,8.5502,8.5682,8.72,8.8288,8.905,9.0421,9.1573,9.1975,9.1772,9.1542,9.1263,9.097,9.0588,9.0348,9.0268,9.0227,9.0227,9.0227,8.9397,8.788,8.8004,8.7513,8.6466,8.6677,8.7061,8.7402,8.7563,8.7665,8.7665,8.7628,8.7762,8.7858,8.7858,8.8255,8.8981,9.035,9.0759,9.0239,9.035,9.087,9.165,9.1762,9.2133,9.2765,9.2802,9.2616,9.2579,9.2393,9.2282,9.2356,9.2393,9.2653,9.2653,9.2839,9.2988,9.2988,9.2988,9.2988,9.2988,9.2988,9.2988,9.2988,9.2728,9.2579,9.2616,9.2802,9.2988,9.2988,9.2988,9.2988,9.2988,9.2988,9.2988,9.2988,9.2988,9.2988,9.2988,9.2988,9.2988,9.2988,9.2988,9.2988,9.2839,9.2319,9.1985,9.1762,9.1428,9.0945,9.1353,9.1725,9.2315,9.2765,9.2946,9.2984,9.2951,9.2937,9.2849,9.2758,9.2499,9.2136,9.1788,9.1497,9.0936,8.6571,8.6174,8.5954,8.5803,8.5654,8.5578,8.554,8.5502,8.5309,8.515,8.5032,8.4832,8.4711,8.489,8.6393,8.7407,8.8094,8.9478,9.0373,9.066,9.0287,9.0078,9.0012,8.994,8.969,8.9514,8.9386,8.9343,8.9343,8.9378,8.8485,8.7276,8.7192,8.6693,8.5644,8.5916,8.6356,8.6749,8.6921,8.6988,8.6988,8.7093,8.7228,8.7431,8.76,8.8275,8.9724,9.1019,9.1465,9.1167,9.1353,9.1762,9.2171,9.2245,9.2468,9.2988,9.2988,9.2988,9.2988,9.2988,9.2988,9.2988,9.2988,9.2988,9.2988,9.2988,9.2988,9.2988,9.2988,9.2988,9.2988,9.2988,9.2988,9.2988,9.2988,9.2988,9.2988,9.2951,9.2988,9.2988,9.2988,9.2988,9.2988,9.2988,9.2988,9.2988,9.2988,9.2988,9.2988,9.2988,9.2988,9.2988,9.2839,9.2765,9.2431,9.191,9.1019,9.0796,9.035,8.9867,9.0685,9.1167,9.1948,9.2616,9.2839,9.2988,9.2988,9.2988,9.2979,9.2854,9.2652,9.2374,9.2068,9.1732,9.116,8.573,8.5502,8.4952,8.4747,8.4707,8.4544,8.4544,8.4462,8.4462,8.4373,8.4207,8.4123,8.4081,8.4187,8.5721,8.6588,8.6867,8.8251,8.8739,8.8943,8.8783,8.889,8.9213,8.9039,8.8863,8.881,8.8622,8.8577,8.8506,8.8506,8.7612,8.6532,8.6352,8.5834,8.511,8.515,8.5538,8.5915,8.6101,8.6174,8.6174,8.632,8.6462,8.6817,8.774,8.8701,9.0184,9.1321,9.1873,9.1836,9.2579,9.2802,9.2951,9.2951,9.2951,9.2951,9.2988,9.2988,9.2988,9.2988,9.2988,9.2988,9.2988,9.2988,9.2988,9.2988,9.2988,9.2988,9.2988,9.2988,9.2988,9.2988,9.2988,9.2988,9.2988,9.2988,9.2988,9.2988,9.2988,9.2988,9.2988,9.2988,9.2988,9.2988,9.2988,9.2988,9.2988,9.2988,9.2988,9.2988,9.2988,9.2988,9.2765,9.2468,9.2022,9.1502,9.0424,8.9644,8.9087,8.8976,9.035,9.1056,9.1799,9.2356,9.2653,9.2876,9.2988,9.2988,9.2988,9.2984,9.2821,9.2593,9.2322,9.1964,9.15,8.4832,8.4503,8.4379,8.4249,8.4081,8.4039,8.4039,8.3996,8.3861,8.3776,8.3689,8.3516,8.3472,8.3543,8.5066,8.5762,8.6072,8.7392,8.8121,8.8075,8.8075,8.8075,8.827,8.8315,8.8305,8.8167,8.8075,8.8029,8.7959,8.7477,8.6657,8.5822,8.534,8.4817,8.43,8.4503,8.4792,8.5071,8.5267,8.5384,8.5348,8.5425,8.5616,8.6137,8.7952,8.9387,9.0424,9.1882,9.2691,9.2765,9.2876,9.2955,9.2988,9.2988,9.2988,9.2988,9.2988,9.2988,9.2988,9.2988,9.2988,9.2988,9.2988,9.2988,9.2988,9.2988,9.2988,9.2988,9.2988,9.2988,9.2988,9.2988,9.2988,9.2988,9.2988,9.2988,9.2988,9.2988,9.2988,9.2988,9.2988,9.2988,9.2988,9.2988,9.2988,9.2988,9.2988,9.2988,9.2988,9.2988,9.2876,9.2802,9.2431,9.2022,9.1205,9.061,8.9681,8.8976,8.8455,8.8195,8.957,9.0536,9.1093,9.1836,9.2542,9.2691,9.2691,9.2988,9.2988,9.2988,9.2988,9.2798,9.2566,9.2226,9.1843,8.4207,8.3904,8.3819,8.3654,8.3603,8.3559,8.3603,8.3559,8.3464,8.342,8.342,8.3253,8.3208,8.3349,8.4753,8.5491,8.5877,8.7106,8.7925,8.7925,8.7925,8.7925,8.7925,8.7983,8.8018,8.7925,8.7925,8.7925,8.7714,8.707,8.6379,8.5491,8.4853,8.4326,8.3874,8.3989,8.4165,8.4338,8.4462,8.4544,8.4544,8.463,8.4992,8.5865,8.7815,8.9308,8.9946,9.1592,9.2468,9.2684,9.2785,9.2922,9.2988,9.2988,9.2988,9.2988,9.2988,9.2988,9.2988,9.2988,9.2988,9.2988,9.2988,9.2988,9.2988,9.2988,9.2988,9.2988,9.2988,9.2988,9.2988,9.2988,9.2988,9.2988,9.2988,9.2988,9.2988,9.2988,9.2988,9.2988,9.2988,9.2988,9.2988,9.2988,9.2988,9.2988,9.2988,9.2988,9.2988,9.2951,9.2579,9.2393,9.2022,9.1428,9.0499,8.9681,8.8864,8.8455,8.827,8.8158,8.8716,8.9533,9.0202,9.0982,9.1762,9.2171,9.2245,9.2579,9.2914,9.2988,9.2988,9.2988,9.2909,9.2645,9.2231,8.3689,8.3508,8.3297,8.3208,8.3208,8.3208,8.3253,8.3208,8.3208,8.3253,8.3208,8.3208,8.3208,8.3524,8.4823,8.5526,8.6263,8.707,8.7925,8.7925,8.7925,8.7925,8.7925,8.7925,8.7925,8.7925,8.7925,8.789,8.7457,8.6895,8.5982,8.528,8.4543,8.3974,8.3613,8.3551,8.3646,8.3783,8.3826,8.3826,8.3826,8.3996,8.442,8.5323,8.6957,8.8249,8.9056,9.0408,9.1651,9.2048,9.2222,9.2505,9.2785,9.2988,9.2988,9.2988,9.2988,9.2988,9.2988,9.2988,9.2988,9.2988,9.2988,9.2988,9.2988,9.2988,9.2988,9.2988,9.2988,9.2988,9.2988,9.2988,9.2988,9.2988,9.2988,9.2988,9.2988,9.2988,9.2988,9.2988,9.2988,9.2988,9.2988,9.2988,9.2988,9.2988,9.2988,9.2988,9.2988,9.2839,9.2505,9.1985,9.1576,9.0573,8.957,8.9198,8.8344,8.8195,8.8084,8.8121,8.8195,8.8678,8.9421,9.0164,9.0833,9.1316,9.1836,9.2208,9.2505,9.2802,9.2988,9.2988,9.2988,9.2988,9.2579,8.3297,8.3253,8.3208,8.3208,8.3208,8.3208,8.3208,8.3208,8.3208,8.3208,8.3208,8.3208,8.3164,8.355,8.4823,8.6158,8.7094,8.7738,8.7925,8.7925,8.7925,8.7925,8.7878,8.7878,8.7843,8.7925,8.7773,8.7492,8.6895,8.6087,8.5385,8.4578,8.3876,8.3393,8.3323,8.3253,8.3297,8.3385,8.3429,8.335,8.3393,8.3437,8.374,8.4492,8.5997,8.6908,8.7513,8.8653,8.9752,9.0557,9.0667,9.1251,9.2012,9.2576,9.2814,9.2955,9.2988,9.2988,9.2988,9.2988,9.2988,9.2988,9.2988,9.2988,9.2988,9.2988,9.2988,9.2988,9.2988,9.2988,9.2988,9.2988,9.2988,9.2988,9.2988,9.2988,9.2988,9.2988,9.2988,9.2988,9.2988,9.2988,9.2988,9.2988,9.2988,9.2988,9.2988,9.2988,9.2988,9.2765,9.2468,9.1799,9.1093,8.9867,8.8604,8.8493,8.8121,8.8158,8.8084,8.8084,8.8121,8.8158,8.8641,8.9384,9.0164,9.0796,9.1279,9.1762,9.2356,9.2802,9.2914,9.2988,9.2988,9.2988,9.2988,8.3208,8.3208,8.3208,8.3208,8.3208,8.3208,8.3208,8.3208,8.3208,8.3208,8.3164,8.3075,8.3031,8.3406,8.4505,8.6044,8.734,8.7878,8.7878,8.7925,8.7925,8.7831,8.7737,8.769,8.7281,8.7071,8.6931,8.6978,8.6614,8.5491,8.4823,8.4367,8.3595,8.3208,8.3208,8.3208,8.3208,8.3208,8.3208,8.3208,8.3208,8.3208,8.3472,8.4081,8.4966,8.5816,8.6401,8.7371,8.8224,8.8781,8.9046,8.9784,9.0667,9.1468,9.2104,9.264,9.2922,9.2988,9.2988,9.2988,9.2988,9.2988,9.2988,9.2988,9.2988,9.2988,9.2988,9.2988,9.2988,9.2988,9.2988,9.2988,9.2988,9.2988,9.2988,9.2988,9.2988,9.2988,9.2988,9.2988,9.2988,9.2988,9.2988,9.2988,9.2988,9.2988,9.2988,9.2988,9.2988,9.2579,9.2208,9.113,9.0313,8.9347,8.8307,8.8233,8.8084,8.8084,8.8084,8.8084,8.8084,8.8121,8.8195,8.8567,8.9347,9.0127,9.0833,9.1353,9.2059,9.2728,9.2876,9.2988,9.2988,9.2988,9.2988,8.3208,8.3208,8.3208,8.3208,8.3208,8.3208,8.3208,8.3208,8.3164,8.312,8.312,8.2931,8.2841,8.318,8.4263,8.5762,8.7348,8.7643,8.769,8.769,8.769,8.7596,8.7466,8.7161,8.6764,8.6215,8.5682,8.5904,8.5739,8.4989,8.4437,8.3981,8.3419,8.3208,8.3208,8.3208,8.3208,8.3208,8.3208,8.3208,8.3208,8.3208,8.3297,8.3543,8.4369,8.4925,8.5264,8.5906,8.6619,8.7079,8.7465,8.8107,8.9107,8.9932,9.0922,9.2005,9.2606,9.2885,9.2988,9.2988,9.2988,9.2988,9.2988,9.2988,9.2988,9.2988,9.2988,9.2988,9.2988,9.2988,9.2988,9.2988,9.2988,9.2988,9.2988,9.2988,9.2988,9.2988,9.2988,9.2988,9.2988,9.2988,9.2988,9.2988,9.2988,9.2988,9.2988,9.2988,9.2876,9.2208,9.1576,9.035,8.9421,8.8678,8.8158,8.8158,8.8084,8.8084,8.8084,8.8084,8.8084,8.8084,8.8195,8.827,8.853,8.931,9.0127,9.0907,9.1576,9.2133,9.2653,9.2951,9.2988,9.2988,9.2988,8.3208,8.3208,8.3208,8.3208,8.3208,8.3208,8.3208,8.3164,8.3021,8.2931,8.2896,8.2705,8.2568,8.2975,8.4123,8.5655,8.6747,8.7261,8.7309,8.7309,8.7309,8.7192,8.6991,8.6399,8.6003,8.542,8.4541,8.417,8.4319,8.4292,8.3971,8.3524,8.3349,8.3208,8.3208,8.3208,8.3208,8.3208,8.3208,8.3208,8.3208,8.3208,8.3208,8.3332,8.3613,8.3929,8.4058,8.4485,8.4833,8.5578,8.5691,8.6341,8.7434,8.883,8.9627,9.063,9.1683,9.2822,9.281,9.2728,9.2802,9.2765,9.2876,9.2951,9.2988,9.2988,9.2988,9.2988,9.2988,9.2988,9.2988,9.2988,9.2988,9.2988,9.2988,9.2988,9.2988,9.2988,9.2988,9.2988,9.2988,9.2988,9.2988,9.2988,9.2988,9.2988,9.2988,9.2951,9.2579,9.1762,9.0833,8.9607,8.8976,8.8307,8.8084,8.8084,8.8084,8.8084,8.8084,8.8084,8.8084,8.8084,8.8084,8.8195,8.8381,8.8567,8.931,9.0127,9.0907,9.1799,9.2616,9.2914,9.2988,9.2988,9.2988,8.3208,8.3208,8.3208,8.3208,8.3208,8.3208,8.3208,8.3164,8.2976,8.2886,8.2796,8.2442,8.2662,8.3365,8.4292,8.5429,8.661,8.702,8.7117,8.7068,8.7033,8.6776,8.6262,8.5832,8.545,8.4314,8.3737,8.3276,8.323,8.333,8.3346,8.3269,8.3208,8.3208,8.3208,8.3208,8.3208,8.3208,8.3208,8.3208,8.3208,8.3208,8.3208,8.3208,8.3297,8.3376,8.3385,8.3429,8.3665,8.4184,8.427,8.4883,8.5911,8.6993,8.7884,8.9046,8.9971,9.1053,9.1902,9.1771,9.1948,9.2208,9.2319,9.2431,9.2802,9.2988,9.2988,9.2988,9.2988,9.2988,9.2988,9.2988,9.2988,9.2988,9.2988,9.2988,9.2988,9.2988,9.2988,9.2988,9.2988,9.2988,9.2988,9.2988,9.2988,9.2988,9.2839,9.2691,9.191,9.0796,8.983,8.879,8.8418,8.8158,8.8084,8.8084,8.8084,8.8084,8.8084,8.8084,8.8084,8.8084,8.8084,8.8084,8.8195,8.8455,8.8753,8.9681,9.0833,9.1799,9.2728,9.2876,9.2988,9.2988,9.2988,8.3208,8.3208,8.3208,8.3208,8.3208,8.3208,8.3164,8.3075,8.2886,8.275,8.2614,8.228,8.2747,8.379,8.4281,8.5139,8.6523,8.6824,8.6922,8.6922,8.6818,8.6324,8.5707,8.5277,8.4385,8.2914,8.2898,8.266,8.2453,8.2557,8.2876,8.312,8.3164,8.3208,8.3208,8.3208,8.3208,8.3208,8.3208,8.3208,8.3208,8.3208,8.3208,8.3208,8.3208,8.3208,8.3208,8.3208,8.3253,8.3332,8.3455,8.3991,8.4675,8.5578,8.6445,8.7444,8.8282,8.9129,9.0062,9.0472,9.0773,9.1242,9.1725,9.2133,9.2839,9.2988,9.2988,9.2988,9.2988,9.2988,9.2988,9.2988,9.2988,9.2988,9.2988,9.2988,9.2988,9.2988,9.2988,9.2988,9.2988,9.2988,9.2988,9.2988,9.2988,9.2988,9.2765,9.2431,9.139,9.009,8.9273,8.8381,8.8233,8.8084,8.8084,8.8084,8.8084,8.8084,8.8084,8.8084,8.8084,8.8084,8.8084,8.8084,8.8084,8.8455,8.8864,8.9867,9.0796,9.1465,9.2096,9.2765,9.2988,9.2988,9.2988,8.3208,8.3208,8.3208,8.3208,8.3208,8.3208,8.3075,8.2931,8.2625,8.2396,8.2199,8.2021,8.2686,8.3707,8.4205,8.4895,8.6344,8.6344,8.6394,8.6429,8.6275,8.5842,8.5185,8.4412,8.3721,8.2845,8.241,8.2172,8.2106,8.2199,8.2522,8.2886,8.2986,8.312,8.3208,8.3164,8.3208,8.3208,8.3208,8.3208,8.3208,8.3208,8.3208,8.3208,8.3208,8.3208,8.3208,8.3208,8.3208,8.3208,8.3253,8.3297,8.3789,8.4569,8.5435,8.5969,8.6607,8.7371,8.807,8.9285,9.0267,9.0694,9.1279,9.2059,9.2876,9.2988,9.2988,9.2988,9.2988,9.2988,9.2988,9.2988,9.2955,9.2888,9.2855,9.2888,9.2888,9.2955,9.2955,9.2988,9.2988,9.2988,9.2988,9.2988,9.2988,9.2988,9.2208,9.1836,9.0796,8.9644,8.8976,8.8381,8.8195,8.8084,8.8084,8.8084,8.8084,8.8084,8.8084,8.8084,8.8084,8.8084,8.8084,8.8084,8.8121,8.853,8.8976,8.9681,9.0313,9.087,9.1539,9.2542,9.2988,9.2988,9.2988,8.2761,8.2761,8.2761,8.2941,8.3164,8.3075,8.2976,8.2841,8.2442,8.2118,8.1918,8.1927,8.2638,8.3673,8.4087,8.4846,8.6156,8.6294,8.6294,8.6122,8.5846,8.519,8.4466,8.3742,8.2949,8.2328,8.1914,8.181,8.1918,8.2012,8.2164,8.2442,8.267,8.2851,8.2941,8.312,8.3164,8.3208,8.3208,8.3208,8.3208,8.3208,8.3208,8.3208,8.3208,8.3208,8.3208,8.3208,8.3208,8.3208,8.3208,8.3208,8.3208,8.3947,8.4357,8.462,8.5212,8.5657,8.6386,8.7699,8.8934,9.0416,9.1214,9.2059,9.2839,9.2988,9.2988,9.2988,9.2955,9.2922,9.2822,9.2822,9.2788,9.2684,9.265,9.2717,9.2751,9.2822,9.2888,9.2922,9.2955,9.2988,9.2988,9.2988,9.2988,9.2914,9.2022,9.113,9.0127,8.931,8.8641,8.8307,8.8158,8.8084,8.8084,8.8084,8.8084,8.8084,8.8084,8.8084,8.8084,8.8084,8.8084,8.8084,8.8084,8.8307,8.8716,8.9273,8.9979,9.0796,9.1762,9.2765,9.2988,9.2988,9.2988,8.2488,8.2488,8.2488,8.267,8.2941,8.2806,8.275,8.2579,8.2257,8.2012,8.181,8.1845,8.2604,8.3673,8.4052,8.488,8.5984,8.6294,8.6294,8.6053,8.557,8.4777,8.4018,8.3293,8.2638,8.1948,8.1776,8.1776,8.1858,8.1965,8.2012,8.2071,8.2211,8.2442,8.2761,8.2986,8.312,8.3208,8.3208,8.3208,8.3208,8.3208,8.3208,8.3208,8.3208,8.3208,8.3208,8.3208,8.3208,8.3208,8.3208,8.3208,8.3253,8.3385,8.3551,8.3705,8.3868,8.4146,8.4826,8.632,8.8038,8.9954,9.0782,9.1771,9.2621,9.2955,9.2851,9.2888,9.2855,9.2751,9.2616,9.2616,9.2582,9.2513,9.2513,9.2547,9.2616,9.2721,9.2788,9.2855,9.2922,9.2988,9.2988,9.2951,9.2653,9.2431,9.1539,9.0647,8.9756,8.8976,8.8381,8.8158,8.8121,8.8084,8.8084,8.8084,8.8084,8.8084,8.8084,8.8084,8.8084,8.8084,8.8084,8.8084,8.8084,8.8084,8.8455,8.9013,8.9979,9.0982,9.1948,9.2876,9.2988,9.2988,9.2988,8.2488,8.2488,8.2488,8.2488,8.2533,8.2533,8.2396,8.2211,8.2118,8.1965,8.181,8.181,8.2604,8.3742,8.4018,8.4915,8.6018,8.6294,8.6294,8.6122,8.5363,8.4673,8.3949,8.319,8.2362,8.1948,8.1776,8.1776,8.1776,8.1823,8.1823,8.1823,8.1918,8.2106,8.2488,8.2796,8.3021,8.3164,8.3164,8.3208,8.3208,8.3208,8.3208,8.3208,8.3208,8.3208,8.3208,8.3208,8.3208,8.3208,8.3208,8.3208,8.3208,8.3208,8.3253,8.3297,8.2768,8.2673,8.298,8.5407,8.7441,8.9356,9.0113,9.1091,9.2406,9.2781,9.2684,9.2684,9.2582,9.2479,9.2407,9.2373,9.2373,9.2303,9.2268,9.234,9.2409,9.2547,9.265,9.2822,9.2922,9.2988,9.2988,9.2876,9.2393,9.1836,9.1019,9.0164,8.9273,8.8753,8.8158,8.8084,8.8084,8.8084,8.8084,8.8084,8.8084,8.8084,8.8084,8.8084,8.8084,8.8084,8.8084,8.8084,8.8084,8.8084,8.8381,8.879,8.9644,9.0536,9.191,9.2765,9.2876,9.2988,9.2988,8.2012,8.2012,8.2012,8.2012,8.2059,8.2164,8.2164,8.2106,8.1965,8.1871,8.181,8.1776,8.2638,8.3638,8.4156,8.4846,8.6087,8.6294,8.6294,8.6122,8.5052,8.4432,8.3707,8.2845,8.2086,8.1879,8.1776,8.1776,8.1776,8.1776,8.1776,8.1776,8.1776,8.1965,8.2257,8.2614,8.2976,8.3021,8.312,8.3208,8.3208,8.3208,8.3208,8.3208,8.3208,8.3208,8.3208,8.3208,8.3208,8.3208,8.3208,8.3208,8.3164,8.3075,8.3021,8.2801,8.233,8.1918,8.2361,8.3884,8.5619,8.7668,8.9403,9.0344,9.1586,9.2288,9.2402,9.2479,9.2409,9.2303,9.2233,9.2198,9.2162,9.202,9.1984,9.2056,9.2162,9.2375,9.2547,9.2717,9.2855,9.2955,9.2988,9.2839,9.2393,9.1576,9.0759,8.9681,8.8753,8.8493,8.8084,8.8084,8.8084,8.8084,8.8084,8.8084,8.8084,8.8084,8.8084,8.8084,8.8084,8.8084,8.8084,8.8084,8.8084,8.8121,8.8344,8.8641,8.9161,9.0053,9.1205,9.2319,9.2728,9.2876,9.2988,8.1776,8.1776,8.1776,8.1776,8.1823,8.1965,8.2012,8.1965,8.1823,8.1776,8.1776,8.181,8.2604,8.3638,8.4121,8.4846,8.6191,8.6294,8.6018,8.5811,8.4639,8.3983,8.3293,8.25,8.1983,8.1776,8.1776,8.1776,8.1776,8.1776,8.1776,8.1776,8.181,8.2078,8.2348,8.2628,8.2705,8.2841,8.3066,8.312,8.3164,8.3208,8.3208,8.3208,8.3208,8.3208,8.3208,8.3208,8.3208,8.3208,8.3164,8.3164,8.3075,8.2976,8.2796,8.245,8.1593,8.1056,8.1112,8.1832,8.3629,8.5533,8.7669,8.9453,9.0619,9.1425,9.1938,9.2122,9.2233,9.2127,9.202,9.202,9.1948,9.1767,9.184,9.1948,9.202,9.2198,9.2444,9.2616,9.2855,9.2922,9.2951,9.2691,9.2431,9.1465,9.0462,8.9384,8.8418,8.8233,8.8084,8.8084,8.8084,8.8084,8.8084,8.8084,8.8084,8.8084,8.8084,8.8084,8.8084,8.8084,8.8084,8.8084,8.8084,8.8121,8.8195,8.8493,8.8864,8.9347,9.0127,9.1205,9.2282,9.2691,9.2839,8.1776,8.1776,8.1776,8.1776,8.181,8.181,8.181,8.181,8.1776,8.1776,8.1776,8.1776,8.2604,8.3776,8.4018,8.488,8.6053,8.6294,8.588,8.5225,8.4397,8.3742,8.2983,8.2224,8.1879,8.1776,8.1776,8.1776,8.1776,8.1776,8.1776,8.1845,8.1948,8.2306,8.254,8.2716,8.2801,8.3182,8.341,8.3546,8.3671,8.3365,8.3365,8.333,8.318,8.311,8.3075,8.3075,8.3075,8.312,8.312,8.3031,8.2976,8.2886,8.2533,8.1771,8.0524,7.9932,7.9564,8.043,8.1485,8.336,8.5441,8.7846,8.9679,9.0447,9.1106,9.1656,9.1912,9.1876,9.184,9.184,9.184,9.1803,9.1803,9.1876,9.1912,9.2091,9.234,9.2582,9.2855,9.2955,9.2988,9.2765,9.2356,9.1242,9.0313,8.9496,8.8641,8.8195,8.8084,8.8084,8.8084,8.8084,8.8084,8.8084,8.8084,8.8084,8.8084,8.8084,8.8084,8.8084,8.8084,8.8084,8.8084,8.8121,8.8158,8.827,8.8455,8.8976,8.9459,9.0573,9.1799,9.2393,9.2653,8.0948,8.1017,8.1569,8.1776,8.1776,8.1776,8.1776,8.1776,8.1776,8.1776,8.1776,8.1776,8.2638,8.3949,8.4018,8.4984,8.5811,8.6225,8.5811,8.5121,8.4259,8.3569,8.288,8.219,8.1879,8.1776,8.1776,8.1776,8.1776,8.1776,8.1776,8.181,8.2259,8.2638,8.2949,8.3238,8.3629,8.3913,8.4193,8.4239,8.419,8.3921,8.3781,8.3606,8.2981,8.2876,8.2761,8.2761,8.2761,8.2761,8.2716,8.267,8.2625,8.2407,8.1875,8.0409,7.9695,7.9327,7.884,7.9074,7.9975,8.134,8.3005,8.5197,8.74,8.9146,9.0108,9.0919,9.1509,9.1583,9.1694,9.173,9.1767,9.1803,9.1803,9.184,9.1876,9.2056,9.2303,9.2547,9.2785,9.2955,9.2988,9.2802,9.2245,9.113,9.0127,8.9384,8.879,8.8307,8.8084,8.8084,8.8084,8.8084,8.8084,8.8084,8.8084,8.8084,8.8084,8.8084,8.8084,8.8084,8.8084,8.8084,8.8084,8.8084,8.8121,8.8195,8.8307,8.8455,8.8976,9.0127,9.1167,9.1799,9.2356,8.0362,8.0672,8.1121,8.15,8.1776,8.1776,8.1776,8.1776,8.1776,8.1776,8.1776,8.1776,8.2604,8.3845,8.4087,8.4811,8.6191,8.588,8.5397,8.4604,8.3983,8.3156,8.2466,8.2086,8.1845,8.1776,8.1776,8.1776,8.1776,8.1776,8.1776,8.1879,8.2535,8.3018,8.3466,8.4052,8.4737,8.4911,8.5012,8.5018,8.4763,8.4356,8.3972,8.3682,8.2951,8.2557,8.2488,8.2488,8.2488,8.2488,8.2488,8.2442,8.235,8.2083,8.1239,7.9948,7.9534,7.8879,7.8279,7.8394,7.9197,8.007,8.1081,8.3112,8.5337,8.7341,8.8995,9.0377,9.0907,9.132,9.1508,9.1657,9.173,9.1803,9.1803,9.1803,9.1948,9.2091,9.2303,9.2547,9.2717,9.2922,9.2876,9.2691,9.2133,9.0945,8.9979,8.9198,8.8641,8.8233,8.8084,8.8084,8.8084,8.8084,8.8084,8.8084,8.8084,8.8084,8.8084,8.8084,8.8084,8.8084,8.8084,8.8084,8.8084,8.8084,8.8084,8.8084,8.8158,8.8344,8.8493,8.9273,9.0313,9.1316,9.1836,7.9844,8.0534,8.0672,8.1224,8.1741,8.1776,8.1776,8.1776,8.1776,8.1776,8.1776,8.1776,8.2535,8.3604,8.3949,8.4639,8.5466,8.5432,8.4846,8.3949,8.3397,8.2673,8.2155,8.1776,8.1776,8.1776,8.1776,8.1776,8.1776,8.1776,8.181,8.1845,8.2707,8.3328,8.388,8.4846,8.5481,8.5738,8.5381,8.5055,8.4864,8.432,8.3624,8.3555,8.2952,8.2396,8.2396,8.2442,8.2442,8.2442,8.2396,8.2257,8.2106,8.1883,8.0961,8.0155,7.9672,7.8844,7.812,7.8027,7.8269,7.905,7.9936,8.1839,8.4026,8.6025,8.7855,8.958,9.0272,9.0704,9.0939,9.1208,9.1433,9.1583,9.1657,9.173,9.1876,9.2091,9.2338,9.2582,9.2822,9.2955,9.2839,9.2616,9.1836,9.0685,8.983,8.9087,8.853,8.8158,8.8084,8.8084,8.8084,8.8084,8.8084,8.8084,8.8084,8.8084,8.8084,8.8084,8.8084,8.8084,8.8084,8.8084,8.8084,8.8084,8.8084,8.8084,8.8084,8.8158,8.8307,8.8493,8.9347,9.0462,9.113,7.912,7.9913,8.1017,8.1638,8.1776,8.1776,8.1776,8.1776,8.1776,8.1776,8.1776,8.1879,8.2293,8.319,8.3742,8.4328,8.4535,8.4811,8.4294,8.3569,8.2914,8.2431,8.1914,8.1776,8.1776,8.1776,8.1776,8.1776,8.1776,8.1776,8.1845,8.1983,8.2914,8.3845,8.4087,8.5156,8.6053,8.626,8.6014,8.5678,8.57,8.4882,8.4153,8.3724,8.3088,8.2163,8.2012,8.2012,8.1965,8.1965,8.1965,8.1918,8.1871,8.181,8.1293,8.0465,7.981,7.8982,7.8292,7.7844,7.781,7.843,7.9523,8.1228,8.301,8.4869,8.663,8.837,8.9563,8.9981,9.0385,9.0743,9.113,9.1246,9.1472,9.1657,9.1803,9.2091,9.2409,9.2616,9.2855,9.2843,9.2765,9.2208,9.1428,9.061,8.983,8.9087,8.853,8.8084,8.8084,8.8084,8.8084,8.8084,8.8084,8.8084,8.8084,8.8084,8.8084,8.8084,8.8084,8.8084,8.8084,8.8084,8.8084,8.8084,8.8084,8.8084,8.8084,8.8084,8.8121,8.8307,8.8493,8.9384,9.0053,7.8327,7.9189,8.0638,8.15,8.1776,8.1776,8.1776,8.1776,8.1776,8.1776,8.1776,8.1845,8.2224,8.2845,8.3362,8.3776,8.388,8.4052,8.3673,8.3087,8.2535,8.219,8.1914,8.1776,8.1776,8.1776,8.1776,8.1776,8.1776,8.1776,8.1845,8.2052,8.319,8.4052,8.4225,8.5432,8.6294,8.6294,8.6294,8.6221,8.6093,8.4987,8.426,8.3749,8.2872,8.1983,8.1776,8.1776,8.181,8.181,8.1823,8.1823,8.1776,8.1776,8.1362,8.0638,7.9913,7.9189,7.8465,7.7844,7.7499,7.8085,7.9051,8.0674,8.2241,8.4019,8.5846,8.7498,8.8499,8.9055,8.9485,8.9862,9.0429,9.0746,9.117,9.1471,9.1767,9.2127,9.2338,9.2513,9.2643,9.2691,9.2356,9.1539,9.0759,8.9979,8.9273,8.8864,8.8344,8.8084,8.8084,8.8084,8.8084,8.8084,8.8084,8.8084,8.8084,8.8084,8.8084,8.8084,8.8084,8.8084,8.8084,8.8084,8.8084,8.8084,8.8084,8.8084,8.8084,8.8084,8.8084,8.8121,8.8307,8.8455,8.8976,7.7706,7.8568,8.0017,8.0983,8.1638,8.1776,8.1776,8.1776,8.1776,8.1776,8.1776,8.1776,8.2224,8.2569,8.2914,8.3293,8.35,8.3397,8.3018,8.2604,8.2121,8.1948,8.1879,8.1776,8.1776,8.1776,8.1776,8.1776,8.1776,8.1776,8.1879,8.2121,8.2983,8.4018,8.4466,8.5363,8.6294,8.6225,8.6087,8.5742,8.5156,8.4432,8.4052,8.3431,8.2638,8.1879,8.1776,8.1776,8.1776,8.1776,8.1776,8.1776,8.1776,8.1776,8.15,8.0879,7.9982,7.9327,7.8603,7.7775,7.7534,7.7775,7.8879,8.0189,8.1741,8.3417,8.5207,8.6529,8.7515,8.8153,8.8615,8.9055,8.9612,9.0268,9.0743,9.1358,9.173,9.2127,9.2303,9.2407,9.2387,9.2398,9.1799,9.0982,9.0127,8.9347,8.879,8.8381,8.8084,8.8084,8.8084,8.8084,8.8084,8.8084,8.8084,8.8084,8.8084,8.8084,8.8084,8.8084,8.8084,8.8084,8.8084,8.8084,8.8084,8.8084,8.8084,8.8084,8.8084,8.8084,8.8084,8.8084,8.8121,8.8233,8.8195,7.7672,7.8534,8.0017,8.0707,8.0948,8.1535,8.1776,8.1776,8.1776,8.1776,8.1776,8.181,8.1948,8.2052,8.2707,8.2914,8.2535,8.2604,8.2397,8.1983,8.1914,8.181,8.1776,8.1776,8.1776,8.1776,8.1776,8.1776,8.1776,8.1776,8.181,8.1914,8.3225,8.4018,8.4294,8.5225,8.6087,8.5984,8.5604,8.519,8.4984,8.4328,8.3673,8.3018,8.2293,8.1914,8.1776,8.1776,8.1776,8.1776,8.1776,8.1776,8.1776,8.1776,8.1603,8.1224,8.0327,7.9638,7.8913,7.8017,7.7706,7.8051,7.9189,8.0465,8.1948,8.3362,8.4952,8.6177,8.7012,8.7348,8.7819,8.8153,8.8704,8.9485,9.0105,9.0941,9.1657,9.2019,9.2301,9.2215,9.2117,9.1952,9.1502,9.061,8.9681,8.9013,8.8567,8.8195,8.8084,8.8084,8.8084,8.8084,8.8084,8.8084,8.8084,8.8084,8.8084,8.8084,8.8084,8.8084,8.8084,8.8084,8.8084,8.8084,8.8084,8.8084,8.8084,8.8084,8.8084,8.8084,8.8084,8.8084,8.8084,8.8084,8.8084]}]]